Darstellungsparameter: Aktuell verwendete Einstellungen:
Skalierung der Graphiken ... ?
xyx+y,   Skalierungsfaktor:      Skalierung: Modus: x, Faktor: 1
Darstellungszeitraum ... ?
Vom - - bis: - -   Zeitraum: 15.07.2014 - 14.07.2015
Min/Max/Avg-Anzeige ... ?
Zeige MMA aktuell
Zeige MMA Monat
Zeige MMA alles
Zeige --A aktuell
Zeige --A Monat
Zeige --A alles
Keine MMA-Anzeige
MMA:
Average (ber die Originaldaten)
MMA-Basis: 23.02.2003 - 03.08.2020
Quicknavigation für Darstellung... ?
Tage:      1T, 2T, 3T, 5T -1T -2T -3T -5T +1T +2T +3T +5T
Wochen: 1W, 2W, 3W -1W -2W -3W +1W +2W +3W
Monate: 1M, 3M, 6M -1M -3M -6M +1M +3M +6M
Jahre:    1J, 3J, 5J, 10J -1J -3J -5J -10J +1J +3J +5J +10J
Nutze für die Darstellung ... ?
Originaldaten oder ...
Mittelwerte Minima Maxima auf...
Stundenbasis Tagesbasis Wochenbasis
Monatsbasis Jahresbasis      Datenbasis: Mittelwerte auf Stundenbasis
Darstellen als:
Statistik (Auto) Statistik J:M      Darstellung:
Zur Graphik,    zurück zur Übersicht aller Sensoren.
 
Tabellarische Datenbersicht: ?
 
Sensor: Nr:Datum:Temp:Abs-Feuchte:Windchill:Wind:
Aussen-T/F 1 15-07-2014 06:00:00 13.77778 C 11.48 g/m*3 13.78 C 0.35556 km/h
2 15-07-2014 07:00:00 14.43333 C 12.02 g/m*3 14.43 C 1.33333 km/h
3 15-07-2014 08:00:00 16.28333 C 12.85 g/m*3 16.28 C 4.275 km/h
4 15-07-2014 09:00:00 18.46667 C 13.51 g/m*3 18.47 C 5.875 km/h
5 15-07-2014 10:00:00 20.975 C 13.37 g/m*3 20.98 C 5.9 km/h
6 15-07-2014 11:00:00 22.04167 C 14.04 g/m*3 22.04 C 4.95 km/h
7 15-07-2014 12:00:00 23.425 C 12.41 g/m*3 23.43 C 7.925 km/h
8 15-07-2014 13:00:00 23.825 C 12.66 g/m*3 23.83 C 6.44167 km/h
9 15-07-2014 14:00:00 24.50833 C 12 g/m*3 24.51 C 8.59167 km/h
10 15-07-2014 15:00:00 25.09167 C 11.95 g/m*3 25.09 C 10.225 km/h
11 15-07-2014 16:00:00 25.275 C 12.1 g/m*3 25.28 C 7.53333 km/h
12 15-07-2014 17:00:00 25.24167 C 12.41 g/m*3 25.24 C 6.16667 km/h
13 15-07-2014 18:00:00 24.625 C 12.55 g/m*3 24.63 C 7.51667 km/h
14 15-07-2014 19:00:00 23.4 C 13.05 g/m*3 23.4 C 4.55 km/h
15 15-07-2014 20:00:00 22.50833 C 13.12 g/m*3 22.51 C 5.63333 km/h
16 15-07-2014 21:00:00 20.7 C 13.86 g/m*3 20.7 C 2.275 km/h
17 15-07-2014 22:00:00 18.71667 C 13.73 g/m*3 18.72 C 0.13333 km/h
18 15-07-2014 23:00:00 18.60833 C 14 g/m*3 18.61 C 0 km/h
19 16-07-2014 00:00:00 18.30833 C 13.99 g/m*3 18.31 C 0 km/h
20 16-07-2014 01:00:00 18.125 C 13.97 g/m*3 18.13 C 0 km/h
21 16-07-2014 02:00:00 17.825 C 13.82 g/m*3 17.83 C 0 km/h
22 16-07-2014 03:00:00 17.625 C 13.71 g/m*3 17.63 C 0 km/h
23 16-07-2014 04:00:00 17.5 C 13.65 g/m*3 17.5 C 0 km/h
24 16-07-2014 05:00:00 17.41667 C 13.65 g/m*3 17.42 C 0.26667 km/h
25 16-07-2014 06:00:00 17.4 C 13.75 g/m*3 17.4 C 0 km/h
Sensor: Nr:Datum:Temp:Abs-Feuchte:Windchill:Wind:
Aussen-T/F 26 16-07-2014 07:00:00 17.6 C 13.95 g/m*3 17.6 C 0 km/h
27 16-07-2014 09:00:00 20.66 C 17.21 g/m*3 20.66 C 0.96 km/h
28 16-07-2014 10:00:00 21.8 C 14.82 g/m*3 21.8 C 2.2 km/h
29 16-07-2014 11:00:00 24.9 C 17.02 g/m*3 24.9 C 4.26667 km/h
30 16-07-2014 12:00:00 24.85 C 14.46 g/m*3 24.85 C 4.55 km/h
31 16-07-2014 13:00:00 25.9 C 13.52 g/m*3 25.9 C 5.34167 km/h
32 16-07-2014 14:00:00 26.475 C 14.25 g/m*3 26.48 C 7.275 km/h
33 16-07-2014 15:00:00 27.4 C 13.68 g/m*3 27.4 C 6.45 km/h
34 16-07-2014 16:00:00 29.04445 C 13.02 g/m*3 29.04 C 5.35556 km/h
35 16-07-2014 17:00:00 29.85 C 12.78 g/m*3 29.85 C 7.8625 km/h
36 16-07-2014 18:00:00 29.38333 C 12.1 g/m*3 29.38 C 5.75833 km/h
37 16-07-2014 19:00:00 27.20833 C 13.86 g/m*3 27.21 C 2.93333 km/h
38 16-07-2014 20:00:00 23.025 C 14.77 g/m*3 23.03 C 0.4 km/h
39 16-07-2014 21:00:00 21.73333 C 14.53 g/m*3 21.73 C 0 km/h
40 16-07-2014 22:00:00 19.44444 C 13.59 g/m*3 19.44 C 0 km/h
41 16-07-2014 23:00:00 18.9 C 13.45 g/m*3 18.9 C 0 km/h
42 17-07-2014 07:00:00 14.84545 C 12.07 g/m*3 14.85 C 0 km/h
43 17-07-2014 08:00:00 17.05833 C 13.1 g/m*3 17.06 C 0 km/h
44 17-07-2014 09:00:00 18.71667 C 13.9 g/m*3 18.72 C 0.26667 km/h
45 17-07-2014 10:00:00 20.45 C 14.64 g/m*3 20.45 C 1.6 km/h
46 17-07-2014 16:00:00 31.44444 C 14.68 g/m*3 31.44 C 5.9 km/h
47 17-07-2014 17:00:00 31.85833 C 13.49 g/m*3 31.86 C 6.71667 km/h
48 17-07-2014 18:00:00 31.28333 C 14.46 g/m*3 31.28 C 5.35 km/h
49 17-07-2014 19:00:00 27.70833 C 16.77 g/m*3 27.71 C 1.33333 km/h
50 17-07-2014 20:00:00 24.48333 C 15.95 g/m*3 24.48 C 0.8 km/h
Sensor: Nr:Datum:Temp:Abs-Feuchte:Windchill:Wind:
Aussen-T/F 51 17-07-2014 21:00:00 22.35 C 15.17 g/m*3 22.35 C 1.33333 km/h
52 17-07-2014 22:00:00 21.31667 C 14.69 g/m*3 21.32 C 0.26667 km/h
53 17-07-2014 23:00:00 20.8 C 14.62 g/m*3 20.8 C 0 km/h
54 18-07-2014 02:00:00 17.3 C 13.15 g/m*3 17.3 C 0 km/h
55 18-07-2014 03:00:00 16.875 C 13 g/m*3 16.88 C 0.13333 km/h
56 18-07-2014 04:00:00 16.6 C 12.86 g/m*3 16.6 C 0 km/h
57 18-07-2014 06:00:00 15.975 C 12.92 g/m*3 15.98 C 0 km/h
58 18-07-2014 07:00:00 16.35833 C 13.13 g/m*3 16.36 C 0 km/h
59 18-07-2014 08:00:00 18.46667 C 14.22 g/m*3 18.47 C 0 km/h
60 18-07-2014 09:00:00 20.21667 C 15.04 g/m*3 20.22 C 0.66667 km/h
61 18-07-2014 10:00:00 21.02 C 15.7 g/m*3 21.02 C 0.96 km/h
62 18-07-2014 13:00:00 30.61667 C 13.38 g/m*3 30.62 C 6.96667 km/h
63 18-07-2014 14:00:00 32.06667 C 13.24 g/m*3 32.07 C 7.24167 km/h
64 18-07-2014 15:00:00 32.3 C 13.03 g/m*3 32.3 C 7.53333 km/h
65 18-07-2014 16:00:00 33.53636 C 13.22 g/m*3 33.54 C 7.76364 km/h
66 18-07-2014 17:00:00 33.875 C 12.67 g/m*3 33.88 C 6.98333 km/h
67 18-07-2014 18:00:00 31.7 C 15.23 g/m*3 31.7 C 3.46667 km/h
68 18-07-2014 19:00:00 28.38333 C 16.18 g/m*3 28.38 C 1.6 km/h
69 18-07-2014 20:00:00 26.65 C 15.4 g/m*3 26.65 C 1.6 km/h
70 18-07-2014 22:00:00 22.58333 C 13.91 g/m*3 22.58 C 1.46667 km/h
71 18-07-2014 23:00:00 22.12222 C 13.01 g/m*3 22.12 C 1.77778 km/h
72 19-07-2014 07:00:00 16.9 C 12.94 g/m*3 16.9 C 0 km/h
73 19-07-2014 08:00:00 18.89167 C 13.72 g/m*3 18.89 C 0 km/h
74 19-07-2014 09:00:00 20.88 C 14.99 g/m*3 20.88 C 0 km/h
75 19-07-2014 10:00:00 22.875 C 16.02 g/m*3 22.88 C 0 km/h
Sensor: Nr:Datum:Temp:Abs-Feuchte:Windchill:Wind:
Aussen-T/F 76 19-07-2014 11:00:00 26.73333 C 16.29 g/m*3 26.73 C 5.225 km/h
77 19-07-2014 12:00:00 30.74167 C 14.07 g/m*3 30.74 C 8.06667 km/h
78 19-07-2014 13:00:00 32.54167 C 12.65 g/m*3 32.54 C 8.06667 km/h
79 19-07-2014 14:00:00 33.23333 C 12.76 g/m*3 33.23 C 10.89167 km/h
80 19-07-2014 15:00:00 34.48333 C 13.56 g/m*3 34.48 C 8.33333 km/h
81 19-07-2014 16:00:00 34.24167 C 13.9 g/m*3 34.24 C 6.85 km/h
82 19-07-2014 17:00:00 31.00833 C 17.26 g/m*3 31.01 C 2.275 km/h
83 19-07-2014 18:00:00 29.91667 C 17.86 g/m*3 29.92 C 1.33333 km/h
84 19-07-2014 19:00:00 28.51667 C 16.86 g/m*3 28.52 C 1.46667 km/h
85 19-07-2014 20:00:00 25.775 C 15.95 g/m*3 25.78 C 1.2 km/h
86 19-07-2014 21:00:00 24.66667 C 15.27 g/m*3 24.67 C 1.33333 km/h
87 19-07-2014 22:00:00 23.85 C 14.78 g/m*3 23.85 C 0.4 km/h
88 19-07-2014 23:00:00 22.85 C 14.67 g/m*3 22.85 C 0 km/h
89 20-07-2014 00:00:00 21.78333 C 14.52 g/m*3 21.78 C 0 km/h
90 20-07-2014 01:00:00 21.15 C 14.31 g/m*3 21.15 C 0.13333 km/h
91 20-07-2014 02:00:00 21 C 14.33 g/m*3 21 C 0.13333 km/h
92 20-07-2014 03:00:00 20.29167 C 14.19 g/m*3 20.29 C 0 km/h
93 20-07-2014 04:00:00 20.2 C 14.19 g/m*3 20.2 C 2.40833 km/h
94 20-07-2014 05:00:00 20.41667 C 14.55 g/m*3 20.42 C 2.26667 km/h
95 20-07-2014 06:00:00 19.19167 C 15 g/m*3 19.19 C 0.66667 km/h
96 20-07-2014 07:00:00 19.04167 C 15.34 g/m*3 19.04 C 1.06667 km/h
97 20-07-2014 08:00:00 19.80833 C 16.09 g/m*3 19.81 C 1.6 km/h
98 20-07-2014 09:00:00 20.96667 C 17.09 g/m*3 20.97 C 0.26667 km/h
99 20-07-2014 10:00:00 22.35 C 17.72 g/m*3 22.35 C 0.13333 km/h
100 20-07-2014 11:00:00 23.54167 C 18.16 g/m*3 23.54 C 1.06667 km/h
Sensor: Nr:Datum:Temp:Abs-Feuchte:Windchill:Wind:
Aussen-T/F 101 20-07-2014 12:00:00 25.7 C 17.42 g/m*3 25.7 C 4.15 km/h
102 20-07-2014 13:00:00 27.93333 C 18.04 g/m*3 27.93 C 2.8 km/h
103 20-07-2014 14:00:00 28.7 C 16.22 g/m*3 28.7 C 5.35 km/h
104 20-07-2014 15:00:00 26.15833 C 17.46 g/m*3 26.16 C 1.06667 km/h
105 20-07-2014 16:00:00 24.54167 C 17.2 g/m*3 24.54 C 2.40833 km/h
106 20-07-2014 17:00:00 24.30833 C 17.91 g/m*3 24.31 C 0.8 km/h
107 20-07-2014 18:00:00 25.15833 C 18.04 g/m*3 25.16 C 0.53333 km/h
108 20-07-2014 19:00:00 23.89167 C 17.15 g/m*3 23.89 C 2.00833 km/h
109 20-07-2014 20:00:00 24.05 C 15.58 g/m*3 24.05 C 8.59167 km/h
110 20-07-2014 21:00:00 22.76667 C 16.09 g/m*3 22.77 C 0.8 km/h
111 20-07-2014 22:00:00 20.91667 C 16.3 g/m*3 20.92 C 0 km/h
112 20-07-2014 23:00:00 20.625 C 16.24 g/m*3 20.63 C 0.13333 km/h
113 21-07-2014 00:00:00 20.58333 C 16.06 g/m*3 20.58 C 0 km/h
114 21-07-2014 01:00:00 20.40833 C 15.74 g/m*3 20.41 C 0 km/h
115 21-07-2014 02:00:00 20.3 C 15.77 g/m*3 20.3 C 0 km/h
116 21-07-2014 03:00:00 20.11667 C 15.69 g/m*3 20.12 C 0 km/h
117 21-07-2014 04:00:00 19.78333 C 15.57 g/m*3 19.78 C 0 km/h
118 21-07-2014 05:00:00 19.56667 C 15.5 g/m*3 19.57 C 0 km/h
119 21-07-2014 06:00:00 19.59167 C 15.51 g/m*3 19.59 C 0 km/h
120 21-07-2014 07:00:00 19.73333 C 15.6 g/m*3 19.73 C 3.21667 km/h
121 21-07-2014 08:00:00 19.13333 C 15.69 g/m*3 19.13 C 0.4 km/h
122 21-07-2014 09:00:00 19.23333 C 15.98 g/m*3 19.23 C 0.13333 km/h
123 21-07-2014 10:00:00 19.73333 C 16.45 g/m*3 19.73 C 1.06667 km/h
124 21-07-2014 11:00:00 19.975 C 16.52 g/m*3 19.98 C 1.2 km/h
125 21-07-2014 12:00:00 19.64167 C 16.18 g/m*3 19.64 C 9.25 km/h
Sensor: Nr:Datum:Temp:Abs-Feuchte:Windchill:Wind:
Aussen-T/F 126 21-07-2014 13:00:00 20.34167 C 16.88 g/m*3 20.34 C 4.28333 km/h
127 21-07-2014 14:00:00 21.04167 C 16.73 g/m*3 21.04 C 8.475 km/h
128 21-07-2014 15:00:00 21.84167 C 16.92 g/m*3 21.84 C 6.85 km/h
129 21-07-2014 16:00:00 22.05833 C 16.47 g/m*3 22.06 C 9.55833 km/h
130 21-07-2014 17:00:00 22.35 C 16.37 g/m*3 22.35 C 14.76667 km/h
131 21-07-2014 18:00:00 21.14167 C 15.53 g/m*3 21.14 C 11.40833 km/h
132 21-07-2014 19:00:00 20.83333 C 15.6 g/m*3 20.83 C 9.28333 km/h
133 21-07-2014 20:00:00 20.61667 C 15.75 g/m*3 20.62 C 5.625 km/h
134 21-07-2014 21:00:00 20.11667 C 15.85 g/m*3 20.12 C 3.74167 km/h
135 21-07-2014 22:00:00 19.6 C 15.83 g/m*3 19.6 C 0 km/h
136 21-07-2014 23:00:00 19.45 C 15.9 g/m*3 19.45 C 0 km/h
137 22-07-2014 00:00:00 19.63333 C 16.11 g/m*3 19.63 C 0.93333 km/h
138 22-07-2014 01:00:00 19.825 C 16.22 g/m*3 19.83 C 3.46667 km/h
139 22-07-2014 02:00:00 20.00833 C 16.25 g/m*3 20.01 C 3.33333 km/h
140 22-07-2014 03:00:00 19.94167 C 16.19 g/m*3 19.94 C 2.675 km/h
141 22-07-2014 04:00:00 19.87 C 16.12 g/m*3 19.87 C 1.12 km/h
142 22-07-2014 08:00:00 20.38 C 16.89 g/m*3 20.38 C 2.56 km/h
143 22-07-2014 09:00:00 21.20833 C 17.2 g/m*3 21.21 C 5.35 km/h
144 22-07-2014 10:00:00 22.11667 C 17.45 g/m*3 22.12 C 6.83333 km/h
145 22-07-2014 11:00:00 22.95 C 17.56 g/m*3 22.95 C 7.11667 km/h
146 22-07-2014 12:00:00 24.80833 C 18.39 g/m*3 24.81 C 6.425 km/h
147 22-07-2014 13:00:00 26.375 C 18.69 g/m*3 26.38 C 7.125 km/h
148 22-07-2014 14:00:00 25.68333 C 18.2 g/m*3 25.68 C 7.51667 km/h
149 22-07-2014 15:00:00 27.69167 C 18.74 g/m*3 27.69 C 10.63333 km/h
150 22-07-2014 16:00:00 29.13333 C 18.06 g/m*3 29.13 C 10.75833 km/h
Sensor: Nr:Datum:Temp:Abs-Feuchte:Windchill:Wind:
Aussen-T/F 151 22-07-2014 17:00:00 28.90833 C 17.79 g/m*3 28.91 C 13.16667 km/h
152 22-07-2014 18:00:00 28.95833 C 17.67 g/m*3 28.96 C 11.7 km/h
153 22-07-2014 19:00:00 27.325 C 17.82 g/m*3 27.33 C 7.11667 km/h
154 22-07-2014 20:00:00 25.06667 C 18.77 g/m*3 25.07 C 1.86667 km/h
155 22-07-2014 21:00:00 22.55833 C 17.1 g/m*3 22.56 C 0.4 km/h
156 22-07-2014 22:00:00 21.66667 C 16.47 g/m*3 21.67 C 0.8 km/h
157 22-07-2014 23:00:00 20.725 C 15.86 g/m*3 20.73 C 0.4 km/h
158 23-07-2014 00:00:00 20.125 C 15.61 g/m*3 20.13 C 0.13333 km/h
159 23-07-2014 01:00:00 19.66667 C 15.35 g/m*3 19.67 C 0 km/h
160 23-07-2014 02:00:00 18.96667 C 14.95 g/m*3 18.97 C 0 km/h
161 23-07-2014 03:00:00 18.3 C 14.68 g/m*3 18.3 C 0 km/h
162 23-07-2014 04:00:00 17.94167 C 14.53 g/m*3 17.94 C 0 km/h
163 23-07-2014 05:00:00 17.56667 C 14.27 g/m*3 17.57 C 0 km/h
164 23-07-2014 06:00:00 17.35 C 14.2 g/m*3 17.35 C 0 km/h
165 23-07-2014 07:00:00 17.875 C 14.71 g/m*3 17.88 C 0 km/h
166 23-07-2014 08:00:00 19.68333 C 15.79 g/m*3 19.68 C 0 km/h
167 23-07-2014 09:00:00 21.14167 C 16.22 g/m*3 21.14 C 0 km/h
168 23-07-2014 10:00:00 23 C 16.56 g/m*3 23 C 0.17778 km/h
169 23-07-2014 11:00:00 25.1 C 17.13 g/m*3 25.1 C 0 km/h
170 23-07-2014 12:00:00 26.30833 C 16.59 g/m*3 26.31 C 3.33333 km/h
171 23-07-2014 13:00:00 28.81667 C 14.12 g/m*3 28.82 C 8.30833 km/h
172 23-07-2014 14:00:00 29.53333 C 13.18 g/m*3 29.53 C 9.14167 km/h
173 23-07-2014 15:00:00 29.15 C 14.12 g/m*3 29.15 C 7.25833 km/h
174 23-07-2014 16:00:00 29.275 C 13.8 g/m*3 29.28 C 7.4 km/h
175 23-07-2014 17:00:00 30.775 C 13.1 g/m*3 30.78 C 8.475 km/h
Sensor: Nr:Datum:Temp:Abs-Feuchte:Windchill:Wind:
Aussen-T/F 176 23-07-2014 18:00:00 30.01667 C 12.62 g/m*3 30.02 C 11.7 km/h
177 23-07-2014 19:00:00 28.29167 C 13.45 g/m*3 28.29 C 6.56667 km/h
178 23-07-2014 20:00:00 24.9 C 15.78 g/m*3 24.9 C 1.2 km/h
179 23-07-2014 21:00:00 22.125 C 14.56 g/m*3 22.13 C 0.53333 km/h
180 23-07-2014 22:00:00 20.70833 C 14 g/m*3 20.71 C 0.66667 km/h
181 23-07-2014 23:00:00 20 C 13.91 g/m*3 20 C 0.53333 km/h
182 24-07-2014 00:00:00 19.34167 C 13.81 g/m*3 19.34 C 0.13333 km/h
183 24-07-2014 01:00:00 18.775 C 13.64 g/m*3 18.77 C 0 km/h
184 24-07-2014 02:00:00 18.13333 C 13.3 g/m*3 18.13 C 0 km/h
185 24-07-2014 03:00:00 17.375 C 12.99 g/m*3 17.38 C 0 km/h
186 24-07-2014 04:00:00 16.71667 C 12.74 g/m*3 16.72 C 0 km/h
187 24-07-2014 05:00:00 16.075 C 12.5 g/m*3 16.08 C 0 km/h
188 24-07-2014 06:00:00 16.1 C 12.61 g/m*3 16.1 C 0 km/h
189 24-07-2014 07:00:00 16.85455 C 13.2 g/m*3 16.85 C 0 km/h
190 24-07-2014 08:00:00 17.3 C 13.26 g/m*3 17.3 C 0 km/h
191 24-07-2014 10:00:00 22.84286 C 13.56 g/m*3 22.84 C 2.51429 km/h
192 24-07-2014 11:00:00 24.90833 C 12.98 g/m*3 24.91 C 5.9 km/h
193 24-07-2014 12:00:00 26.14167 C 12.8 g/m*3 26.14 C 8.86667 km/h
194 24-07-2014 13:00:00 27.40833 C 12.64 g/m*3 27.41 C 9.95 km/h
195 24-07-2014 14:00:00 28.15833 C 12.34 g/m*3 28.16 C 9.675 km/h
196 24-07-2014 15:00:00 25.025 C 12.14 g/m*3 25.03 C 10.875 km/h
197 24-07-2014 16:00:00 21.59167 C 12.8 g/m*3 21.59 C 5.08333 km/h
198 24-07-2014 17:00:00 21.36667 C 14.16 g/m*3 21.37 C 0.53333 km/h
199 24-07-2014 18:00:00 21.3 C 14.15 g/m*3 21.3 C 3.34167 km/h
200 24-07-2014 19:00:00 21.99167 C 12.53 g/m*3 21.99 C 5.08333 km/h
Sensor: Nr:Datum:Temp:Abs-Feuchte:Windchill:Wind:
Aussen-T/F 201 24-07-2014 20:00:00 21.34167 C 11.88 g/m*3 21.34 C 8.05 km/h
202 24-07-2014 21:00:00 18.80833 C 12.07 g/m*3 18.81 C 1.33333 km/h
203 24-07-2014 22:00:00 16.61667 C 11.9 g/m*3 16.62 C 0 km/h
204 24-07-2014 23:00:00 16.45833 C 12.15 g/m*3 16.46 C 0 km/h
205 25-07-2014 00:00:00 16.3625 C 12.86 g/m*3 16.36 C 0 km/h
206 25-07-2014 08:00:00 16.8 C 13.35 g/m*3 16.8 C 0 km/h
207 25-07-2014 09:00:00 17.28333 C 13.71 g/m*3 17.28 C 0 km/h
208 25-07-2014 10:00:00 19.53333 C 14.17 g/m*3 19.53 C 1.46667 km/h
209 25-07-2014 11:00:00 22.43333 C 14.51 g/m*3 22.43 C 3.88333 km/h
210 25-07-2014 12:00:00 23.625 C 13.99 g/m*3 23.63 C 5.63333 km/h
211 25-07-2014 13:00:00 25.05833 C 13.91 g/m*3 25.06 C 7.525 km/h
212 25-07-2014 14:00:00 26.25833 C 13.21 g/m*3 26.26 C 8.61667 km/h
213 25-07-2014 15:00:00 23.7 C 14.76 g/m*3 23.7 C 1.46667 km/h
214 25-07-2014 16:00:00 25.11667 C 13.63 g/m*3 25.12 C 4.4 km/h
215 25-07-2014 17:00:00 23.16667 C 14.34 g/m*3 23.17 C 3.21111 km/h
216 25-07-2014 18:00:00 25.45 C 18.77 g/m*3 25.45 C 5.6 km/h
217 25-07-2014 19:00:00 24.37778 C 13.11 g/m*3 24.38 C 5.51111 km/h
218 25-07-2014 20:00:00 22.725 C 13.35 g/m*3 22.73 C 4.40833 km/h
219 25-07-2014 21:00:00 20.43333 C 13.93 g/m*3 20.43 C 0 km/h
220 25-07-2014 22:00:00 18.225 C 13.36 g/m*3 18.23 C 0.13333 km/h
221 25-07-2014 23:00:00 17.36667 C 13.13 g/m*3 17.37 C 0 km/h
222 26-07-2014 00:00:00 16.55 C 12.89 g/m*3 16.55 C 0 km/h
223 26-07-2014 01:00:00 16.26667 C 12.92 g/m*3 16.27 C 0 km/h
224 26-07-2014 02:00:00 16.3 C 13.04 g/m*3 16.3 C 0 km/h
225 26-07-2014 08:00:00 16.86667 C 13.46 g/m*3 16.87 C 1.77778 km/h
Sensor: Nr:Datum:Temp:Abs-Feuchte:Windchill:Wind:
Aussen-T/F 226 26-07-2014 09:00:00 17.43333 C 13.71 g/m*3 17.43 C 2.8 km/h
227 26-07-2014 10:00:00 18.1 C 13.96 g/m*3 18.1 C 2.8 km/h
228 26-07-2014 11:00:00 19.3625 C 14.53 g/m*3 19.36 C 2.8 km/h
229 26-07-2014 14:00:00 25.67 C 15.51 g/m*3 25.67 C 7.09 km/h
230 26-07-2014 15:00:00 26.58333 C 14.08 g/m*3 26.58 C 6.45 km/h
231 26-07-2014 16:00:00 27.525 C 13.49 g/m*3 27.53 C 7.11667 km/h
232 26-07-2014 17:00:00 27.50833 C 13.61 g/m*3 27.51 C 7.25 km/h
233 26-07-2014 18:00:00 27 C 14.07 g/m*3 27 C 6.23333 km/h
234 26-07-2014 19:00:00 26.175 C 13.75 g/m*3 26.18 C 7.94167 km/h
235 26-07-2014 20:00:00 24.96667 C 14.78 g/m*3 24.97 C 1.06667 km/h
236 26-07-2014 21:00:00 20.36667 C 14.54 g/m*3 20.37 C 0 km/h
237 26-07-2014 22:00:00 20.01667 C 14.44 g/m*3 20.02 C 0.13333 km/h
238 26-07-2014 23:00:00 19.58333 C 14.17 g/m*3 19.58 C 0 km/h
239 27-07-2014 01:00:00 17.95 C 13.48 g/m*3 17.95 C 0 km/h
240 27-07-2014 03:00:00 16.74286 C 13.17 g/m*3 16.74 C 0 km/h
241 27-07-2014 04:00:00 16.33333 C 13 g/m*3 16.33 C 0 km/h
242 27-07-2014 05:00:00 15.85 C 12.75 g/m*3 15.85 C 0 km/h
243 27-07-2014 06:00:00 15.58333 C 12.64 g/m*3 15.58 C 0 km/h
244 27-07-2014 07:00:00 16.03333 C 13.03 g/m*3 16.03 C 0.53333 km/h
245 27-07-2014 08:00:00 17.825 C 13.76 g/m*3 17.83 C 1.6 km/h
246 27-07-2014 09:00:00 19.02857 C 14.29 g/m*3 19.03 C 4.81429 km/h
247 27-07-2014 10:00:00 21.1 C 16.03 g/m*3 21.1 C 3.2 km/h
248 27-07-2014 11:00:00 23.56 C 15.87 g/m*3 23.56 C 7.4 km/h
249 27-07-2014 12:00:00 24.23333 C 15.74 g/m*3 24.23 C 4.81667 km/h
250 27-07-2014 13:00:00 25 C 15.19 g/m*3 25 C 2.66667 km/h
Sensor: Nr:Datum:Temp:Abs-Feuchte:Windchill:Wind:
Aussen-T/F 251 27-07-2014 14:00:00 26.5375 C 15.62 g/m*3 26.54 C 1.6 km/h
252 27-07-2014 15:00:00 27 C 15.18 g/m*3 27 C 3.76667 km/h
253 27-07-2014 18:00:00 27.14 C 14.89 g/m*3 27.14 C 8.4 km/h
254 28-07-2014 07:00:00 17.05556 C 13.94 g/m*3 17.06 C 4.97778 km/h
255 28-07-2014 08:00:00 17.93333 C 14.56 g/m*3 17.93 C 2.26667 km/h
256 28-07-2014 09:00:00 19.4 C 15.24 g/m*3 19.4 C 0 km/h
257 28-07-2014 10:00:00 20.37143 C 15.92 g/m*3 20.37 C 0 km/h
258 28-07-2014 11:00:00 26.25714 C 15.74 g/m*3 26.26 C 4.81429 km/h
259 28-07-2014 12:00:00 26.7 C 14.68 g/m*3 26.7 C 6.4 km/h
260 28-07-2014 13:00:00 28.17273 C 17.55 g/m*3 28.17 C 4.95455 km/h
261 28-07-2014 14:00:00 26.35 C 16.53 g/m*3 26.35 C 1.6 km/h
262 28-07-2014 15:00:00 24.13333 C 17.1 g/m*3 24.13 C 2.4 km/h
263 28-07-2014 16:00:00 24.4 C 16.47 g/m*3 24.4 C 4.8 km/h
264 28-07-2014 17:00:00 24.3 C 15.53 g/m*3 24.3 C 10.66 km/h
265 28-07-2014 18:00:00 23.81667 C 15.75 g/m*3 23.82 C 9.25833 km/h
266 28-07-2014 19:00:00 23 C 15.59 g/m*3 23 C 7.1 km/h
267 28-07-2014 20:00:00 22.41667 C 15.06 g/m*3 22.42 C 7.65 km/h
268 28-07-2014 21:00:00 21.45833 C 14.39 g/m*3 21.46 C 4.54167 km/h
269 28-07-2014 22:00:00 20.75 C 14.49 g/m*3 20.75 C 4.14167 km/h
270 28-07-2014 23:00:00 19.94167 C 14.68 g/m*3 19.94 C 1.46667 km/h
271 29-07-2014 00:00:00 19.15833 C 15.3 g/m*3 19.16 C 0.13333 km/h
272 29-07-2014 01:00:00 18.48333 C 15.11 g/m*3 18.48 C 0 km/h
273 29-07-2014 02:00:00 18.68333 C 15.46 g/m*3 18.68 C 0 km/h
274 29-07-2014 03:00:00 18.675 C 15.51 g/m*3 18.68 C 0 km/h
275 29-07-2014 04:00:00 18.725 C 15.55 g/m*3 18.73 C 0 km/h
Sensor: Nr:Datum:Temp:Abs-Feuchte:Windchill:Wind:
Aussen-T/F 276 29-07-2014 05:00:00 18.28333 C 15.15 g/m*3 18.28 C 0 km/h
277 29-07-2014 06:00:00 18.33333 C 15.2 g/m*3 18.33 C 0 km/h
278 29-07-2014 07:00:00 18.56667 C 15.57 g/m*3 18.57 C 0 km/h
279 29-07-2014 08:00:00 18.70833 C 15.58 g/m*3 18.71 C 1.6 km/h
280 29-07-2014 09:00:00 19.05833 C 15.89 g/m*3 19.06 C 0.53333 km/h
281 29-07-2014 10:00:00 19.5 C 16.32 g/m*3 19.5 C 0 km/h
282 29-07-2014 11:00:00 19.83333 C 16.64 g/m*3 19.83 C 0 km/h
283 29-07-2014 12:00:00 20.9 C 17.27 g/m*3 20.9 C 3.46667 km/h
284 29-07-2014 13:00:00 21.31667 C 17.69 g/m*3 21.32 C 0 km/h
285 29-07-2014 14:00:00 20.95 C 17.23 g/m*3 20.95 C 2.68333 km/h
286 29-07-2014 15:00:00 21.5 C 17.51 g/m*3 21.5 C 2.26667 km/h
287 29-07-2014 16:00:00 20.625 C 17.24 g/m*3 20.63 C 0 km/h
288 29-07-2014 17:00:00 22.20833 C 18.66 g/m*3 22.21 C 1.73333 km/h
289 29-07-2014 18:00:00 23.01667 C 18.65 g/m*3 23.02 C 3.06667 km/h
290 29-07-2014 19:00:00 21.59167 C 17.91 g/m*3 21.59 C 2.675 km/h
291 29-07-2014 20:00:00 20.6 C 17.21 g/m*3 20.6 C 1.73333 km/h
292 29-07-2014 21:00:00 20.06667 C 16.68 g/m*3 20.07 C 2 km/h
293 29-07-2014 22:00:00 19.41667 C 16.17 g/m*3 19.42 C 0 km/h
294 29-07-2014 23:00:00 18.96667 C 15.78 g/m*3 18.97 C 0.13333 km/h
295 30-07-2014 00:00:00 18.91667 C 15.88 g/m*3 18.92 C 1.6 km/h
296 30-07-2014 01:00:00 18.73333 C 15.68 g/m*3 18.73 C 0 km/h
297 30-07-2014 02:00:00 18.7 C 15.69 g/m*3 18.7 C 0 km/h
298 30-07-2014 03:00:00 18.7 C 15.69 g/m*3 18.7 C 0.13333 km/h
299 30-07-2014 04:00:00 18.7 C 15.69 g/m*3 18.7 C 1.33333 km/h
300 30-07-2014 05:00:00 18.775 C 15.76 g/m*3 18.77 C 0.8 km/h
Sensor: Nr:Datum:Temp:Abs-Feuchte:Windchill:Wind:
Aussen-T/F 301 30-07-2014 06:00:00 18.8 C 15.78 g/m*3 18.8 C 4.14167 km/h
302 30-07-2014 07:00:00 18.55833 C 15.35 g/m*3 18.56 C 10.61667 km/h
303 30-07-2014 08:00:00 18.325 C 14.78 g/m*3 18.33 C 10.75 km/h
304 30-07-2014 09:00:00 17.925 C 14.36 g/m*3 17.93 C 7.25 km/h
305 30-07-2014 10:00:00 18.28333 C 14.47 g/m*3 18.28 C 7.1 km/h
306 30-07-2014 11:00:00 18.96667 C 14.56 g/m*3 18.97 C 9.95 km/h
307 30-07-2014 12:00:00 19.725 C 14.51 g/m*3 19.73 C 10.08333 km/h
308 30-07-2014 13:00:00 20.88333 C 14.4 g/m*3 20.88 C 10.89167 km/h
309 30-07-2014 14:00:00 21.71667 C 13.89 g/m*3 21.72 C 11.96667 km/h
310 30-07-2014 15:00:00 22.86667 C 13.46 g/m*3 22.87 C 14.63333 km/h
311 30-07-2014 16:00:00 23.48333 C 13.33 g/m*3 23.48 C 12.76667 km/h
312 30-07-2014 17:00:00 23.01667 C 13.03 g/m*3 23.02 C 7.375 km/h
313 30-07-2014 18:00:00 23.74167 C 12.76 g/m*3 23.74 C 6.70833 km/h
314 30-07-2014 19:00:00 22.98333 C 13 g/m*3 22.98 C 8.85833 km/h
315 30-07-2014 20:00:00 20.58333 C 14.44 g/m*3 20.58 C 2.53333 km/h
316 30-07-2014 21:00:00 19.01667 C 14.14 g/m*3 19.02 C 1.73333 km/h
317 30-07-2014 22:00:00 18.46667 C 14.03 g/m*3 18.47 C 0 km/h
318 30-07-2014 23:00:00 18.5 C 13.96 g/m*3 18.5 C 0 km/h
319 31-07-2014 00:00:00 18.4 C 13.88 g/m*3 18.4 C 0 km/h
320 31-07-2014 01:00:00 18.46667 C 13.37 g/m*3 18.47 C 0 km/h
321 31-07-2014 02:00:00 17.45 C 12.91 g/m*3 17.45 C 0.675 km/h
322 31-07-2014 03:00:00 16.225 C 12.6 g/m*3 16.23 C 0 km/h
323 31-07-2014 04:00:00 16.125 C 12.74 g/m*3 16.13 C 0 km/h
324 31-07-2014 05:00:00 16.09167 C 12.64 g/m*3 16.09 C 0 km/h
325 31-07-2014 06:00:00 16.09167 C 12.74 g/m*3 16.09 C 0 km/h
Sensor: Nr:Datum:Temp:Abs-Feuchte:Windchill:Wind:
Aussen-T/F 326 31-07-2014 07:00:00 16.5 C 12.84 g/m*3 16.5 C 0 km/h
327 31-07-2014 08:00:00 17.16667 C 12.79 g/m*3 17.17 C 0 km/h
328 31-07-2014 09:00:00 18.025 C 12.96 g/m*3 18.02 C 0 km/h
329 31-07-2014 10:00:00 18.93333 C 13.32 g/m*3 18.93 C 0 km/h
330 31-07-2014 11:00:00 19.90833 C 13.91 g/m*3 19.91 C 0 km/h
331 31-07-2014 12:00:00 21.5125 C 13.59 g/m*3 21.51 C 4.6125 km/h
332 31-07-2014 13:00:00 23.74286 C 12.96 g/m*3 23.74 C 7.38571 km/h
333 31-07-2014 14:00:00 25.25833 C 12.09 g/m*3 25.26 C 8.45833 km/h
334 31-07-2014 15:00:00 26.3 C 11.88 g/m*3 26.3 C 6.575 km/h
335 31-07-2014 16:00:00 27.20833 C 11.72 g/m*3 27.21 C 5.625 km/h
336 31-07-2014 17:00:00 27.74167 C 11.64 g/m*3 27.74 C 5.625 km/h
337 31-07-2014 18:00:00 26.85 C 14 g/m*3 26.85 C 3.6 km/h
338 31-07-2014 19:00:00 22.8 C 15.19 g/m*3 22.8 C 0.93333 km/h
339 31-07-2014 20:00:00 20.11667 C 14.28 g/m*3 20.12 C 0.93333 km/h
340 31-07-2014 21:00:00 19.4 C 14.04 g/m*3 19.4 C 0.4 km/h
341 31-07-2014 22:00:00 18.59167 C 13.5 g/m*3 18.59 C 0.13333 km/h
342 31-07-2014 23:00:00 17.95833 C 13.02 g/m*3 17.96 C 0 km/h
343 01-08-2014 00:00:00 17.325 C 12.91 g/m*3 17.33 C 0 km/h
344 01-08-2014 01:00:00 16.59167 C 12.39 g/m*3 16.59 C 0 km/h
345 01-08-2014 02:00:00 16.00833 C 12.3 g/m*3 16.01 C 0 km/h
346 01-08-2014 03:00:00 15.6 C 12.22 g/m*3 15.6 C 0 km/h
347 01-08-2014 04:00:00 15.13333 C 12.02 g/m*3 15.13 C 0 km/h
348 01-08-2014 05:00:00 14.74167 C 11.88 g/m*3 14.74 C 0 km/h
349 01-08-2014 06:00:00 14.54167 C 11.85 g/m*3 14.54 C 0 km/h
350 01-08-2014 07:00:00 14.95833 C 12.26 g/m*3 14.96 C 0 km/h
Sensor: Nr:Datum:Temp:Abs-Feuchte:Windchill:Wind:
Aussen-T/F 351 01-08-2014 08:00:00 16.23333 C 13.06 g/m*3 16.23 C 0 km/h
352 01-08-2014 09:00:00 17.65 C 13.68 g/m*3 17.65 C 0 km/h
353 01-08-2014 10:00:00 18.71667 C 14.52 g/m*3 18.72 C 0 km/h
354 01-08-2014 11:00:00 21.11667 C 15.54 g/m*3 21.12 C 0 km/h
355 01-08-2014 12:00:00 21.9 C 16.18 g/m*3 21.9 C 0 km/h
356 01-08-2014 13:00:00 21.78333 C 16.29 g/m*3 21.78 C 0 km/h
357 01-08-2014 14:00:00 26.54167 C 15.14 g/m*3 26.54 C 3.625 km/h
358 01-08-2014 15:00:00 27.39167 C 15.76 g/m*3 27.39 C 4.56667 km/h
359 01-08-2014 16:00:00 29.06667 C 13.31 g/m*3 29.07 C 6.43333 km/h
360 01-08-2014 17:00:00 28.61667 C 13.99 g/m*3 28.62 C 3.625 km/h
361 01-08-2014 18:00:00 25.69167 C 16.55 g/m*3 25.69 C 0 km/h
362 01-08-2014 19:00:00 22.45 C 15.77 g/m*3 22.45 C 0 km/h
363 01-08-2014 20:00:00 21.24167 C 15.19 g/m*3 21.24 C 0 km/h
364 01-08-2014 21:00:00 20.20833 C 14.48 g/m*3 20.21 C 0 km/h
365 01-08-2014 22:00:00 19.56667 C 14.14 g/m*3 19.57 C 0 km/h
366 01-08-2014 23:00:00 18.95 C 13.62 g/m*3 18.95 C 0 km/h
367 02-08-2014 00:00:00 18.54167 C 13.47 g/m*3 18.54 C 0 km/h
368 02-08-2014 01:00:00 17.9 C 13.32 g/m*3 17.9 C 0 km/h
369 02-08-2014 02:00:00 17.14167 C 12.83 g/m*3 17.14 C 0 km/h
370 02-08-2014 03:00:00 16.36667 C 12.49 g/m*3 16.37 C 0 km/h
371 02-08-2014 04:00:00 15.86667 C 12.36 g/m*3 15.87 C 0 km/h
372 02-08-2014 05:00:00 15.51667 C 12.35 g/m*3 15.52 C 0 km/h
373 02-08-2014 06:00:00 15.25833 C 12.24 g/m*3 15.26 C 0 km/h
374 02-08-2014 07:00:00 15.33333 C 12.41 g/m*3 15.33 C 0 km/h
375 02-08-2014 08:00:00 16.05833 C 12.95 g/m*3 16.06 C 0 km/h
Sensor: Nr:Datum:Temp:Abs-Feuchte:Windchill:Wind:
Aussen-T/F 376 02-08-2014 09:00:00 17.175 C 13.4 g/m*3 17.18 C 0 km/h
377 02-08-2014 10:00:00 18.875 C 14.59 g/m*3 18.88 C 0 km/h
378 02-08-2014 11:00:00 21.3 C 15.94 g/m*3 21.3 C 0 km/h
379 02-08-2014 12:00:00 23.825 C 16.17 g/m*3 23.83 C 0 km/h
380 02-08-2014 13:00:00 24.425 C 16.19 g/m*3 24.43 C 0 km/h
381 02-08-2014 14:00:00 25.44167 C 16.7 g/m*3 25.44 C 2.80833 km/h
382 02-08-2014 15:00:00 26.525 C 17 g/m*3 26.53 C 5.08333 km/h
383 02-08-2014 16:00:00 25.49167 C 16.98 g/m*3 25.49 C 4.69167 km/h
384 02-08-2014 17:00:00 23.875 C 16.09 g/m*3 23.88 C 5.08333 km/h
385 02-08-2014 18:00:00 23.93333 C 16.31 g/m*3 23.93 C 2 km/h
386 02-08-2014 19:00:00 23.39167 C 16.94 g/m*3 23.39 C 2.8 km/h
387 02-08-2014 20:00:00 20.94167 C 16.42 g/m*3 20.94 C 0.8 km/h
388 02-08-2014 21:00:00 19.85 C 15.65 g/m*3 19.85 C 0 km/h
389 02-08-2014 22:00:00 19.675 C 15.43 g/m*3 19.68 C 0 km/h
390 02-08-2014 23:00:00 19.9 C 15.42 g/m*3 19.9 C 0 km/h
391 03-08-2014 00:00:00 19.75 C 15.13 g/m*3 19.75 C 0 km/h
392 03-08-2014 01:00:00 19.49167 C 14.44 g/m*3 19.49 C 0 km/h
393 03-08-2014 02:00:00 19.00833 C 14.43 g/m*3 19.01 C 0 km/h
394 03-08-2014 03:00:00 18.95833 C 14.37 g/m*3 18.96 C 0 km/h
395 03-08-2014 04:00:00 18.95833 C 14.21 g/m*3 18.96 C 1.475 km/h
396 03-08-2014 05:00:00 19.275 C 14.27 g/m*3 19.27 C 4.275 km/h
397 03-08-2014 06:00:00 19.025 C 14.53 g/m*3 19.02 C 1.6 km/h
398 03-08-2014 07:00:00 18.81667 C 14.56 g/m*3 18.82 C 1.46667 km/h
399 03-08-2014 08:00:00 19.59167 C 14.92 g/m*3 19.59 C 2.40833 km/h
400 03-08-2014 09:00:00 20.83333 C 15.21 g/m*3 20.83 C 4.14167 km/h
Sensor: Nr:Datum:Temp:Abs-Feuchte:Windchill:Wind:
Aussen-T/F 401 03-08-2014 10:00:00 21.75833 C 15.22 g/m*3 21.76 C 1.2 km/h
402 03-08-2014 11:00:00 22.03333 C 15.83 g/m*3 22.03 C 0 km/h
403 03-08-2014 12:00:00 24.85 C 15.26 g/m*3 24.85 C 3.74167 km/h
404 03-08-2014 13:00:00 25.4 C 15.05 g/m*3 25.4 C 4.01667 km/h
405 03-08-2014 14:00:00 24.04167 C 15.54 g/m*3 24.04 C 2.4 km/h
406 03-08-2014 15:00:00 23.46667 C 15.3 g/m*3 23.47 C 4.13333 km/h
407 03-08-2014 16:00:00 24.85833 C 15.87 g/m*3 24.86 C 6.975 km/h
408 03-08-2014 17:00:00 23.43333 C 15.52 g/m*3 23.43 C 3.49167 km/h
409 03-08-2014 18:00:00 23.73333 C 15.8 g/m*3 23.73 C 3.33333 km/h
410 03-08-2014 19:00:00 24.31667 C 16.67 g/m*3 24.32 C 2.13333 km/h
411 03-08-2014 20:00:00 21.45833 C 16.08 g/m*3 21.46 C 0.13333 km/h
412 03-08-2014 21:00:00 19.80833 C 15.15 g/m*3 19.81 C 0 km/h
413 03-08-2014 22:00:00 19.95833 C 14.71 g/m*3 19.96 C 1.46667 km/h
414 03-08-2014 23:00:00 19.73333 C 14.72 g/m*3 19.73 C 0 km/h
415 04-08-2014 00:00:00 18.93333 C 14.23 g/m*3 18.93 C 1.48333 km/h
416 04-08-2014 01:00:00 18.65833 C 13.85 g/m*3 18.66 C 3.08333 km/h
417 04-08-2014 02:00:00 17.60833 C 13.81 g/m*3 17.61 C 0 km/h
418 04-08-2014 03:00:00 17.15833 C 13.6 g/m*3 17.16 C 0 km/h
419 04-08-2014 04:00:00 16.54167 C 13.28 g/m*3 16.54 C 0 km/h
420 04-08-2014 05:00:00 16.70833 C 13.45 g/m*3 16.71 C 0.66667 km/h
421 04-08-2014 06:00:00 16.875 C 13.5 g/m*3 16.88 C 0 km/h
422 04-08-2014 07:00:00 17.19167 C 13.72 g/m*3 17.19 C 1.06667 km/h
423 04-08-2014 08:00:00 18.04167 C 14.02 g/m*3 18.04 C 0.93333 km/h
424 04-08-2014 09:00:00 19.675 C 13.88 g/m*3 19.68 C 3.075 km/h
425 04-08-2014 10:00:00 20.68333 C 14.18 g/m*3 20.68 C 2.80833 km/h
Sensor: Nr:Datum:Temp:Abs-Feuchte:Windchill:Wind:
Aussen-T/F 426 04-08-2014 11:00:00 22.025 C 14.37 g/m*3 22.03 C 6.71667 km/h
427 04-08-2014 12:00:00 23.21667 C 14.62 g/m*3 23.22 C 6.05 km/h
428 04-08-2014 13:00:00 22.95833 C 14.64 g/m*3 22.96 C 2.26667 km/h
429 04-08-2014 14:00:00 21.54167 C 15.41 g/m*3 21.54 C 3.49167 km/h
430 04-08-2014 15:00:00 22.51667 C 16.04 g/m*3 22.52 C 2.66667 km/h
431 04-08-2014 16:00:00 23.03333 C 14.72 g/m*3 23.03 C 11.29167 km/h
432 04-08-2014 17:00:00 18.71667 C 13.05 g/m*3 18.72 C 3.63333 km/h
433 04-08-2014 18:00:00 17.94167 C 14.08 g/m*3 17.94 C 3.76667 km/h
434 04-08-2014 19:00:00 18.53333 C 13.95 g/m*3 18.53 C 3.75833 km/h
435 04-08-2014 20:00:00 17.375 C 13.77 g/m*3 17.38 C 0 km/h
436 04-08-2014 21:00:00 16.85833 C 13.63 g/m*3 16.86 C 0 km/h
437 04-08-2014 22:00:00 16.66667 C 13.57 g/m*3 16.67 C 0 km/h
438 04-08-2014 23:00:00 16.625 C 13.58 g/m*3 16.63 C 0 km/h
439 05-08-2014 00:00:00 16.16667 C 13.21 g/m*3 16.17 C 0 km/h
440 05-08-2014 01:00:00 15.86667 C 13.04 g/m*3 15.87 C 0 km/h
441 05-08-2014 02:00:00 15.58333 C 12.78 g/m*3 15.58 C 0 km/h
442 05-08-2014 03:00:00 15.55 C 12.78 g/m*3 15.55 C 0 km/h
443 05-08-2014 04:00:00 15.675 C 12.96 g/m*3 15.68 C 0 km/h
444 05-08-2014 05:00:00 15.85 C 13.09 g/m*3 15.85 C 0 km/h
445 05-08-2014 06:00:00 15.575 C 12.75 g/m*3 15.58 C 0 km/h
446 05-08-2014 07:00:00 15.64167 C 12.79 g/m*3 15.64 C 0 km/h
447 05-08-2014 08:00:00 16.64167 C 12.98 g/m*3 16.64 C 0 km/h
448 05-08-2014 09:00:00 17.74167 C 13.18 g/m*3 17.74 C 0 km/h
449 05-08-2014 10:00:00 18.90833 C 13.36 g/m*3 18.91 C 0.675 km/h
450 05-08-2014 11:00:00 20.1 C 13.47 g/m*3 20.1 C 6.975 km/h
Sensor: Nr:Datum:Temp:Abs-Feuchte:Windchill:Wind:
Aussen-T/F 451 05-08-2014 12:00:00 21.41667 C 13.34 g/m*3 21.42 C 5.61667 km/h
452 05-08-2014 13:00:00 22.40833 C 12.62 g/m*3 22.41 C 5.61667 km/h
453 05-08-2014 14:00:00 22.05833 C 12.87 g/m*3 22.06 C 2.275 km/h
454 05-08-2014 15:00:00 21.85 C 13.44 g/m*3 21.85 C 2.54167 km/h
455 05-08-2014 16:00:00 22.76667 C 13.05 g/m*3 22.77 C 6.56667 km/h
456 05-08-2014 17:00:00 24.09167 C 12.81 g/m*3 24.09 C 3.46667 km/h
457 05-08-2014 18:00:00 24.4 C 11.68 g/m*3 24.4 C 6.70833 km/h
458 05-08-2014 19:00:00 21.24167 C 13.56 g/m*3 21.24 C 0.53333 km/h
459 05-08-2014 20:00:00 19.89167 C 13.81 g/m*3 19.89 C 1.46667 km/h
460 05-08-2014 21:00:00 18.05833 C 13 g/m*3 18.06 C 0.53333 km/h
461 05-08-2014 22:00:00 16.925 C 12.52 g/m*3 16.93 C 0 km/h
462 05-08-2014 23:00:00 16.08333 C 12.08 g/m*3 16.08 C 0 km/h
463 06-08-2014 00:00:00 15.15833 C 11.77 g/m*3 15.16 C 0 km/h
464 06-08-2014 01:00:00 14.43333 C 11.45 g/m*3 14.43 C 0 km/h
465 06-08-2014 02:00:00 13.89167 C 11.18 g/m*3 13.89 C 0 km/h
466 06-08-2014 03:00:00 13.53333 C 11.07 g/m*3 13.53 C 0 km/h
467 06-08-2014 04:00:00 13.13333 C 10.86 g/m*3 13.13 C 0 km/h
468 06-08-2014 05:00:00 12.8 C 10.74 g/m*3 12.8 C 0.4 km/h
469 06-08-2014 06:00:00 12.75833 C 10.74 g/m*3 12.76 C 0.13333 km/h
470 06-08-2014 07:00:00 13.00833 C 10.98 g/m*3 13.01 C 0.53333 km/h
471 06-08-2014 08:00:00 13.45833 C 11.32 g/m*3 13.46 C 1.33333 km/h
472 06-08-2014 09:00:00 14.61667 C 11.93 g/m*3 14.62 C 3.2 km/h
473 06-08-2014 10:00:00 16.79167 C 12.87 g/m*3 16.79 C 0.53333 km/h
474 06-08-2014 11:00:00 19.925 C 14.4 g/m*3 19.93 C 1.46667 km/h
475 06-08-2014 12:00:00 22.75 C 13.8 g/m*3 22.75 C 3.73333 km/h
Sensor: Nr:Datum:Temp:Abs-Feuchte:Windchill:Wind:
Aussen-T/F 476 06-08-2014 13:00:00 24.55833 C 12.11 g/m*3 24.56 C 6.43333 km/h
477 06-08-2014 14:00:00 25.48333 C 11.08 g/m*3 25.48 C 8.31667 km/h
478 06-08-2014 15:00:00 25.1 C 12.64 g/m*3 25.1 C 4.15 km/h
479 06-08-2014 16:00:00 24.33333 C 13.54 g/m*3 24.33 C 2.54167 km/h
480 06-08-2014 17:00:00 21.50833 C 14.7 g/m*3 21.51 C 0.13333 km/h
481 06-08-2014 18:00:00 20.5 C 14.43 g/m*3 20.5 C 0.13333 km/h
482 06-08-2014 19:00:00 19.16667 C 13.81 g/m*3 19.17 C 5.5 km/h
483 06-08-2014 20:00:00 17.10833 C 13.3 g/m*3 17.11 C 3.73333 km/h
484 06-08-2014 21:00:00 16.41667 C 13.19 g/m*3 16.42 C 0.53333 km/h
485 06-08-2014 22:00:00 16.025 C 13.1 g/m*3 16.02 C 0.13333 km/h
486 06-08-2014 23:00:00 15.85 C 12.96 g/m*3 15.85 C 0 km/h
487 07-08-2014 00:00:00 15.65 C 12.81 g/m*3 15.65 C 2.40833 km/h
488 07-08-2014 01:00:00 15.58333 C 12.81 g/m*3 15.58 C 0.13333 km/h
489 07-08-2014 02:00:00 15.43333 C 12.76 g/m*3 15.43 C 0 km/h
490 07-08-2014 03:00:00 15.28333 C 12.64 g/m*3 15.28 C 0.8 km/h
491 07-08-2014 04:00:00 15.21667 C 12.6 g/m*3 15.22 C 0 km/h
492 07-08-2014 05:00:00 15.55 C 12.89 g/m*3 15.55 C 0 km/h
493 07-08-2014 06:00:00 15.8 C 13.19 g/m*3 15.8 C 0.53333 km/h
494 07-08-2014 07:00:00 16 C 13.35 g/m*3 16 C 0 km/h
495 07-08-2014 08:00:00 16.25 C 13.56 g/m*3 16.25 C 1.33333 km/h
496 07-08-2014 09:00:00 17.36667 C 13.9 g/m*3 17.37 C 3.46667 km/h
497 07-08-2014 10:00:00 18.675 C 14.07 g/m*3 18.68 C 3.075 km/h
498 07-08-2014 11:00:00 20.33333 C 14.23 g/m*3 20.33 C 4.81667 km/h
499 07-08-2014 12:00:00 22.01667 C 14 g/m*3 22.02 C 4.94167 km/h
500 07-08-2014 13:00:00 22.65 C 13.57 g/m*3 22.65 C 4.54167 km/h
Sensor: Nr:Datum:Temp:Abs-Feuchte:Windchill:Wind:
Aussen-T/F 501 07-08-2014 14:00:00 23.96667 C 14.1 g/m*3 23.97 C 4.95 km/h
502 07-08-2014 15:00:00 25.75 C 13.42 g/m*3 25.75 C 8.35 km/h
503 07-08-2014 16:00:00 25.43333 C 14.23 g/m*3 25.43 C 3.60833 km/h
504 07-08-2014 17:00:00 21.08333 C 15.66 g/m*3 21.08 C 0.13333 km/h
505 07-08-2014 18:00:00 22.50833 C 15.9 g/m*3 22.51 C 0.4 km/h
506 07-08-2014 19:00:00 22.38333 C 15.87 g/m*3 22.38 C 0.13333 km/h
507 07-08-2014 20:00:00 20.11667 C 14.86 g/m*3 20.12 C 0.53333 km/h
508 07-08-2014 21:00:00 18.46667 C 14.03 g/m*3 18.47 C 0.13333 km/h
509 07-08-2014 22:00:00 17.56667 C 13.52 g/m*3 17.57 C 0 km/h
510 07-08-2014 23:00:00 16.75833 C 13.13 g/m*3 16.76 C 0 km/h
511 08-08-2014 00:00:00 16.075 C 12.76 g/m*3 16.08 C 0 km/h
512 08-08-2014 01:00:00 15.54167 C 12.49 g/m*3 15.54 C 0 km/h
513 08-08-2014 02:00:00 15.15833 C 12.3 g/m*3 15.16 C 0 km/h
514 08-08-2014 03:00:00 14.80833 C 12.15 g/m*3 14.81 C 0 km/h
515 08-08-2014 04:00:00 14.43333 C 11.89 g/m*3 14.43 C 0 km/h
516 08-08-2014 05:00:00 14.275 C 11.88 g/m*3 14.28 C 0 km/h
517 08-08-2014 06:00:00 14.58333 C 12.13 g/m*3 14.58 C 0.93333 km/h
518 08-08-2014 07:00:00 15.04167 C 12.47 g/m*3 15.04 C 0.4 km/h
519 08-08-2014 08:00:00 15.68333 C 12.9 g/m*3 15.68 C 0 km/h
520 08-08-2014 09:00:00 16.60833 C 13.54 g/m*3 16.61 C 0 km/h
521 08-08-2014 10:00:00 18.375 C 14.7 g/m*3 18.38 C 0.93333 km/h
522 08-08-2014 11:00:00 22.93333 C 15.49 g/m*3 22.93 C 5.49167 km/h
523 08-08-2014 12:00:00 25.45 C 14.66 g/m*3 25.45 C 8.175 km/h
524 08-08-2014 13:00:00 26.50833 C 13.88 g/m*3 26.51 C 9.55 km/h
525 08-08-2014 14:00:00 26.025 C 14.99 g/m*3 26.03 C 6.44167 km/h
Sensor: Nr:Datum:Temp:Abs-Feuchte:Windchill:Wind:
Aussen-T/F 526 08-08-2014 15:00:00 22.73333 C 16.82 g/m*3 22.73 C 0.93333 km/h
527 08-08-2014 16:00:00 20.86667 C 16.75 g/m*3 20.87 C 0.4 km/h
528 08-08-2014 17:00:00 20.45 C 16.84 g/m*3 20.45 C 0 km/h
529 08-08-2014 18:00:00 20.625 C 17.03 g/m*3 20.63 C 0 km/h
530 08-08-2014 19:00:00 20.35 C 16.8 g/m*3 20.35 C 0 km/h
531 08-08-2014 20:00:00 20.00833 C 16.53 g/m*3 20.01 C 0.13333 km/h
532 08-08-2014 21:00:00 19.11667 C 15.71 g/m*3 19.12 C 0 km/h
533 08-08-2014 22:00:00 18.75 C 15.42 g/m*3 18.75 C 0.13333 km/h
534 08-08-2014 23:00:00 18.625 C 15.3 g/m*3 18.63 C 0.4 km/h
535 09-08-2014 00:00:00 18.64167 C 15.24 g/m*3 18.64 C 0.13333 km/h
536 09-08-2014 01:00:00 18.8 C 15.3 g/m*3 18.8 C 0 km/h
537 09-08-2014 02:00:00 19.40833 C 15.55 g/m*3 19.41 C 2.80833 km/h
538 09-08-2014 03:00:00 18.85 C 15.56 g/m*3 18.85 C 0.26667 km/h
539 09-08-2014 04:00:00 18.69167 C 15.52 g/m*3 18.69 C 0.26667 km/h
540 09-08-2014 05:00:00 18.35 C 15.13 g/m*3 18.35 C 5.90833 km/h
541 09-08-2014 06:00:00 18.625 C 14.66 g/m*3 18.63 C 13.01667 km/h
542 09-08-2014 07:00:00 18.69167 C 14.54 g/m*3 18.69 C 10.075 km/h
543 09-08-2014 08:00:00 19.56667 C 14.97 g/m*3 19.57 C 10.74167 km/h
544 09-08-2014 09:00:00 19.875 C 15.24 g/m*3 19.88 C 10.46667 km/h
545 09-08-2014 10:00:00 19.56667 C 14.59 g/m*3 19.57 C 9.53333 km/h
546 09-08-2014 11:00:00 20.30833 C 13.08 g/m*3 20.31 C 15.83333 km/h
547 09-08-2014 12:00:00 21.53333 C 12.37 g/m*3 21.53 C 16.1 km/h
548 09-08-2014 13:00:00 22.125 C 12.14 g/m*3 22.13 C 11.43333 km/h
549 09-08-2014 14:00:00 22.825 C 12.35 g/m*3 22.83 C 9.40833 km/h
550 09-08-2014 15:00:00 24.24167 C 12.37 g/m*3 24.24 C 12.5 km/h
Sensor: Nr:Datum:Temp:Abs-Feuchte:Windchill:Wind:
Aussen-T/F 551 09-08-2014 16:00:00 24.95833 C 12.08 g/m*3 24.96 C 12.75833 km/h
552 09-08-2014 17:00:00 24.71667 C 12.46 g/m*3 24.72 C 7.79167 km/h
553 09-08-2014 18:00:00 22.90833 C 14.24 g/m*3 22.91 C 1.60833 km/h
554 09-08-2014 19:00:00 21.55833 C 14.51 g/m*3 21.56 C 0.8 km/h
555 09-08-2014 20:00:00 18.9 C 13.31 g/m*3 18.9 C 1.73333 km/h
556 09-08-2014 21:00:00 17.59167 C 12.67 g/m*3 17.59 C 0.26667 km/h
557 09-08-2014 22:00:00 16.73333 C 12.4 g/m*3 16.73 C 0 km/h
558 09-08-2014 23:00:00 16.55833 C 12.35 g/m*3 16.56 C 0.26667 km/h
559 10-08-2014 00:00:00 16.25 C 12.46 g/m*3 16.25 C 0 km/h
560 10-08-2014 01:00:00 16.20833 C 12.59 g/m*3 16.21 C 0 km/h
561 10-08-2014 02:00:00 16.3 C 12.73 g/m*3 16.3 C 0 km/h
562 10-08-2014 03:00:00 16.34167 C 12.8 g/m*3 16.34 C 0 km/h
563 10-08-2014 04:00:00 16.175 C 12.75 g/m*3 16.18 C 0 km/h
564 10-08-2014 05:00:00 15.825 C 12.37 g/m*3 15.83 C 0 km/h
565 10-08-2014 06:00:00 15.26667 C 12.03 g/m*3 15.27 C 0.26667 km/h
566 10-08-2014 07:00:00 15.58333 C 12.41 g/m*3 15.58 C 1.61667 km/h
567 10-08-2014 08:00:00 17.63333 C 13.51 g/m*3 17.63 C 1.73333 km/h
568 10-08-2014 09:00:00 19.61667 C 14.24 g/m*3 19.62 C 2.93333 km/h
569 10-08-2014 10:00:00 21.25833 C 14.91 g/m*3 21.26 C 3.86667 km/h
570 10-08-2014 11:00:00 22.8 C 15.78 g/m*3 22.8 C 4.94167 km/h
571 10-08-2014 12:00:00 24.26667 C 15.94 g/m*3 24.27 C 6.96667 km/h
572 10-08-2014 13:00:00 23.85833 C 16.26 g/m*3 23.86 C 4.825 km/h
573 10-08-2014 14:00:00 21.55833 C 17.22 g/m*3 21.56 C 0.8 km/h
574 10-08-2014 15:00:00 20.85833 C 16.81 g/m*3 20.86 C 2.93333 km/h
575 10-08-2014 16:00:00 21.05833 C 17.29 g/m*3 21.06 C 2.26667 km/h
Sensor: Nr:Datum:Temp:Abs-Feuchte:Windchill:Wind:
Aussen-T/F 576 10-08-2014 17:00:00 21.00833 C 17.3 g/m*3 21.01 C 0 km/h
577 10-08-2014 18:00:00 20.25833 C 16.84 g/m*3 20.26 C 0.13333 km/h
578 10-08-2014 19:00:00 19.85 C 16.46 g/m*3 19.85 C 0 km/h
579 10-08-2014 20:00:00 19.225 C 16.02 g/m*3 19.23 C 2.68333 km/h
580 10-08-2014 21:00:00 18.975 C 15.34 g/m*3 18.98 C 3.33333 km/h
581 10-08-2014 22:00:00 18.34167 C 14.81 g/m*3 18.34 C 2 km/h
582 10-08-2014 23:00:00 17.78333 C 14.56 g/m*3 17.78 C 1.33333 km/h
583 11-08-2014 00:00:00 17.50833 C 14.06 g/m*3 17.51 C 3.20833 km/h
584 11-08-2014 01:00:00 16.31667 C 13.02 g/m*3 16.32 C 2.8 km/h
585 11-08-2014 02:00:00 15.40833 C 11.96 g/m*3 15.41 C 2.93333 km/h
586 11-08-2014 03:00:00 14.05833 C 11.45 g/m*3 14.06 C 0.53333 km/h
587 11-08-2014 04:00:00 13.36667 C 11.03 g/m*3 13.37 C 0.4 km/h
588 11-08-2014 05:00:00 13.14167 C 10.8 g/m*3 13.14 C 1.06667 km/h
589 11-08-2014 06:00:00 12.86667 C 10.64 g/m*3 12.87 C 0.4 km/h
590 11-08-2014 07:00:00 13.10833 C 10.83 g/m*3 13.11 C 0.66667 km/h
591 11-08-2014 08:00:00 13.86667 C 11.12 g/m*3 13.87 C 3.49167 km/h
592 11-08-2014 09:00:00 15.43333 C 11.14 g/m*3 15.43 C 12.76667 km/h
593 11-08-2014 10:00:00 16.50833 C 11.25 g/m*3 16.51 C 12.5 km/h
594 11-08-2014 11:00:00 18.25833 C 11.35 g/m*3 18.26 C 10.89167 km/h
595 11-08-2014 12:00:00 19.55 C 11.21 g/m*3 19.55 C 11.025 km/h
596 11-08-2014 13:00:00 20.375 C 11.14 g/m*3 20.38 C 13.16667 km/h
597 11-08-2014 14:00:00 20.85 C 11.38 g/m*3 20.85 C 11.96667 km/h
598 11-08-2014 15:00:00 18.66667 C 13.41 g/m*3 18.67 C 3.06667 km/h
599 11-08-2014 16:00:00 20.51667 C 13.4 g/m*3 20.52 C 6.3 km/h
600 11-08-2014 17:00:00 21.975 C 11.47 g/m*3 21.98 C 12.49167 km/h
Sensor: Nr:Datum:Temp:Abs-Feuchte:Windchill:Wind:
Aussen-T/F 601 11-08-2014 18:00:00 21.24167 C 11.58 g/m*3 21.24 C 6.975 km/h
602 11-08-2014 19:00:00 20.60833 C 11.83 g/m*3 20.61 C 5.625 km/h
603 11-08-2014 20:00:00 18.75833 C 11.33 g/m*3 18.76 C 3.46667 km/h
604 11-08-2014 21:00:00 16.34167 C 11.18 g/m*3 16.34 C 2.66667 km/h
605 11-08-2014 22:00:00 15.25 C 10.96 g/m*3 15.25 C 0.53333 km/h
606 11-08-2014 23:00:00 14.18333 C 10.61 g/m*3 14.18 C 0 km/h
607 12-08-2014 00:00:00 14.28333 C 10.69 g/m*3 14.28 C 0.53333 km/h
608 12-08-2014 01:00:00 16.15833 C 10.36 g/m*3 16.16 C 6.725 km/h
609 12-08-2014 02:00:00 15.51667 C 10.73 g/m*3 15.52 C 8.85833 km/h
610 12-08-2014 03:00:00 14.46667 C 10.91 g/m*3 14.47 C 2 km/h
611 12-08-2014 04:00:00 13.975 C 10.93 g/m*3 13.98 C 2.94167 km/h
612 12-08-2014 05:00:00 14.225 C 10.76 g/m*3 14.23 C 4.81667 km/h
613 12-08-2014 06:00:00 14.1 C 10.64 g/m*3 14.1 C 1.86667 km/h
614 12-08-2014 07:00:00 13.80833 C 10.76 g/m*3 13.81 C 0.53333 km/h
615 12-08-2014 08:00:00 14.375 C 11.11 g/m*3 14.38 C 2.54167 km/h
616 12-08-2014 09:00:00 15.88333 C 11 g/m*3 15.88 C 10.61667 km/h
617 12-08-2014 10:00:00 17.10833 C 10.63 g/m*3 17.11 C 13.56667 km/h
618 12-08-2014 11:00:00 18.5 C 10.5 g/m*3 18.5 C 13.55833 km/h
619 12-08-2014 12:00:00 19.80833 C 9.91 g/m*3 19.81 C 14.5 km/h
620 12-08-2014 13:00:00 20.46667 C 9.72 g/m*3 20.47 C 14.23333 km/h
621 12-08-2014 14:00:00 21.59167 C 9.97 g/m*3 21.59 C 14.63333 km/h
622 12-08-2014 15:00:00 22.775 C 9.93 g/m*3 22.78 C 15.96667 km/h
623 12-08-2014 16:00:00 23.30833 C 10.01 g/m*3 23.31 C 14.89167 km/h
624 12-08-2014 17:00:00 22.31667 C 9.87 g/m*3 22.32 C 14.64167 km/h
625 12-08-2014 18:00:00 22.16667 C 10.22 g/m*3 22.17 C 9.825 km/h
Sensor: Nr:Datum:Temp:Abs-Feuchte:Windchill:Wind:
Aussen-T/F 626 12-08-2014 19:00:00 21.04167 C 11.29 g/m*3 21.04 C 4.15 km/h
627 12-08-2014 20:00:00 18.46667 C 11.33 g/m*3 18.47 C 2 km/h
628 12-08-2014 21:00:00 17.16667 C 11.12 g/m*3 17.17 C 0.93333 km/h
629 12-08-2014 22:00:00 16.41667 C 10.86 g/m*3 16.42 C 0 km/h
630 12-08-2014 23:00:00 15.05833 C 10.64 g/m*3 15.06 C 0 km/h
631 13-08-2014 00:00:00 14.33333 C 10.8 g/m*3 14.33 C 0 km/h
632 13-08-2014 01:00:00 14.09167 C 10.93 g/m*3 14.09 C 0 km/h
633 13-08-2014 02:00:00 13.95833 C 10.95 g/m*3 13.96 C 0 km/h
634 13-08-2014 03:00:00 14.075 C 11.01 g/m*3 14.08 C 0 km/h
635 13-08-2014 04:00:00 14.125 C 11 g/m*3 14.13 C 0 km/h
636 13-08-2014 05:00:00 14.11667 C 11.06 g/m*3 14.12 C 0 km/h
637 13-08-2014 06:00:00 13.61667 C 10.9 g/m*3 13.62 C 0 km/h
638 13-08-2014 07:00:00 14 C 11.25 g/m*3 14 C 0 km/h
639 13-08-2014 08:00:00 14.98333 C 11.68 g/m*3 14.98 C 0 km/h
640 13-08-2014 09:00:00 16.70833 C 12.16 g/m*3 16.71 C 0 km/h
641 13-08-2014 10:00:00 18.325 C 12.21 g/m*3 18.33 C 3.75 km/h
642 13-08-2014 11:00:00 19.50833 C 12.51 g/m*3 19.51 C 3.74167 km/h
643 13-08-2014 12:00:00 19.825 C 12.67 g/m*3 19.83 C 2.8 km/h
644 13-08-2014 13:00:00 19.48333 C 13.4 g/m*3 19.48 C 0.93333 km/h
645 13-08-2014 14:00:00 18.73333 C 14.17 g/m*3 18.73 C 0 km/h
646 13-08-2014 15:00:00 17.98333 C 14.17 g/m*3 17.98 C 0 km/h
647 13-08-2014 16:00:00 17.16667 C 13.54 g/m*3 17.17 C 0.675 km/h
648 13-08-2014 17:00:00 15.85 C 12.62 g/m*3 15.85 C 4.975 km/h
649 13-08-2014 18:00:00 15.68333 C 12.8 g/m*3 15.68 C 0 km/h
650 13-08-2014 19:00:00 15.70833 C 12.86 g/m*3 15.71 C 0 km/h
Sensor: Nr:Datum:Temp:Abs-Feuchte:Windchill:Wind:
Aussen-T/F 651 13-08-2014 20:00:00 15.6 C 12.89 g/m*3 15.6 C 0 km/h
652 13-08-2014 21:00:00 15.28333 C 12.59 g/m*3 15.28 C 0.13333 km/h
653 13-08-2014 22:00:00 15.13333 C 12.28 g/m*3 15.13 C 0 km/h
654 13-08-2014 23:00:00 15.15 C 12.23 g/m*3 15.15 C 4.95833 km/h
655 14-08-2014 00:00:00 14.95 C 11.89 g/m*3 14.95 C 3.74167 km/h
656 14-08-2014 01:00:00 14.58333 C 11.54 g/m*3 14.58 C 2.26667 km/h
657 14-08-2014 02:00:00 13.85833 C 11.34 g/m*3 13.86 C 0 km/h
658 14-08-2014 03:00:00 13.35 C 11.14 g/m*3 13.35 C 0 km/h
659 14-08-2014 04:00:00 13.20833 C 11.14 g/m*3 13.21 C 0.13333 km/h
660 14-08-2014 05:00:00 13.06667 C 11.05 g/m*3 13.07 C 0 km/h
661 14-08-2014 06:00:00 12.91667 C 10.94 g/m*3 12.92 C 0 km/h
662 14-08-2014 07:00:00 13.53333 C 11.31 g/m*3 13.53 C 1.74167 km/h
663 14-08-2014 08:00:00 14.86667 C 11.36 g/m*3 14.87 C 5.36667 km/h
664 14-08-2014 09:00:00 15.51667 C 11.62 g/m*3 15.52 C 5.10833 km/h
665 14-08-2014 10:00:00 16.51667 C 11.53 g/m*3 16.52 C 11 km/h
666 14-08-2014 11:00:00 17.20833 C 11.4 g/m*3 17.21 C 11.025 km/h
667 14-08-2014 12:00:00 18.96667 C 11.63 g/m*3 18.97 C 14.76667 km/h
668 14-08-2014 13:00:00 19.525 C 11.71 g/m*3 19.52 C 13.03333 km/h
669 14-08-2014 14:00:00 19.775 C 12.07 g/m*3 19.77 C 15.03333 km/h
670 14-08-2014 15:00:00 20.125 C 11.87 g/m*3 20.13 C 12.36667 km/h
671 14-08-2014 16:00:00 19.63333 C 11.8 g/m*3 19.63 C 7.25 km/h
672 14-08-2014 17:00:00 20.83333 C 11.78 g/m*3 20.83 C 6.56667 km/h
673 14-08-2014 18:00:00 19.16667 C 11.68 g/m*3 19.17 C 10.325 km/h
674 14-08-2014 19:00:00 16.38 C 11.29 g/m*3 16.38 C 3.04 km/h
675 14-08-2014 20:00:00 15.22727 C 11.36 g/m*3 15.23 C 0.29091 km/h
Sensor: Nr:Datum:Temp:Abs-Feuchte:Windchill:Wind:
Aussen-T/F 676 14-08-2014 21:00:00 14.71111 C 11.32 g/m*3 14.71 C 0 km/h
677 14-08-2014 22:00:00 14.70833 C 11.42 g/m*3 14.71 C 0 km/h
678 14-08-2014 23:00:00 14.675 C 11.25 g/m*3 14.68 C 0.93333 km/h
679 15-08-2014 00:00:00 14.26667 C 10.92 g/m*3 14.27 C 0.8 km/h
680 15-08-2014 01:00:00 13.55833 C 10.61 g/m*3 13.56 C 0 km/h
681 15-08-2014 02:00:00 13.55 C 10.56 g/m*3 13.55 C 0.26667 km/h
682 15-08-2014 03:00:00 12.99167 C 10.54 g/m*3 12.99 C 0 km/h
683 15-08-2014 04:00:00 13.20833 C 10.8 g/m*3 13.21 C 0 km/h
684 15-08-2014 05:00:00 13.39167 C 10.92 g/m*3 13.39 C 0 km/h
685 15-08-2014 06:00:00 13.525 C 10.98 g/m*3 13.53 C 0 km/h
686 15-08-2014 07:00:00 13.75 C 11.11 g/m*3 13.75 C 0 km/h
687 15-08-2014 08:00:00 14.15 C 11.21 g/m*3 14.15 C 0.8 km/h
688 15-08-2014 09:00:00 14.68333 C 11.52 g/m*3 14.68 C 3.225 km/h
689 15-08-2014 10:00:00 15.34167 C 11.82 g/m*3 15.34 C 6.575 km/h
690 15-08-2014 11:00:00 15.69167 C 11.76 g/m*3 15.69 C 3.6 km/h
691 15-08-2014 12:00:00 15.76667 C 12.09 g/m*3 15.77 C 2.93333 km/h
692 15-08-2014 13:00:00 16.18889 C 11.82 g/m*3 16.19 C 2.48889 km/h
693 15-08-2014 14:00:00 15.68333 C 11.85 g/m*3 15.68 C 3.74167 km/h
694 15-08-2014 15:00:00 15.36667 C 12.05 g/m*3 15.37 C 1.2 km/h
695 15-08-2014 16:00:00 15.625 C 12.01 g/m*3 15.63 C 1.2 km/h
696 15-08-2014 17:00:00 14.54167 C 11.69 g/m*3 14.54 C 1.06667 km/h
697 15-08-2014 18:00:00 16.99167 C 12.87 g/m*3 16.99 C 0.66667 km/h
698 15-08-2014 19:00:00 14.875 C 11.96 g/m*3 14.88 C 0 km/h
699 15-08-2014 20:00:00 14.41667 C 11.91 g/m*3 14.42 C 0.13333 km/h
700 15-08-2014 21:00:00 14.15833 C 11.74 g/m*3 14.16 C 0.26667 km/h
Sensor: Nr:Datum:Temp:Abs-Feuchte:Windchill:Wind:
Aussen-T/F 701 15-08-2014 22:00:00 13.74167 C 11.51 g/m*3 13.74 C 0 km/h
702 15-08-2014 23:00:00 13.275 C 11.19 g/m*3 13.28 C 0 km/h
703 16-08-2014 00:00:00 12.83333 C 10.89 g/m*3 12.83 C 0 km/h
704 16-08-2014 01:00:00 12.725 C 10.84 g/m*3 12.73 C 0 km/h
705 16-08-2014 02:00:00 12.95833 C 11.09 g/m*3 12.96 C 0 km/h
706 16-08-2014 03:00:00 12.9 C 11.05 g/m*3 12.9 C 0 km/h
707 16-08-2014 04:00:00 12.91667 C 11.06 g/m*3 12.92 C 0 km/h
708 16-08-2014 05:00:00 12.54167 C 10.77 g/m*3 12.54 C 0 km/h
709 16-08-2014 06:00:00 12.51667 C 10.78 g/m*3 12.52 C 0 km/h
710 16-08-2014 07:00:00 12.41667 C 10.68 g/m*3 12.42 C 0 km/h
711 16-08-2014 08:00:00 13.20833 C 11.04 g/m*3 13.21 C 0 km/h
712 16-08-2014 09:00:00 13.975 C 11.17 g/m*3 13.98 C 3.89167 km/h
713 16-08-2014 10:00:00 15 C 11.68 g/m*3 15 C 4.83333 km/h
714 16-08-2014 11:00:00 15.09167 C 12.25 g/m*3 15.09 C 0.66667 km/h
715 16-08-2014 12:00:00 16.29167 C 12.43 g/m*3 16.29 C 3.89167 km/h
716 16-08-2014 13:00:00 17.09167 C 12.62 g/m*3 17.09 C 4.69167 km/h
717 16-08-2014 14:00:00 18.4 C 11.6 g/m*3 18.4 C 8.06667 km/h
718 16-08-2014 15:00:00 20.40833 C 11.33 g/m*3 20.41 C 11.15833 km/h
719 16-08-2014 16:00:00 20.41667 C 11.61 g/m*3 20.42 C 6.7 km/h
720 16-08-2014 17:00:00 19.56667 C 11.65 g/m*3 19.57 C 7.11667 km/h
721 16-08-2014 18:00:00 17.49167 C 11.81 g/m*3 17.49 C 4.29167 km/h
722 16-08-2014 19:00:00 15.75833 C 11.88 g/m*3 15.76 C 4.15 km/h
723 16-08-2014 20:00:00 14.68333 C 11.72 g/m*3 14.68 C 1.73333 km/h
724 16-08-2014 21:00:00 14.9 C 11.57 g/m*3 14.9 C 1.06667 km/h
725 16-08-2014 22:00:00 14.58333 C 11.73 g/m*3 14.58 C 0 km/h
Sensor: Nr:Datum:Temp:Abs-Feuchte:Windchill:Wind:
Aussen-T/F 726 16-08-2014 23:00:00 14.51667 C 11.83 g/m*3 14.52 C 0 km/h
727 17-08-2014 00:00:00 14.49167 C 11.63 g/m*3 14.49 C 0 km/h
728 17-08-2014 01:00:00 13.84167 C 11.19 g/m*3 13.84 C 0 km/h
729 17-08-2014 02:00:00 13.61667 C 11.13 g/m*3 13.62 C 0 km/h
730 17-08-2014 03:00:00 13.81667 C 11.2 g/m*3 13.82 C 0 km/h
731 17-08-2014 04:00:00 13.65 C 11.16 g/m*3 13.65 C 0 km/h
732 17-08-2014 05:00:00 13.525 C 11.12 g/m*3 13.53 C 0 km/h
733 17-08-2014 06:00:00 13.21667 C 10.92 g/m*3 13.22 C 0 km/h
734 17-08-2014 07:00:00 12.75 C 10.67 g/m*3 12.75 C 0 km/h
735 17-08-2014 08:00:00 13.76667 C 10.88 g/m*3 13.77 C 3.35 km/h
736 17-08-2014 09:00:00 15.525 C 10.69 g/m*3 15.53 C 10.21667 km/h
737 17-08-2014 10:00:00 16.61667 C 10.84 g/m*3 16.62 C 11.94167 km/h
738 17-08-2014 11:00:00 17.575 C 10.62 g/m*3 17.58 C 15.03333 km/h
739 17-08-2014 12:00:00 18.49167 C 10.19 g/m*3 18.49 C 18.5 km/h
740 17-08-2014 13:00:00 18.375 C 9.89 g/m*3 18.38 C 13.7 km/h
741 17-08-2014 14:00:00 18.09167 C 9.74 g/m*3 18.09 C 14.1 km/h
742 17-08-2014 15:00:00 18.36667 C 9.72 g/m*3 18.37 C 11.55 km/h
743 17-08-2014 16:00:00 18.66667 C 9.81 g/m*3 18.67 C 13.69167 km/h
744 17-08-2014 17:00:00 18.31667 C 9.81 g/m*3 18.32 C 8.325 km/h
745 17-08-2014 18:00:00 18.375 C 10.04 g/m*3 18.38 C 8.73333 km/h
746 17-08-2014 19:00:00 17.89167 C 10.44 g/m*3 17.89 C 6.30833 km/h
747 17-08-2014 20:00:00 17.56667 C 10.35 g/m*3 17.57 C 7.65 km/h
748 17-08-2014 21:00:00 17.18333 C 10.11 g/m*3 17.18 C 6.30833 km/h
749 17-08-2014 22:00:00 16.775 C 9.85 g/m*3 16.77 C 7.91667 km/h
750 17-08-2014 23:00:00 16.88333 C 9.91 g/m*3 16.88 C 9.13333 km/h
Sensor: Nr:Datum:Temp:Abs-Feuchte:Windchill:Wind:
Aussen-T/F 751 18-08-2014 00:00:00 17.05 C 10.03 g/m*3 17.05 C 12.225 km/h
752 18-08-2014 01:00:00 16.675 C 9.96 g/m*3 16.68 C 11.29167 km/h
753 18-08-2014 02:00:00 16.21667 C 9.88 g/m*3 16.22 C 10.61667 km/h
754 18-08-2014 03:00:00 15.95 C 9.94 g/m*3 15.95 C 10.35 km/h
755 18-08-2014 04:00:00 15.70833 C 10.11 g/m*3 15.71 C 11.425 km/h
756 18-08-2014 05:00:00 15.06667 C 10.34 g/m*3 15.07 C 10.74167 km/h
757 18-08-2014 06:00:00 14.95 C 10.31 g/m*3 14.95 C 10.89167 km/h
758 18-08-2014 07:00:00 14.95 C 10.39 g/m*3 14.95 C 9.55 km/h
759 18-08-2014 08:00:00 14.23333 C 10.62 g/m*3 14.23 C 8.325 km/h
760 18-08-2014 09:00:00 13.65 C 10.86 g/m*3 13.65 C 4.28333 km/h
761 18-08-2014 10:00:00 14.26667 C 11.15 g/m*3 14.27 C 6.16667 km/h
762 18-08-2014 11:00:00 15.84167 C 11.52 g/m*3 15.84 C 9.825 km/h
763 18-08-2014 12:00:00 17.175 C 10.98 g/m*3 17.18 C 10.89167 km/h
764 18-08-2014 13:00:00 17.4 C 10.55 g/m*3 17.4 C 13.55833 km/h
765 18-08-2014 14:00:00 16.50833 C 10.77 g/m*3 16.51 C 6.85833 km/h
766 18-08-2014 15:00:00 17.51667 C 10.96 g/m*3 17.52 C 5.75833 km/h
767 18-08-2014 16:00:00 19.4 C 10.39 g/m*3 19.4 C 11.69167 km/h
768 18-08-2014 17:00:00 20.59167 C 8.18 g/m*3 20.59 C 17.96667 km/h
769 18-08-2014 18:00:00 19.525 C 8.92 g/m*3 19.52 C 11.025 km/h
770 18-08-2014 19:00:00 18.675 C 8.78 g/m*3 18.68 C 12.35833 km/h
771 18-08-2014 20:00:00 17.03333 C 9.74 g/m*3 17.03 C 3.9 km/h
772 18-08-2014 21:00:00 14.76667 C 10.43 g/m*3 14.77 C 0.13333 km/h
773 18-08-2014 22:00:00 14.225 C 10.34 g/m*3 14.23 C 0 km/h
774 18-08-2014 23:00:00 13.925 C 10.25 g/m*3 13.93 C 0 km/h
775 19-08-2014 00:00:00 13.5 C 10.05 g/m*3 13.5 C 0 km/h
Sensor: Nr:Datum:Temp:Abs-Feuchte:Windchill:Wind:
Aussen-T/F 776 19-08-2014 01:00:00 12.44167 C 9.65 g/m*3 12.44 C 0 km/h
777 19-08-2014 02:00:00 11.60833 C 9.43 g/m*3 11.61 C 0 km/h
778 19-08-2014 03:00:00 10.93333 C 9.23 g/m*3 10.93 C 0 km/h
779 19-08-2014 04:00:00 10.525 C 9.07 g/m*3 10.53 C 0 km/h
780 19-08-2014 05:00:00 10.29167 C 9.06 g/m*3 10.29 C 0 km/h
781 19-08-2014 06:00:00 10.45833 C 9.19 g/m*3 10.46 C 1.46667 km/h
782 19-08-2014 07:00:00 11.00833 C 9.46 g/m*3 11.01 C 1.6 km/h
783 19-08-2014 08:00:00 12.3 C 10.01 g/m*3 12.3 C 6.96667 km/h
784 19-08-2014 09:00:00 13.99167 C 10.25 g/m*3 13.99 C 9.28333 km/h
785 19-08-2014 10:00:00 15.54167 C 10.27 g/m*3 15.54 C 14.63333 km/h
786 19-08-2014 11:00:00 16.39167 C 10.23 g/m*3 16.39 C 15.96667 km/h
787 19-08-2014 12:00:00 17.94167 C 10.13 g/m*3 17.94 C 15.29167 km/h
788 19-08-2014 13:00:00 19.725 C 9.92 g/m*3 19.73 C 14.625 km/h
789 19-08-2014 14:00:00 19.59167 C 10 g/m*3 19.59 C 16.63333 km/h
790 19-08-2014 15:00:00 15.925 C 10.31 g/m*3 15.93 C 12.35 km/h
791 19-08-2014 16:00:00 14.54167 C 10.94 g/m*3 14.54 C 4.175 km/h
792 19-08-2014 17:00:00 15.13333 C 11.58 g/m*3 15.13 C 0 km/h
793 19-08-2014 18:00:00 14.63333 C 11.02 g/m*3 14.63 C 4.69167 km/h
794 19-08-2014 19:00:00 13.95833 C 9.37 g/m*3 13.96 C 7.65 km/h
795 19-08-2014 20:00:00 13.89167 C 8.93 g/m*3 13.89 C 5.08333 km/h
796 19-08-2014 21:00:00 12.86667 C 9.56 g/m*3 12.87 C 1.60833 km/h
797 19-08-2014 22:00:00 11.95 C 9.56 g/m*3 11.95 C 0 km/h
798 19-08-2014 23:00:00 11.96667 C 9.3 g/m*3 11.97 C 0 km/h
799 20-08-2014 00:00:00 12.025 C 9 g/m*3 12.03 C 0 km/h
800 20-08-2014 01:00:00 11.25 C 8.73 g/m*3 11.25 C 0 km/h
Sensor: Nr:Datum:Temp:Abs-Feuchte:Windchill:Wind:
Aussen-T/F 801 20-08-2014 02:00:00 10.55 C 8.5 g/m*3 10.55 C 0 km/h
802 20-08-2014 03:00:00 9.49167 C 8.26 g/m*3 9.49 C 0 km/h
803 20-08-2014 04:00:00 8.61667 C 8.03 g/m*3 8.62 C 0 km/h
804 20-08-2014 05:00:00 8.33333 C 7.95 g/m*3 8.33 C 0 km/h
805 20-08-2014 06:00:00 8.14167 C 7.88 g/m*3 8.14 C 0 km/h
806 20-08-2014 07:00:00 7.98333 C 7.85 g/m*3 7.98 C 0 km/h
807 20-08-2014 08:00:00 8.675 C 8.26 g/m*3 8.68 C 1.33333 km/h
808 20-08-2014 09:00:00 10.58333 C 8.97 g/m*3 10.58 C 1.06667 km/h
809 20-08-2014 10:00:00 11.96667 C 9.42 g/m*3 11.97 C 0.4 km/h
810 20-08-2014 11:00:00 13.79167 C 9.61 g/m*3 13.79 C 0.93333 km/h
811 20-08-2014 12:00:00 16.14167 C 9.29 g/m*3 16.14 C 2.95 km/h
812 20-08-2014 13:00:00 14.675 C 10.52 g/m*3 14.68 C 0.675 km/h
813 20-08-2014 14:00:00 17.70833 C 8.87 g/m*3 17.71 C 6.16667 km/h
814 20-08-2014 15:00:00 17.325 C 10.52 g/m*3 17.33 C 0.66667 km/h
815 20-08-2014 16:00:00 17.79167 C 9.58 g/m*3 17.79 C 5.21667 km/h
816 20-08-2014 17:00:00 17.55833 C 10.62 g/m*3 17.56 C 0.80833 km/h
817 20-08-2014 18:00:00 17.16667 C 11.02 g/m*3 17.17 C 1.2 km/h
818 20-08-2014 19:00:00 15.01667 C 10.28 g/m*3 15.02 C 2.94167 km/h
819 20-08-2014 20:00:00 14.13333 C 10.04 g/m*3 14.13 C 0.66667 km/h
820 20-08-2014 21:00:00 12.825 C 9.13 g/m*3 12.83 C 2.28333 km/h
821 20-08-2014 22:00:00 11.83333 C 9.15 g/m*3 11.83 C 0 km/h
822 20-08-2014 23:00:00 10.9 C 8.95 g/m*3 10.9 C 0 km/h
823 21-08-2014 00:00:00 10.35833 C 8.72 g/m*3 10.36 C 0 km/h
824 21-08-2014 01:00:00 9.63333 C 8.51 g/m*3 9.63 C 0 km/h
825 21-08-2014 02:00:00 9.725 C 8.63 g/m*3 9.73 C 0 km/h
Sensor: Nr:Datum:Temp:Abs-Feuchte:Windchill:Wind:
Aussen-T/F 826 21-08-2014 03:00:00 9.35 C 8.41 g/m*3 9.35 C 0 km/h
827 21-08-2014 04:00:00 8.90833 C 8.26 g/m*3 8.91 C 0 km/h
828 21-08-2014 05:00:00 8.54167 C 8.13 g/m*3 8.54 C 0 km/h
829 21-08-2014 06:00:00 8.2 C 7.96 g/m*3 8.2 C 0.13333 km/h
830 21-08-2014 07:00:00 8.20833 C 8.04 g/m*3 8.21 C 0.13333 km/h
831 21-08-2014 08:00:00 8.76667 C 8.34 g/m*3 8.77 C 0.13333 km/h
832 21-08-2014 09:00:00 9.94167 C 8.92 g/m*3 9.94 C 0.4 km/h
833 21-08-2014 10:00:00 12.58333 C 9.44 g/m*3 12.58 C 6.70833 km/h
834 21-08-2014 11:00:00 14.55833 C 9.54 g/m*3 14.56 C 3.61667 km/h
835 21-08-2014 12:00:00 16.725 C 9.87 g/m*3 16.73 C 5.75833 km/h
836 21-08-2014 13:00:00 15.10833 C 10.4 g/m*3 15.11 C 1.475 km/h
837 21-08-2014 14:00:00 17.36667 C 9.68 g/m*3 17.37 C 3.48333 km/h
838 21-08-2014 15:00:00 17.75833 C 9.83 g/m*3 17.76 C 4.825 km/h
839 21-08-2014 16:00:00 18.6 C 9.97 g/m*3 18.6 C 4.13333 km/h
840 21-08-2014 17:00:00 18.75833 C 9.64 g/m*3 18.76 C 7.39167 km/h
841 21-08-2014 18:00:00 17.5 C 10.27 g/m*3 17.5 C 2 km/h
842 21-08-2014 19:00:00 14.91667 C 10.13 g/m*3 14.92 C 2.66667 km/h
843 21-08-2014 20:00:00 14.125 C 9.94 g/m*3 14.13 C 1.2 km/h
844 21-08-2014 21:00:00 13.75833 C 9.86 g/m*3 13.76 C 0.13333 km/h
845 21-08-2014 22:00:00 12.98333 C 9.67 g/m*3 12.98 C 0 km/h
846 21-08-2014 23:00:00 11.94167 C 9.26 g/m*3 11.94 C 0 km/h
847 22-08-2014 00:00:00 11 C 8.87 g/m*3 11 C 0 km/h
848 22-08-2014 01:00:00 10.16667 C 8.57 g/m*3 10.17 C 0 km/h
849 22-08-2014 02:00:00 9.36667 C 8.24 g/m*3 9.37 C 0 km/h
850 22-08-2014 03:00:00 8.76667 C 8.06 g/m*3 8.77 C 0 km/h
Sensor: Nr:Datum:Temp:Abs-Feuchte:Windchill:Wind:
Aussen-T/F 851 22-08-2014 04:00:00 8.25833 C 7.85 g/m*3 8.26 C 0 km/h
852 22-08-2014 05:00:00 8.31667 C 7.96 g/m*3 8.32 C 0 km/h
853 22-08-2014 06:00:00 9.06667 C 8.28 g/m*3 9.07 C 0 km/h
854 22-08-2014 07:00:00 10 C 8.56 g/m*3 10 C 0 km/h
855 22-08-2014 08:00:00 11.28333 C 8.76 g/m*3 11.28 C 3.35 km/h
856 22-08-2014 09:00:00 12.725 C 9.12 g/m*3 12.73 C 6.99167 km/h
857 22-08-2014 10:00:00 14.53333 C 9.66 g/m*3 14.53 C 5.61667 km/h
858 22-08-2014 11:00:00 17.275 C 9.52 g/m*3 17.27 C 10.63333 km/h
859 22-08-2014 12:00:00 18.23333 C 9.15 g/m*3 18.23 C 13.16667 km/h
860 22-08-2014 13:00:00 18.63333 C 9.13 g/m*3 18.63 C 13.03333 km/h
861 22-08-2014 14:00:00 18.51667 C 9.12 g/m*3 18.52 C 10.1 km/h
862 22-08-2014 15:00:00 18.81667 C 9.89 g/m*3 18.82 C 6.04167 km/h
863 22-08-2014 16:00:00 18.76667 C 10.14 g/m*3 18.77 C 7.65 km/h
864 22-08-2014 17:00:00 17.35 C 10.95 g/m*3 17.35 C 1.2 km/h
865 22-08-2014 18:00:00 18.89167 C 10.57 g/m*3 18.89 C 4.7 km/h
866 22-08-2014 19:00:00 17.70833 C 10.91 g/m*3 17.71 C 2.26667 km/h
867 22-08-2014 20:00:00 15.975 C 10.49 g/m*3 15.98 C 2 km/h
868 22-08-2014 21:00:00 14.75833 C 10.4 g/m*3 14.76 C 0.26667 km/h
869 22-08-2014 22:00:00 14.23333 C 10.32 g/m*3 14.23 C 0 km/h
870 22-08-2014 23:00:00 14.33333 C 10.52 g/m*3 14.33 C 0 km/h
871 23-08-2014 00:00:00 14.49167 C 10.27 g/m*3 14.49 C 0 km/h
872 23-08-2014 01:00:00 13.70833 C 10.27 g/m*3 13.71 C 0 km/h
873 23-08-2014 02:00:00 13.925 C 10.3 g/m*3 13.93 C 0 km/h
874 23-08-2014 03:00:00 13.93333 C 10.33 g/m*3 13.93 C 2.275 km/h
875 23-08-2014 04:00:00 13.81667 C 10.32 g/m*3 13.82 C 4.14167 km/h
Sensor: Nr:Datum:Temp:Abs-Feuchte:Windchill:Wind:
Aussen-T/F 876 23-08-2014 05:00:00 13.58333 C 10.37 g/m*3 13.58 C 3.20833 km/h
877 23-08-2014 06:00:00 13.28333 C 10.45 g/m*3 13.28 C 2.4 km/h
878 23-08-2014 07:00:00 13.04167 C 10.43 g/m*3 13.04 C 0.26667 km/h
879 23-08-2014 08:00:00 13.79167 C 10.61 g/m*3 13.79 C 5.35833 km/h
880 23-08-2014 09:00:00 14.85 C 10.58 g/m*3 14.85 C 10.49167 km/h
881 23-08-2014 10:00:00 16.18333 C 10.26 g/m*3 16.18 C 11.83333 km/h
882 23-08-2014 11:00:00 17.21667 C 9.61 g/m*3 17.22 C 12.5 km/h
883 23-08-2014 12:00:00 18.2 C 9.26 g/m*3 18.2 C 13.3 km/h
884 23-08-2014 13:00:00 18.79167 C 9.43 g/m*3 18.79 C 13.96667 km/h
885 23-08-2014 14:00:00 19.23333 C 9.64 g/m*3 19.23 C 13.7 km/h
886 23-08-2014 15:00:00 16.38333 C 10.04 g/m*3 16.38 C 6.55833 km/h
887 23-08-2014 16:00:00 14.05833 C 10.43 g/m*3 14.06 C 2.13333 km/h
888 23-08-2014 17:00:00 12.85 C 10.21 g/m*3 12.85 C 4.825 km/h
889 23-08-2014 18:00:00 13.79167 C 10.74 g/m*3 13.79 C 1.6 km/h
890 23-08-2014 19:00:00 12.54167 C 10.36 g/m*3 12.54 C 0.93333 km/h
891 23-08-2014 20:00:00 11.85833 C 9.89 g/m*3 11.86 C 1.73333 km/h
892 23-08-2014 21:00:00 11.35833 C 9.73 g/m*3 11.36 C 1.33333 km/h
893 23-08-2014 22:00:00 11.05833 C 9.55 g/m*3 11.06 C 1.06667 km/h
894 23-08-2014 23:00:00 10.5 C 9.3 g/m*3 10.5 C 0.4 km/h
895 24-08-2014 00:00:00 10.06667 C 9.06 g/m*3 10.07 C 0.26667 km/h
896 24-08-2014 01:00:00 9.725 C 8.88 g/m*3 9.73 C 0.66667 km/h
897 24-08-2014 02:00:00 10.26667 C 9.23 g/m*3 9.8 C 5.90833 km/h
898 24-08-2014 03:00:00 10.33333 C 9.09 g/m*3 10.33 C 0.8 km/h
899 24-08-2014 04:00:00 9.80833 C 8.91 g/m*3 9.81 C 0.53333 km/h
900 24-08-2014 05:00:00 8.95 C 8.44 g/m*3 8.95 C 0.26667 km/h
Sensor: Nr:Datum:Temp:Abs-Feuchte:Windchill:Wind:
Aussen-T/F 901 24-08-2014 06:00:00 8.90833 C 8.42 g/m*3 8.91 C 1.33333 km/h
902 24-08-2014 07:00:00 9.53333 C 8.7 g/m*3 9.53 C 2.93333 km/h
903 24-08-2014 08:00:00 10.06667 C 8.82 g/m*3 10.07 C 4.30833 km/h
904 24-08-2014 09:00:00 11.16667 C 9.11 g/m*3 11.17 C 8.89167 km/h
905 24-08-2014 10:00:00 11.93333 C 9.28 g/m*3 11.93 C 11.95833 km/h
906 24-08-2014 11:00:00 13.25833 C 9.55 g/m*3 13.26 C 11.3 km/h
907 24-08-2014 12:00:00 14.70833 C 9.92 g/m*3 14.71 C 8.59167 km/h
908 24-08-2014 13:00:00 15.66667 C 9.94 g/m*3 15.67 C 10.33333 km/h
909 24-08-2014 14:00:00 10.76667 C 9.38 g/m*3 10.77 C 1.06667 km/h
910 24-08-2014 15:00:00 12.69167 C 10.79 g/m*3 12.69 C 0.26667 km/h
911 24-08-2014 16:00:00 13.76667 C 11.42 g/m*3 13.77 C 0.13333 km/h
912 24-08-2014 17:00:00 13.275 C 11.11 g/m*3 13.28 C 1.2 km/h
913 24-08-2014 18:00:00 13.51667 C 11.3 g/m*3 13.52 C 0.4 km/h
914 24-08-2014 19:00:00 13.575 C 11.25 g/m*3 13.58 C 0.13333 km/h
915 24-08-2014 20:00:00 12.74167 C 10.76 g/m*3 12.74 C 0.66667 km/h
916 24-08-2014 21:00:00 11.675 C 10.11 g/m*3 11.68 C 0.26667 km/h
917 24-08-2014 22:00:00 11.225 C 9.85 g/m*3 11.23 C 0 km/h
918 24-08-2014 23:00:00 10.53333 C 9.43 g/m*3 10.53 C 0 km/h
919 25-08-2014 00:00:00 10.38333 C 9.34 g/m*3 10.38 C 0 km/h
920 25-08-2014 01:00:00 10.23333 C 9.34 g/m*3 10.23 C 0 km/h
921 25-08-2014 02:00:00 10.3 C 9.39 g/m*3 10.3 C 0 km/h
922 25-08-2014 03:00:00 10.3 C 9.39 g/m*3 10.3 C 0 km/h
923 25-08-2014 04:00:00 10.21667 C 9.34 g/m*3 10.22 C 0 km/h
924 25-08-2014 05:00:00 10.025 C 9.22 g/m*3 10.03 C 0 km/h
925 25-08-2014 06:00:00 9.75 C 9.06 g/m*3 9.75 C 0 km/h
Sensor: Nr:Datum:Temp:Abs-Feuchte:Windchill:Wind:
Aussen-T/F 926 25-08-2014 07:00:00 9.925 C 9.16 g/m*3 9.93 C 0 km/h
927 25-08-2014 08:00:00 10.45 C 9.47 g/m*3 10.45 C 0.26667 km/h
928 25-08-2014 09:00:00 11.16667 C 9.91 g/m*3 11.17 C 0 km/h
929 25-08-2014 10:00:00 12.775 C 10.96 g/m*3 12.78 C 0 km/h
930 25-08-2014 11:00:00 14.25833 C 11.95 g/m*3 14.26 C 0.26667 km/h
931 25-08-2014 12:00:00 15.80833 C 12.11 g/m*3 15.81 C 4.96667 km/h
932 25-08-2014 13:00:00 18.45833 C 11.44 g/m*3 18.46 C 10.88333 km/h
933 25-08-2014 14:00:00 18.25 C 11.64 g/m*3 18.25 C 6.58333 km/h
934 25-08-2014 15:00:00 16.41667 C 12.32 g/m*3 16.42 C 1.06667 km/h
935 25-08-2014 16:00:00 16.325 C 11.98 g/m*3 16.33 C 6.175 km/h
936 25-08-2014 17:00:00 16.04167 C 12.13 g/m*3 16.04 C 1.73333 km/h
937 25-08-2014 18:00:00 15.39167 C 12.27 g/m*3 15.39 C 0 km/h
938 25-08-2014 19:00:00 14.91667 C 12.17 g/m*3 14.92 C 0 km/h
939 25-08-2014 20:00:00 14.44167 C 11.9 g/m*3 14.44 C 0 km/h
940 25-08-2014 21:00:00 14.2 C 11.84 g/m*3 14.2 C 0 km/h
941 25-08-2014 22:00:00 14.00833 C 11.71 g/m*3 14.01 C 0 km/h
942 25-08-2014 23:00:00 13.68333 C 11.47 g/m*3 13.68 C 0.13333 km/h
943 26-08-2014 00:00:00 13.39167 C 11.27 g/m*3 13.39 C 0 km/h
944 26-08-2014 01:00:00 13.15 C 11.1 g/m*3 13.15 C 0.26667 km/h
945 26-08-2014 02:00:00 12.9 C 11.02 g/m*3 12.9 C 0.53333 km/h
946 26-08-2014 03:00:00 12.81667 C 10.94 g/m*3 12.82 C 0 km/h
947 26-08-2014 04:00:00 12.79167 C 10.97 g/m*3 12.79 C 0.26667 km/h
948 26-08-2014 05:00:00 12.7 C 10.91 g/m*3 12.7 C 0 km/h
949 26-08-2014 06:00:00 12.7 C 10.91 g/m*3 12.7 C 0 km/h
950 26-08-2014 07:00:00 12.78333 C 10.97 g/m*3 12.78 C 0 km/h
Sensor: Nr:Datum:Temp:Abs-Feuchte:Windchill:Wind:
Aussen-T/F 951 26-08-2014 08:00:00 13.1 C 11.18 g/m*3 13.1 C 0.13333 km/h
952 26-08-2014 09:00:00 14.13333 C 11.92 g/m*3 14.13 C 0.4 km/h
953 26-08-2014 10:00:00 15.70833 C 13.13 g/m*3 15.71 C 1.86667 km/h
954 26-08-2014 11:00:00 16.45 C 13.47 g/m*3 16.45 C 3.61667 km/h
955 26-08-2014 12:00:00 16.475 C 13.53 g/m*3 16.48 C 1.33333 km/h
956 26-08-2014 13:00:00 17.31667 C 14.07 g/m*3 17.32 C 2.675 km/h
957 26-08-2014 14:00:00 17.525 C 13.71 g/m*3 17.52 C 3.075 km/h
958 26-08-2014 15:00:00 17.425 C 14.1 g/m*3 17.43 C 1.46667 km/h
959 26-08-2014 16:00:00 16.73333 C 13.66 g/m*3 16.73 C 0.53333 km/h
960 26-08-2014 17:00:00 16.44167 C 13.51 g/m*3 16.44 C 0 km/h
961 26-08-2014 18:00:00 16.43333 C 13.57 g/m*3 16.43 C 0 km/h
962 26-08-2014 19:00:00 16.06667 C 13.27 g/m*3 16.07 C 0.13333 km/h
963 26-08-2014 20:00:00 15.34167 C 12.69 g/m*3 15.34 C 1.33333 km/h
964 26-08-2014 21:00:00 14.49167 C 12.06 g/m*3 14.49 C 2.66667 km/h
965 26-08-2014 22:00:00 14.24167 C 11.87 g/m*3 14.24 C 0.4 km/h
966 26-08-2014 23:00:00 13.95833 C 11.67 g/m*3 13.96 C 0.93333 km/h
967 27-08-2014 00:00:00 13.80833 C 11.61 g/m*3 13.81 C 0.66667 km/h
968 27-08-2014 01:00:00 13.64167 C 11.53 g/m*3 13.64 C 0 km/h
969 27-08-2014 02:00:00 13.59167 C 11.53 g/m*3 13.59 C 0 km/h
970 27-08-2014 03:00:00 13.55833 C 11.5 g/m*3 13.56 C 0 km/h
971 27-08-2014 04:00:00 13.4 C 11.39 g/m*3 13.4 C 0 km/h
972 27-08-2014 05:00:00 13.18333 C 11.24 g/m*3 13.18 C 0 km/h
973 27-08-2014 06:00:00 12.63333 C 10.86 g/m*3 12.63 C 0 km/h
974 27-08-2014 07:00:00 12.33333 C 10.66 g/m*3 12.33 C 0 km/h
975 27-08-2014 08:00:00 13.28182 C 11.39 g/m*3 13.28 C 0 km/h
Sensor: Nr:Datum:Temp:Abs-Feuchte:Windchill:Wind:
Aussen-T/F 976 27-08-2014 09:00:00 13.425 C 11.41 g/m*3 13.43 C 0 km/h
977 27-08-2014 10:00:00 14.325 C 11.98 g/m*3 14.33 C 0 km/h
978 27-08-2014 11:00:00 15.475 C 11.85 g/m*3 15.48 C 3.46667 km/h
979 27-08-2014 12:00:00 16.04167 C 12.26 g/m*3 16.04 C 2.00833 km/h
980 27-08-2014 13:00:00 18.08333 C 12.41 g/m*3 18.08 C 3.2 km/h
981 27-08-2014 14:00:00 18.33333 C 13.03 g/m*3 18.33 C 3.75 km/h
982 27-08-2014 15:00:00 20.79167 C 12.34 g/m*3 20.79 C 4.4 km/h
983 27-08-2014 16:00:00 20.48333 C 12.7 g/m*3 20.48 C 1.86667 km/h
984 27-08-2014 17:00:00 19.31667 C 13.13 g/m*3 19.32 C 1.86667 km/h
985 27-08-2014 18:00:00 17.325 C 13.27 g/m*3 17.33 C 0.13333 km/h
986 27-08-2014 19:00:00 16.75 C 12.9 g/m*3 16.75 C 0.26667 km/h
987 27-08-2014 20:00:00 15.01667 C 11.96 g/m*3 15.02 C 0.53333 km/h
988 27-08-2014 21:00:00 14.61667 C 11.88 g/m*3 14.62 C 0 km/h
989 27-08-2014 22:00:00 14.05833 C 11.47 g/m*3 14.06 C 0 km/h
990 27-08-2014 23:00:00 13.35833 C 11.04 g/m*3 13.36 C 0 km/h
991 28-08-2014 00:00:00 12.78333 C 10.74 g/m*3 12.78 C 0 km/h
992 28-08-2014 01:00:00 12.4 C 10.59 g/m*3 12.4 C 0 km/h
993 28-08-2014 02:00:00 12.13333 C 10.42 g/m*3 12.13 C 0 km/h
994 28-08-2014 03:00:00 12.09167 C 10.4 g/m*3 12.09 C 0 km/h
995 28-08-2014 04:00:00 11.75 C 10.19 g/m*3 11.75 C 0 km/h
996 28-08-2014 05:00:00 11.73333 C 10.19 g/m*3 11.73 C 0 km/h
997 28-08-2014 06:00:00 11.69167 C 10.24 g/m*3 11.69 C 0 km/h
998 28-08-2014 07:00:00 11.61667 C 10.19 g/m*3 11.62 C 0 km/h
999 28-08-2014 08:00:00 11.875 C 10.36 g/m*3 11.88 C 0 km/h
1000 28-08-2014 09:00:00 12.79167 C 10.97 g/m*3 12.79 C 0 km/h
Sensor: Nr:Datum:Temp:Abs-Feuchte:Windchill:Wind:
Aussen-T/F 1001 28-08-2014 10:00:00 14.7 C 12.34 g/m*3 14.7 C 0 km/h
1002 28-08-2014 11:00:00 16.75 C 13.68 g/m*3 16.75 C 2 km/h
1003 28-08-2014 12:00:00 19.64167 C 14.55 g/m*3 19.64 C 0.66667 km/h
1004 28-08-2014 13:00:00 19.575 C 14.65 g/m*3 19.58 C 0.53333 km/h
1005 28-08-2014 14:00:00 21.4 C 15.3 g/m*3 21.4 C 2.14167 km/h
1006 28-08-2014 15:00:00 21.15 C 14.58 g/m*3 21.15 C 3.475 km/h
1007 28-08-2014 16:00:00 20.59167 C 15.15 g/m*3 20.59 C 0.66667 km/h
1008 28-08-2014 17:00:00 19.975 C 14.67 g/m*3 19.98 C 2.13333 km/h
1009 28-08-2014 18:00:00 19.50833 C 14.97 g/m*3 19.51 C 0.53333 km/h
1010 28-08-2014 19:00:00 18.60833 C 14.73 g/m*3 18.61 C 0 km/h
1011 28-08-2014 20:00:00 17.61667 C 14.05 g/m*3 17.62 C 0 km/h
1012 28-08-2014 21:00:00 16.8 C 13.65 g/m*3 16.8 C 0.13333 km/h
1013 28-08-2014 22:00:00 16.74167 C 13.68 g/m*3 16.74 C 0 km/h
1014 28-08-2014 23:00:00 16.25 C 13.31 g/m*3 16.25 C 0 km/h
1015 29-08-2014 00:00:00 16.11667 C 13.25 g/m*3 16.12 C 0 km/h
1016 29-08-2014 01:00:00 16.05833 C 13.26 g/m*3 16.06 C 0 km/h
1017 29-08-2014 02:00:00 16.125 C 13.32 g/m*3 16.13 C 0.13333 km/h
1018 29-08-2014 03:00:00 16.33333 C 13.48 g/m*3 16.33 C 0 km/h
1019 29-08-2014 04:00:00 16.3 C 13.46 g/m*3 16.3 C 0 km/h
1020 29-08-2014 05:00:00 16.00833 C 13.22 g/m*3 16.01 C 0 km/h
1021 29-08-2014 06:00:00 15.875 C 13.12 g/m*3 15.88 C 0 km/h
1022 29-08-2014 07:00:00 15.725 C 13 g/m*3 15.73 C 0 km/h
1023 29-08-2014 08:00:00 16 C 13.17 g/m*3 16 C 0.26667 km/h
1024 29-08-2014 09:00:00 17.15833 C 13.32 g/m*3 17.16 C 3.06667 km/h
1025 29-08-2014 10:00:00 17.98333 C 13.41 g/m*3 17.98 C 2.675 km/h
Sensor: Nr:Datum:Temp:Abs-Feuchte:Windchill:Wind:
Aussen-T/F 1026 29-08-2014 11:00:00 18.49167 C 13.35 g/m*3 18.49 C 3.75 km/h
1027 29-08-2014 12:00:00 20.08333 C 13.79 g/m*3 20.08 C 3.48333 km/h
1028 29-08-2014 13:00:00 22.30833 C 14.13 g/m*3 22.31 C 6.725 km/h
1029 29-08-2014 14:00:00 23.80833 C 13.42 g/m*3 23.81 C 7.38333 km/h
1030 29-08-2014 15:00:00 23.5 C 13.83 g/m*3 23.5 C 7.25 km/h
1031 29-08-2014 16:00:00 22.725 C 14.16 g/m*3 22.73 C 9.8 km/h
1032 29-08-2014 17:00:00 20.74167 C 14.38 g/m*3 20.74 C 6.58333 km/h
1033 29-08-2014 18:00:00 19.06667 C 14.23 g/m*3 19.07 C 3.36667 km/h
1034 29-08-2014 19:00:00 18.05 C 14.39 g/m*3 18.05 C 0.26667 km/h
1035 29-08-2014 20:00:00 16.975 C 13.74 g/m*3 16.98 C 0 km/h
1036 29-08-2014 21:00:00 16.33333 C 13.35 g/m*3 16.33 C 0 km/h
1037 29-08-2014 22:00:00 15.96667 C 13.14 g/m*3 15.97 C 0.4 km/h
1038 29-08-2014 23:00:00 15.53333 C 12.85 g/m*3 15.53 C 0 km/h
1039 30-08-2014 00:00:00 15.36667 C 12.72 g/m*3 15.37 C 0 km/h
1040 30-08-2014 01:00:00 14.54167 C 12.1 g/m*3 14.54 C 0 km/h
1041 30-08-2014 02:00:00 14.475 C 12.08 g/m*3 14.48 C 0 km/h
1042 30-08-2014 03:00:00 14.1 C 11.78 g/m*3 14.1 C 0 km/h
1043 30-08-2014 04:00:00 13.475 C 11.33 g/m*3 13.48 C 0 km/h
1044 30-08-2014 05:00:00 13.06667 C 11.09 g/m*3 13.07 C 0 km/h
1045 30-08-2014 06:00:00 13.29167 C 11.31 g/m*3 13.29 C 0 km/h
1046 30-08-2014 07:00:00 13.63333 C 11.47 g/m*3 13.63 C 0.4 km/h
1047 30-08-2014 08:00:00 14.175 C 11.77 g/m*3 14.18 C 4.55 km/h
1048 30-08-2014 09:00:00 15.44167 C 12.21 g/m*3 15.44 C 6.575 km/h
1049 30-08-2014 10:00:00 17.075 C 12.62 g/m*3 17.08 C 5.49167 km/h
1050 30-08-2014 11:00:00 17.98333 C 12.71 g/m*3 17.98 C 4.15 km/h
Sensor: Nr:Datum:Temp:Abs-Feuchte:Windchill:Wind:
Aussen-T/F 1051 30-08-2014 12:00:00 19.425 C 12.71 g/m*3 19.43 C 8.48333 km/h
1052 30-08-2014 13:00:00 19.78333 C 13 g/m*3 19.78 C 6.03333 km/h
1053 30-08-2014 14:00:00 20.575 C 13.08 g/m*3 20.58 C 7.65833 km/h
1054 30-08-2014 15:00:00 21.125 C 13.07 g/m*3 21.13 C 10.33333 km/h
1055 30-08-2014 16:00:00 19.40833 C 13.05 g/m*3 19.41 C 4.15 km/h
1056 30-08-2014 17:00:00 16.825 C 13.33 g/m*3 16.83 C 1.875 km/h
1057 30-08-2014 18:00:00 16.475 C 13.4 g/m*3 16.48 C 0.4 km/h
1058 30-08-2014 19:00:00 16.26667 C 13.29 g/m*3 16.27 C 0 km/h
1059 30-08-2014 20:00:00 15.89167 C 13.08 g/m*3 15.89 C 0.13333 km/h
1060 30-08-2014 21:00:00 15.73333 C 13 g/m*3 15.73 C 0 km/h
1061 30-08-2014 22:00:00 15.775 C 13.04 g/m*3 15.78 C 0 km/h
1062 30-08-2014 23:00:00 15.68333 C 13.02 g/m*3 15.68 C 2.425 km/h
1063 31-08-2014 00:00:00 15.125 C 12.17 g/m*3 15.13 C 3.625 km/h
1064 31-08-2014 01:00:00 14.65 C 12.05 g/m*3 14.65 C 0 km/h
1065 31-08-2014 02:00:00 14.475 C 12.05 g/m*3 14.48 C 0 km/h
1066 31-08-2014 03:00:00 14.375 C 11.97 g/m*3 14.38 C 0 km/h
1067 31-08-2014 04:00:00 14.275 C 11.9 g/m*3 14.28 C 0 km/h
1068 31-08-2014 05:00:00 13.90833 C 11.63 g/m*3 13.91 C 0 km/h
1069 31-08-2014 06:00:00 13.76667 C 11.53 g/m*3 13.77 C 0 km/h
1070 31-08-2014 07:00:00 13.85833 C 11.6 g/m*3 13.86 C 0 km/h
1071 31-08-2014 08:00:00 13.9 C 11.63 g/m*3 13.9 C 0 km/h
1072 31-08-2014 09:00:00 15 C 11.86 g/m*3 15 C 0.8 km/h
1073 31-08-2014 10:00:00 16.275 C 11.73 g/m*3 16.27 C 4.14167 km/h
1074 31-08-2014 11:00:00 17.25833 C 11.99 g/m*3 17.26 C 2.4 km/h
1075 31-08-2014 12:00:00 17.51667 C 11.8 g/m*3 17.52 C 8.2 km/h
Sensor: Nr:Datum:Temp:Abs-Feuchte:Windchill:Wind:
Aussen-T/F 1076 31-08-2014 13:00:00 18.06667 C 11.91 g/m*3 18.07 C 10.09167 km/h
1077 31-08-2014 14:00:00 17.99167 C 12.14 g/m*3 17.99 C 3.35 km/h
1078 31-08-2014 15:00:00 14.69167 C 11.37 g/m*3 14.69 C 2.55 km/h
1079 31-08-2014 16:00:00 14.5 C 11.85 g/m*3 14.5 C 0 km/h
1080 31-08-2014 17:00:00 14.09167 C 11.66 g/m*3 14.09 C 0 km/h
1081 31-08-2014 18:00:00 13.81667 C 11.56 g/m*3 13.82 C 0 km/h
1082 31-08-2014 19:00:00 13.74167 C 11.52 g/m*3 13.74 C 0 km/h
1083 31-08-2014 20:00:00 13.38333 C 11.26 g/m*3 13.38 C 0.4 km/h
1084 31-08-2014 21:00:00 13.175 C 11.12 g/m*3 13.18 C 0.8 km/h
1085 31-08-2014 22:00:00 12.53333 C 10.69 g/m*3 12.53 C 0 km/h
1086 31-08-2014 23:00:00 12.44167 C 10.69 g/m*3 12.44 C 0 km/h
1087 01-09-2014 00:00:00 12.45 C 10.74 g/m*3 12.45 C 0 km/h
1088 01-09-2014 01:00:00 12.4 C 10.71 g/m*3 12.4 C 0 km/h
1089 01-09-2014 02:00:00 12.70833 C 10.91 g/m*3 12.71 C 0 km/h
1090 01-09-2014 03:00:00 12.8 C 10.98 g/m*3 12.8 C 2.26667 km/h
1091 01-09-2014 04:00:00 12.80833 C 10.98 g/m*3 12.81 C 0.4 km/h
1092 01-09-2014 05:00:00 12.73333 C 10.93 g/m*3 12.73 C 0 km/h
1093 01-09-2014 06:00:00 12.7 C 10.91 g/m*3 12.7 C 0 km/h
1094 01-09-2014 07:00:00 12.76667 C 10.95 g/m*3 12.77 C 0 km/h
1095 01-09-2014 08:00:00 13.225 C 11.25 g/m*3 13.23 C 0 km/h
1096 01-09-2014 09:00:00 14.04167 C 11.39 g/m*3 14.04 C 2.66667 km/h
1097 01-09-2014 10:00:00 14.825 C 11.29 g/m*3 14.83 C 2.66667 km/h
1098 01-09-2014 11:00:00 16.00833 C 11.35 g/m*3 16.01 C 6.16667 km/h
1099 01-09-2014 12:00:00 16.49167 C 11.38 g/m*3 16.49 C 4.26667 km/h
1100 01-09-2014 13:00:00 17.33333 C 11.85 g/m*3 17.33 C 2 km/h
Sensor: Nr:Datum:Temp:Abs-Feuchte:Windchill:Wind:
Aussen-T/F 1101 01-09-2014 14:00:00 18.03333 C 11.73 g/m*3 18.03 C 4.54167 km/h
1102 01-09-2014 15:00:00 18.75833 C 11.66 g/m*3 18.76 C 3.06667 km/h
1103 01-09-2014 16:00:00 17.325 C 12.38 g/m*3 17.33 C 0.53333 km/h
1104 01-09-2014 17:00:00 15.90833 C 12.33 g/m*3 15.91 C 0 km/h
1105 01-09-2014 18:00:00 15.84167 C 12.44 g/m*3 15.84 C 0 km/h
1106 01-09-2014 19:00:00 15.3 C 12.25 g/m*3 15.3 C 0 km/h
1107 01-09-2014 20:00:00 14.79167 C 11.88 g/m*3 14.79 C 0.4 km/h
1108 01-09-2014 21:00:00 14.45833 C 11.65 g/m*3 14.46 C 0.13333 km/h
1109 01-09-2014 22:00:00 13.80833 C 11.19 g/m*3 13.81 C 0 km/h
1110 01-09-2014 23:00:00 13.01667 C 10.77 g/m*3 13.02 C 0 km/h
1111 02-09-2014 00:00:00 12.71667 C 10.75 g/m*3 12.72 C 0 km/h
1112 02-09-2014 01:00:00 12.45833 C 10.54 g/m*3 12.46 C 0 km/h
1113 02-09-2014 02:00:00 11.70833 C 10.1 g/m*3 11.71 C 0 km/h
1114 02-09-2014 03:00:00 11.375 C 9.94 g/m*3 11.38 C 0 km/h
1115 02-09-2014 04:00:00 11.33333 C 9.91 g/m*3 11.33 C 0 km/h
1116 02-09-2014 05:00:00 11.26667 C 9.9 g/m*3 11.27 C 0 km/h
1117 02-09-2014 06:00:00 11.01667 C 9.74 g/m*3 11.02 C 0 km/h
1118 02-09-2014 07:00:00 10.775 C 9.64 g/m*3 10.78 C 0 km/h
1119 02-09-2014 08:00:00 10.85 C 9.72 g/m*3 10.85 C 0 km/h
1120 02-09-2014 09:00:00 11.20833 C 9.94 g/m*3 11.21 C 0 km/h
1121 02-09-2014 10:00:00 11.95 C 10.41 g/m*3 11.95 C 0 km/h
1122 02-09-2014 11:00:00 13.73333 C 11.32 g/m*3 13.73 C 0 km/h
1123 02-09-2014 12:00:00 15.81667 C 12.08 g/m*3 15.82 C 1.075 km/h
1124 02-09-2014 13:00:00 20.025 C 12.16 g/m*3 20.02 C 8.45833 km/h
1125 02-09-2014 14:00:00 20.84167 C 11.47 g/m*3 20.84 C 6.70833 km/h
Sensor: Nr:Datum:Temp:Abs-Feuchte:Windchill:Wind:
Aussen-T/F 1126 02-09-2014 15:00:00 21.725 C 11.83 g/m*3 21.73 C 6.30833 km/h
1127 02-09-2014 16:00:00 18.8 C 13.09 g/m*3 18.8 C 1.46667 km/h
1128 02-09-2014 17:00:00 17.69167 C 13.22 g/m*3 17.69 C 0.93333 km/h
1129 02-09-2014 18:00:00 17.09167 C 13.03 g/m*3 17.09 C 0.4 km/h
1130 02-09-2014 19:00:00 16.45 C 12.88 g/m*3 16.45 C 0 km/h
1131 02-09-2014 20:00:00 16.24167 C 12.85 g/m*3 16.24 C 0 km/h
1132 02-09-2014 21:00:00 15.61667 C 12.44 g/m*3 15.62 C 0 km/h
1133 02-09-2014 22:00:00 15.40833 C 12.48 g/m*3 15.41 C 0 km/h
1134 02-09-2014 23:00:00 14.75833 C 11.98 g/m*3 14.76 C 0 km/h
1135 03-09-2014 00:00:00 14.725 C 12.15 g/m*3 14.73 C 0 km/h
1136 03-09-2014 01:00:00 14.98333 C 12.39 g/m*3 14.98 C 0 km/h
1137 03-09-2014 02:00:00 15 C 12.36 g/m*3 15 C 0 km/h
1138 03-09-2014 03:00:00 14.24167 C 11.75 g/m*3 14.24 C 0 km/h
1139 03-09-2014 04:00:00 13.29167 C 11.05 g/m*3 13.29 C 0 km/h
1140 03-09-2014 05:00:00 12.475 C 10.54 g/m*3 12.48 C 0 km/h
1141 03-09-2014 06:00:00 12.00833 C 10.24 g/m*3 12.01 C 0 km/h
1142 03-09-2014 07:00:00 11.725 C 10.08 g/m*3 11.73 C 0 km/h
1143 03-09-2014 08:00:00 12.56667 C 10.67 g/m*3 12.57 C 0.26667 km/h
1144 03-09-2014 09:00:00 13.875 C 10.75 g/m*3 13.88 C 1.86667 km/h
1145 03-09-2014 10:00:00 15.06667 C 10.78 g/m*3 15.07 C 3.48333 km/h
1146 03-09-2014 11:00:00 16.00833 C 10.78 g/m*3 16.01 C 6.975 km/h
1147 03-09-2014 12:00:00 16.73333 C 11.06 g/m*3 16.73 C 7.25833 km/h
1148 03-09-2014 13:00:00 16.85 C 11.16 g/m*3 16.85 C 7.8 km/h
1149 03-09-2014 14:00:00 16.80833 C 11.35 g/m*3 16.81 C 7.24167 km/h
1150 03-09-2014 15:00:00 16.85833 C 11.61 g/m*3 16.86 C 5.90833 km/h
Sensor: Nr:Datum:Temp:Abs-Feuchte:Windchill:Wind:
Aussen-T/F 1151 03-09-2014 16:00:00 17.28333 C 11.96 g/m*3 17.28 C 2.66667 km/h
1152 03-09-2014 17:00:00 16.74167 C 12.5 g/m*3 16.74 C 0 km/h
1153 03-09-2014 18:00:00 16.3 C 12.75 g/m*3 16.3 C 0 km/h
1154 03-09-2014 19:00:00 16.08333 C 12.64 g/m*3 16.08 C 0 km/h
1155 03-09-2014 20:00:00 15.575 C 12.23 g/m*3 15.58 C 0 km/h
1156 03-09-2014 21:00:00 15.25 C 12.09 g/m*3 15.25 C 0 km/h
1157 03-09-2014 22:00:00 15.16667 C 12.05 g/m*3 15.17 C 0 km/h
1158 03-09-2014 23:00:00 15.175 C 12.09 g/m*3 15.18 C 0 km/h
1159 04-09-2014 00:00:00 14.98333 C 11.93 g/m*3 14.98 C 0 km/h
1160 04-09-2014 01:00:00 14.56667 C 11.6 g/m*3 14.57 C 0 km/h
1161 04-09-2014 02:00:00 14.25833 C 11.51 g/m*3 14.26 C 0 km/h
1162 04-09-2014 03:00:00 13.45 C 11.02 g/m*3 13.45 C 0 km/h
1163 04-09-2014 04:00:00 13.34167 C 11.12 g/m*3 13.34 C 0 km/h
1164 04-09-2014 05:00:00 13.64167 C 11.35 g/m*3 13.64 C 0 km/h
1165 04-09-2014 06:00:00 13.88333 C 11.5 g/m*3 13.88 C 0 km/h
1166 04-09-2014 07:00:00 14.31667 C 11.89 g/m*3 14.32 C 0 km/h
1167 04-09-2014 08:00:00 15.01667 C 12.33 g/m*3 15.02 C 0 km/h
1168 04-09-2014 09:00:00 16.05833 C 12.81 g/m*3 16.06 C 0 km/h
1169 04-09-2014 10:00:00 18.06667 C 13.2 g/m*3 18.07 C 0 km/h
1170 04-09-2014 11:00:00 19.38333 C 13.15 g/m*3 19.38 C 6.05 km/h
1171 04-09-2014 12:00:00 19.81667 C 13.26 g/m*3 19.82 C 8.46667 km/h
1172 04-09-2014 13:00:00 19.65 C 13.18 g/m*3 19.65 C 6.84167 km/h
1173 04-09-2014 14:00:00 20.025 C 13.49 g/m*3 20.02 C 8.20833 km/h
1174 04-09-2014 15:00:00 20.14167 C 13.5 g/m*3 20.14 C 4.825 km/h
1175 04-09-2014 16:00:00 19.68333 C 13.49 g/m*3 19.68 C 2.28333 km/h
Sensor: Nr:Datum:Temp:Abs-Feuchte:Windchill:Wind:
Aussen-T/F 1176 04-09-2014 17:00:00 19.05 C 14.06 g/m*3 19.05 C 0 km/h
1177 04-09-2014 18:00:00 17.90833 C 13.94 g/m*3 17.91 C 0 km/h
1178 04-09-2014 19:00:00 17.30833 C 13.71 g/m*3 17.31 C 0 km/h
1179 04-09-2014 20:00:00 17.04167 C 13.6 g/m*3 17.04 C 0 km/h
1180 04-09-2014 21:00:00 16.85 C 13.58 g/m*3 16.85 C 0 km/h
1181 04-09-2014 22:00:00 16.8 C 13.58 g/m*3 16.8 C 0 km/h
1182 04-09-2014 23:00:00 16.525 C 13.36 g/m*3 16.52 C 0 km/h
1183 05-09-2014 00:00:00 16.01667 C 13.08 g/m*3 16.02 C 0 km/h
1184 05-09-2014 01:00:00 15.7 C 12.92 g/m*3 15.7 C 0 km/h
1185 05-09-2014 02:00:00 15.88333 C 13.12 g/m*3 15.88 C 0 km/h
1186 05-09-2014 03:00:00 16 C 13.22 g/m*3 16 C 0 km/h
1187 05-09-2014 04:00:00 15.93333 C 13.16 g/m*3 15.93 C 0 km/h
1188 05-09-2014 05:00:00 15.88333 C 13.12 g/m*3 15.88 C 0 km/h
1189 05-09-2014 06:00:00 15.70833 C 12.98 g/m*3 15.71 C 0 km/h
1190 05-09-2014 07:00:00 15.70833 C 12.98 g/m*3 15.71 C 0 km/h
1191 05-09-2014 08:00:00 16.11667 C 13.38 g/m*3 16.12 C 0 km/h
1192 05-09-2014 09:00:00 16.7 C 13.71 g/m*3 16.7 C 0 km/h
1193 05-09-2014 10:00:00 18.025 C 14.13 g/m*3 18.02 C 0 km/h
1194 05-09-2014 11:00:00 19.48333 C 14.68 g/m*3 19.48 C 0 km/h
1195 05-09-2014 12:00:00 20.23333 C 15.02 g/m*3 20.23 C 0 km/h
1196 05-09-2014 13:00:00 22.45833 C 16.06 g/m*3 22.46 C 0 km/h
1197 05-09-2014 14:00:00 22.61667 C 16.45 g/m*3 22.62 C 0 km/h
1198 05-09-2014 15:00:00 22.25833 C 15.91 g/m*3 22.26 C 0 km/h
1199 05-09-2014 16:00:00 22.15 C 16.07 g/m*3 22.15 C 0 km/h
1200 05-09-2014 17:00:00 21.65833 C 16.1 g/m*3 21.66 C 0 km/h
Sensor: Nr:Datum:Temp:Abs-Feuchte:Windchill:Wind:
Aussen-T/F 1201 05-09-2014 18:00:00 20.33333 C 15.43 g/m*3 20.33 C 0 km/h
1202 05-09-2014 19:00:00 18.99167 C 14.67 g/m*3 18.99 C 0 km/h
1203 05-09-2014 20:00:00 18.125 C 14.13 g/m*3 18.13 C 0 km/h
1204 05-09-2014 21:00:00 17.29167 C 13.61 g/m*3 17.29 C 0 km/h
1205 05-09-2014 22:00:00 16.56667 C 13.19 g/m*3 16.57 C 0 km/h
1206 05-09-2014 23:00:00 15.975 C 12.88 g/m*3 15.98 C 0 km/h
1207 06-09-2014 00:00:00 15.68333 C 12.81 g/m*3 15.68 C 0 km/h
1208 06-09-2014 01:00:00 15.59167 C 12.76 g/m*3 15.59 C 0 km/h
1209 06-09-2014 02:00:00 15.125 C 12.45 g/m*3 15.13 C 0 km/h
1210 06-09-2014 03:00:00 14.73333 C 12.24 g/m*3 14.73 C 0 km/h
1211 06-09-2014 04:00:00 14.11667 C 11.78 g/m*3 14.12 C 0 km/h
1212 06-09-2014 05:00:00 13.925 C 11.69 g/m*3 13.93 C 0 km/h
1213 06-09-2014 06:00:00 13.85 C 11.64 g/m*3 13.85 C 0 km/h
1214 06-09-2014 07:00:00 13.76667 C 11.65 g/m*3 13.77 C 0 km/h
1215 06-09-2014 08:00:00 13.96667 C 11.8 g/m*3 13.97 C 0 km/h
1216 06-09-2014 09:00:00 14.39167 C 12.11 g/m*3 14.39 C 0 km/h
1217 06-09-2014 10:00:00 15.13333 C 12.67 g/m*3 15.13 C 0 km/h
1218 06-09-2014 11:00:00 17.11667 C 14.17 g/m*3 17.12 C 0 km/h
1219 06-09-2014 12:00:00 19.25833 C 15.03 g/m*3 19.26 C 0 km/h
1220 06-09-2014 13:00:00 20.925 C 16.08 g/m*3 20.93 C 0 km/h
1221 06-09-2014 14:00:00 21.04167 C 15.9 g/m*3 21.04 C 0 km/h
1222 06-09-2014 15:00:00 21.38333 C 16.3 g/m*3 21.38 C 0 km/h
1223 06-09-2014 16:00:00 22.90833 C 15.81 g/m*3 22.91 C 1.2 km/h
1224 06-09-2014 17:00:00 20.76667 C 15.89 g/m*3 20.77 C 0.66667 km/h
1225 06-09-2014 18:00:00 23.55 C 16.6 g/m*3 23.55 C 0.26667 km/h
Sensor: Nr:Datum:Temp:Abs-Feuchte:Windchill:Wind:
Aussen-T/F 1226 06-09-2014 19:00:00 20.86667 C 15.8 g/m*3 20.87 C 0.26667 km/h
1227 06-09-2014 20:00:00 18.6 C 14.76 g/m*3 18.6 C 0 km/h
1228 06-09-2014 21:00:00 17.99167 C 14.44 g/m*3 17.99 C 0 km/h
1229 06-09-2014 22:00:00 17.325 C 13.95 g/m*3 17.33 C 0 km/h
1230 06-09-2014 23:00:00 16.925 C 13.78 g/m*3 16.93 C 0 km/h
1231 07-09-2014 00:00:00 16.6 C 13.56 g/m*3 16.6 C 0 km/h
1232 07-09-2014 01:00:00 16.1 C 13.2 g/m*3 16.1 C 0 km/h
1233 07-09-2014 02:00:00 15.925 C 13.16 g/m*3 15.93 C 0 km/h
1234 07-09-2014 03:00:00 16.26667 C 13.43 g/m*3 16.27 C 1.33333 km/h
1235 07-09-2014 04:00:00 16.35833 C 13.5 g/m*3 16.36 C 0.66667 km/h
1236 07-09-2014 05:00:00 16.51667 C 13.56 g/m*3 16.52 C 0.66667 km/h
1237 07-09-2014 06:00:00 16.75833 C 13.7 g/m*3 16.76 C 0.26667 km/h
1238 07-09-2014 07:00:00 17.03333 C 13.91 g/m*3 17.03 C 0 km/h
1239 07-09-2014 08:00:00 17.21667 C 13.91 g/m*3 17.22 C 0 km/h
1240 07-09-2014 09:00:00 17.56667 C 13.68 g/m*3 17.57 C 2.4 km/h
1241 07-09-2014 10:00:00 18.15 C 13.56 g/m*3 18.15 C 6.16667 km/h
1242 07-09-2014 11:00:00 18 C 13.21 g/m*3 18 C 6.45 km/h
1243 07-09-2014 12:00:00 18.51667 C 13.26 g/m*3 18.52 C 3.46667 km/h
1244 07-09-2014 14:00:00 20.77143 C 14.54 g/m*3 20.77 C 3.9 km/h
1245 07-09-2014 15:00:00 22.025 C 13.69 g/m*3 22.03 C 5.09167 km/h
1246 07-09-2014 16:00:00 22.80833 C 13.82 g/m*3 22.81 C 3.73333 km/h
1247 07-09-2014 17:00:00 23.125 C 13.37 g/m*3 23.13 C 5.625 km/h
1248 07-09-2014 18:00:00 21.94167 C 13.6 g/m*3 21.94 C 5.075 km/h
1249 07-09-2014 19:00:00 18.375 C 13.61 g/m*3 18.38 C 0.13333 km/h
1250 07-09-2014 20:00:00 17.075 C 13.11 g/m*3 17.08 C 0 km/h
Sensor: Nr:Datum:Temp:Abs-Feuchte:Windchill:Wind:
Aussen-T/F 1251 07-09-2014 21:00:00 16.85 C 13.12 g/m*3 16.85 C 0 km/h
1252 07-09-2014 22:00:00 16.725 C 13.09 g/m*3 16.73 C 0 km/h
1253 07-09-2014 23:00:00 16.38333 C 12.89 g/m*3 16.38 C 0.13333 km/h
1254 08-09-2014 00:00:00 15.71667 C 12.5 g/m*3 15.72 C 0 km/h
1255 08-09-2014 01:00:00 15.41667 C 12.43 g/m*3 15.42 C 0 km/h
1256 08-09-2014 02:00:00 15.05 C 12.22 g/m*3 15.05 C 0 km/h
1257 08-09-2014 03:00:00 15.04167 C 12.32 g/m*3 15.04 C 0 km/h
1258 08-09-2014 04:00:00 14.83333 C 12.17 g/m*3 14.83 C 0 km/h
1259 08-09-2014 05:00:00 14.33333 C 11.88 g/m*3 14.33 C 0 km/h
1260 08-09-2014 06:00:00 14.325 C 11.94 g/m*3 14.33 C 0 km/h
1261 08-09-2014 07:00:00 14.33333 C 11.94 g/m*3 14.33 C 0 km/h
1262 08-09-2014 08:00:00 14.94167 C 12.39 g/m*3 14.94 C 0 km/h
1263 08-09-2014 09:00:00 16.11667 C 13.01 g/m*3 16.12 C 0.13333 km/h
1264 08-09-2014 10:00:00 17.28333 C 13.15 g/m*3 17.28 C 0.4 km/h
1265 08-09-2014 11:00:00 17.78333 C 13.49 g/m*3 17.78 C 0.13333 km/h
1266 08-09-2014 12:00:00 18.53333 C 13.71 g/m*3 18.53 C 0.53333 km/h
1267 08-09-2014 13:00:00 21.96667 C 14.16 g/m*3 21.97 C 5.375 km/h
1268 08-09-2014 14:00:00 22.85833 C 13.2 g/m*3 22.86 C 6.16667 km/h
1269 08-09-2014 15:00:00 23.36667 C 12.96 g/m*3 23.37 C 6.425 km/h
1270 08-09-2014 16:00:00 24.25833 C 12.68 g/m*3 24.26 C 7.11667 km/h
1271 08-09-2014 17:00:00 23.41667 C 12.8 g/m*3 23.42 C 5.35 km/h
1272 08-09-2014 18:00:00 22.36667 C 12.49 g/m*3 22.37 C 7.25833 km/h
1273 08-09-2014 19:00:00 21.00833 C 12.33 g/m*3 21.01 C 4.94167 km/h
1274 08-09-2014 20:00:00 17.9 C 12.53 g/m*3 17.9 C 1.86667 km/h
1275 08-09-2014 21:00:00 16.29167 C 12.02 g/m*3 16.29 C 0.93333 km/h
Sensor: Nr:Datum:Temp:Abs-Feuchte:Windchill:Wind:
Aussen-T/F 1276 08-09-2014 22:00:00 15.56667 C 11.82 g/m*3 15.57 C 0.13333 km/h
1277 08-09-2014 23:00:00 15.30833 C 11.8 g/m*3 15.31 C 0.4 km/h
1278 09-09-2014 00:00:00 14.48333 C 11.36 g/m*3 14.48 C 0.26667 km/h
1279 09-09-2014 01:00:00 13.825 C 11.13 g/m*3 13.83 C 0 km/h
1280 09-09-2014 02:00:00 13.4 C 10.96 g/m*3 13.4 C 0.13333 km/h
1281 09-09-2014 03:00:00 12.90833 C 10.71 g/m*3 12.91 C 0 km/h
1282 09-09-2014 04:00:00 12.50833 C 10.54 g/m*3 12.51 C 0 km/h
1283 09-09-2014 05:00:00 12.1 C 10.29 g/m*3 12.1 C 0 km/h
1284 09-09-2014 06:00:00 11.675 C 10.04 g/m*3 11.68 C 0.13333 km/h
1285 09-09-2014 07:00:00 11.6 C 10.06 g/m*3 11.6 C 0.26667 km/h
1286 09-09-2014 08:00:00 12.21667 C 10.48 g/m*3 12.22 C 0.13333 km/h
1287 09-09-2014 09:00:00 12.975 C 10.82 g/m*3 12.98 C 0.4 km/h
1288 09-09-2014 10:00:00 14.40833 C 11.23 g/m*3 14.41 C 2.53333 km/h
1289 09-09-2014 11:00:00 15.95833 C 11.53 g/m*3 15.96 C 2.66667 km/h
1290 09-09-2014 12:00:00 17.26667 C 11.15 g/m*3 17.27 C 4.95 km/h
1291 09-09-2014 13:00:00 19.30833 C 11.45 g/m*3 19.31 C 6.025 km/h
1292 09-09-2014 14:00:00 20.175 C 10.88 g/m*3 20.18 C 7.51667 km/h
1293 09-09-2014 15:00:00 21.025 C 10.62 g/m*3 21.03 C 7.79167 km/h
1294 09-09-2014 16:00:00 21.84167 C 10.24 g/m*3 21.84 C 8.19167 km/h
1295 09-09-2014 17:00:00 21.91667 C 9.82 g/m*3 21.92 C 8.05833 km/h
1296 09-09-2014 18:00:00 21.45 C 10.12 g/m*3 21.45 C 6.83333 km/h
1297 09-09-2014 19:00:00 19.45833 C 10.35 g/m*3 19.46 C 7.24167 km/h
1298 09-09-2014 20:00:00 15.9 C 10.54 g/m*3 15.9 C 1.74167 km/h
1299 09-09-2014 21:00:00 13.85 C 10.21 g/m*3 13.85 C 0.53333 km/h
1300 09-09-2014 22:00:00 12.975 C 10.07 g/m*3 12.98 C 0.13333 km/h
Sensor: Nr:Datum:Temp:Abs-Feuchte:Windchill:Wind:
Aussen-T/F 1301 09-09-2014 23:00:00 12.36667 C 9.88 g/m*3 12.37 C 0 km/h
1302 10-09-2014 00:00:00 11.675 C 9.63 g/m*3 11.68 C 0 km/h
1303 10-09-2014 01:00:00 11.56667 C 9.73 g/m*3 11.57 C 0 km/h
1304 10-09-2014 02:00:00 11.625 C 9.79 g/m*3 11.63 C 0 km/h
1305 10-09-2014 03:00:00 11.63333 C 9.8 g/m*3 11.63 C 0 km/h
1306 10-09-2014 04:00:00 11.65833 C 9.91 g/m*3 11.66 C 0.26667 km/h
1307 10-09-2014 05:00:00 11.83333 C 10.02 g/m*3 11.83 C 0.4 km/h
1308 10-09-2014 06:00:00 11.95833 C 10.1 g/m*3 11.96 C 0 km/h
1309 10-09-2014 07:00:00 12.24167 C 10.28 g/m*3 12.24 C 0.13333 km/h
1310 10-09-2014 08:00:00 12.9 C 10.68 g/m*3 12.9 C 0.66667 km/h
1311 10-09-2014 09:00:00 14.06667 C 11.14 g/m*3 14.07 C 0.8 km/h
1312 10-09-2014 10:00:00 15.10833 C 11.25 g/m*3 15.11 C 6.04167 km/h
1313 10-09-2014 11:00:00 15.86667 C 11.06 g/m*3 15.87 C 6.56667 km/h
1314 10-09-2014 12:00:00 16.55833 C 10.7 g/m*3 16.56 C 9.275 km/h
1315 10-09-2014 13:00:00 16.85833 C 10.51 g/m*3 16.86 C 8.20833 km/h
1316 10-09-2014 14:00:00 17.44167 C 10.16 g/m*3 17.44 C 8.61667 km/h
1317 10-09-2014 15:00:00 17.14167 C 10.01 g/m*3 17.14 C 8.88333 km/h
1318 10-09-2014 16:00:00 17.31667 C 9.7 g/m*3 17.32 C 8.60833 km/h
1319 10-09-2014 17:00:00 17.15833 C 9.11 g/m*3 17.16 C 9.00833 km/h
1320 10-09-2014 18:00:00 16.98333 C 9.08 g/m*3 16.98 C 6.975 km/h
1321 10-09-2014 19:00:00 15.84167 C 9.69 g/m*3 15.84 C 2.80833 km/h
1322 10-09-2014 20:00:00 14.5 C 10.2 g/m*3 14.5 C 0.53333 km/h
1323 10-09-2014 21:00:00 14.375 C 10.4 g/m*3 14.38 C 0.4 km/h
1324 10-09-2014 22:00:00 13.84167 C 10.31 g/m*3 13.84 C 0.26667 km/h
1325 10-09-2014 23:00:00 12.54167 C 9.98 g/m*3 12.54 C 0.26667 km/h
Sensor: Nr:Datum:Temp:Abs-Feuchte:Windchill:Wind:
Aussen-T/F 1326 11-09-2014 00:00:00 12.3 C 10.04 g/m*3 12.3 C 0.13333 km/h
1327 11-09-2014 01:00:00 12.10833 C 10.02 g/m*3 12.11 C 0.26667 km/h
1328 11-09-2014 02:00:00 12.00833 C 10.07 g/m*3 12.01 C 0.26667 km/h
1329 11-09-2014 03:00:00 12.14167 C 10.18 g/m*3 12.14 C 0.93333 km/h
1330 11-09-2014 04:00:00 12.56667 C 10.45 g/m*3 12.57 C 0.26667 km/h
1331 11-09-2014 05:00:00 12.60833 C 10.42 g/m*3 12.61 C 0.13333 km/h
1332 11-09-2014 06:00:00 12.54167 C 10.51 g/m*3 12.54 C 0.4 km/h
1333 11-09-2014 07:00:00 13.025 C 10.8 g/m*3 13.03 C 0.53333 km/h
1334 11-09-2014 08:00:00 13.76667 C 11.19 g/m*3 13.77 C 0.93333 km/h
1335 11-09-2014 09:00:00 14.825 C 11.52 g/m*3 14.83 C 5.75833 km/h
1336 11-09-2014 10:00:00 15.85 C 11.58 g/m*3 15.85 C 6.44167 km/h
1337 11-09-2014 11:00:00 16.76667 C 11.36 g/m*3 16.77 C 8.2 km/h
1338 11-09-2014 12:00:00 17.75833 C 11.28 g/m*3 17.76 C 8.45833 km/h
1339 11-09-2014 13:00:00 18.19167 C 11.13 g/m*3 18.19 C 10.23333 km/h
1340 11-09-2014 14:00:00 18.81667 C 10.85 g/m*3 18.82 C 12.76667 km/h
1341 11-09-2014 15:00:00 19.39167 C 10.58 g/m*3 19.39 C 9.275 km/h
1342 11-09-2014 16:00:00 18.91667 C 10.07 g/m*3 18.92 C 10.225 km/h
1343 11-09-2014 17:00:00 18.975 C 9.9 g/m*3 18.98 C 9.95 km/h
1344 11-09-2014 18:00:00 18.14167 C 10.87 g/m*3 18.14 C 3.48333 km/h
1345 11-09-2014 19:00:00 15.95 C 10.78 g/m*3 15.95 C 1.34167 km/h
1346 11-09-2014 20:00:00 14.675 C 9.84 g/m*3 14.68 C 1.60833 km/h
1347 11-09-2014 21:00:00 13.40833 C 9.77 g/m*3 13.41 C 1.06667 km/h
1348 11-09-2014 22:00:00 12.56667 C 9.64 g/m*3 12.57 C 0.4 km/h
1349 11-09-2014 23:00:00 11.76667 C 9.53 g/m*3 11.77 C 0 km/h
1350 12-09-2014 00:00:00 11.15833 C 9.35 g/m*3 11.16 C 0 km/h
Sensor: Nr:Datum:Temp:Abs-Feuchte:Windchill:Wind:
Aussen-T/F 1351 12-09-2014 01:00:00 10.54167 C 9.12 g/m*3 10.54 C 0 km/h
1352 12-09-2014 02:00:00 10.05833 C 8.95 g/m*3 10.06 C 0.13333 km/h
1353 12-09-2014 03:00:00 9.7 C 8.8 g/m*3 9.7 C 0.13333 km/h
1354 12-09-2014 04:00:00 9.825 C 8.92 g/m*3 9.82 C 0 km/h
1355 12-09-2014 05:00:00 9.40833 C 8.69 g/m*3 9.41 C 0.13333 km/h
1356 12-09-2014 06:00:00 8.93333 C 8.43 g/m*3 8.93 C 0 km/h
1357 12-09-2014 07:00:00 9.31667 C 8.73 g/m*3 9.32 C 0 km/h
1358 12-09-2014 08:00:00 10 C 9.11 g/m*3 10 C 0.26667 km/h
1359 12-09-2014 09:00:00 11.03333 C 9.71 g/m*3 11.03 C 0.26667 km/h
1360 12-09-2014 10:00:00 12.45833 C 10.09 g/m*3 12.46 C 4 km/h
1361 12-09-2014 11:00:00 14.175 C 10.54 g/m*3 14.18 C 7.50833 km/h
1362 12-09-2014 12:00:00 16.36667 C 11.21 g/m*3 16.37 C 9.55 km/h
1363 12-09-2014 13:00:00 18.21667 C 11.4 g/m*3 18.22 C 12.35833 km/h
1364 12-09-2014 14:00:00 19.99167 C 10.61 g/m*3 19.99 C 14.9 km/h
1365 12-09-2014 15:00:00 19.4 C 10.51 g/m*3 19.4 C 13.96667 km/h
1366 12-09-2014 16:00:00 18.95 C 10.64 g/m*3 18.95 C 10.49167 km/h
1367 12-09-2014 17:00:00 18.34167 C 10.88 g/m*3 18.34 C 12.5 km/h
1368 12-09-2014 18:00:00 17.65 C 11.27 g/m*3 17.65 C 6.975 km/h
1369 12-09-2014 19:00:00 17.20833 C 11.42 g/m*3 17.21 C 4.15 km/h
1370 12-09-2014 20:00:00 16.74167 C 11.65 g/m*3 16.74 C 3.46667 km/h
1371 12-09-2014 21:00:00 16.54167 C 11.73 g/m*3 16.54 C 3.34167 km/h
1372 12-09-2014 22:00:00 16.5 C 11.75 g/m*3 16.5 C 2.53333 km/h
1373 12-09-2014 23:00:00 16.4 C 11.84 g/m*3 16.4 C 0.8 km/h
1374 13-09-2014 00:00:00 16.14167 C 11.93 g/m*3 16.14 C 0.4 km/h
1375 13-09-2014 01:00:00 15.88333 C 11.91 g/m*3 15.88 C 0.53333 km/h
Sensor: Nr:Datum:Temp:Abs-Feuchte:Windchill:Wind:
Aussen-T/F 1376 13-09-2014 02:00:00 15.325 C 11.68 g/m*3 15.33 C 0.4 km/h
1377 13-09-2014 03:00:00 15.21667 C 11.8 g/m*3 15.22 C 0.13333 km/h
1378 13-09-2014 04:00:00 15.16667 C 11.97 g/m*3 15.17 C 0 km/h
1379 13-09-2014 05:00:00 14.86667 C 11.96 g/m*3 14.87 C 0 km/h
1380 13-09-2014 06:00:00 14.95833 C 11.84 g/m*3 14.96 C 0.4 km/h
1381 13-09-2014 07:00:00 15.125 C 11.76 g/m*3 15.13 C 2.80833 km/h
1382 13-09-2014 08:00:00 15.2 C 11.74 g/m*3 15.2 C 2.275 km/h
1383 13-09-2014 09:00:00 15.7 C 11.85 g/m*3 15.7 C 4.68333 km/h
1384 13-09-2014 10:00:00 15.9 C 11.87 g/m*3 15.9 C 6.84167 km/h
1385 13-09-2014 11:00:00 15.88333 C 11.91 g/m*3 15.88 C 5.75833 km/h
1386 13-09-2014 12:00:00 16.29167 C 12.12 g/m*3 16.29 C 4.675 km/h
1387 13-09-2014 13:00:00 17.15833 C 12.54 g/m*3 17.16 C 5.61667 km/h
1388 13-09-2014 14:00:00 17.525 C 12.64 g/m*3 17.52 C 6.83333 km/h
1389 13-09-2014 15:00:00 17.45833 C 12.73 g/m*3 17.46 C 3.875 km/h
1390 13-09-2014 16:00:00 17.56667 C 12.82 g/m*3 17.57 C 5.5 km/h
1391 13-09-2014 17:00:00 17.775 C 12.57 g/m*3 17.77 C 6.3 km/h
1392 13-09-2014 18:00:00 17.29167 C 12.56 g/m*3 17.29 C 2.4 km/h
1393 13-09-2014 19:00:00 16.41667 C 12.61 g/m*3 16.42 C 0.4 km/h
1394 13-09-2014 20:00:00 16.35 C 12.48 g/m*3 16.35 C 1.33333 km/h
1395 13-09-2014 21:00:00 16.175 C 12.45 g/m*3 16.18 C 0 km/h
1396 13-09-2014 22:00:00 15.85 C 12.31 g/m*3 15.85 C 0 km/h
1397 13-09-2014 23:00:00 15.68333 C 12.3 g/m*3 15.68 C 0 km/h
1398 14-09-2014 00:00:00 15.6 C 12.23 g/m*3 15.6 C 0 km/h
1399 14-09-2014 01:00:00 15.625 C 12.31 g/m*3 15.63 C 0 km/h
1400 14-09-2014 02:00:00 15.64167 C 12.27 g/m*3 15.64 C 0.13333 km/h
Sensor: Nr:Datum:Temp:Abs-Feuchte:Windchill:Wind:
Aussen-T/F 1401 14-09-2014 03:00:00 15.45 C 12.21 g/m*3 15.45 C 0 km/h
1402 14-09-2014 04:00:00 15.3 C 12.1 g/m*3 15.3 C 0 km/h
1403 14-09-2014 05:00:00 15.21667 C 11.92 g/m*3 15.22 C 0.26667 km/h
1404 14-09-2014 06:00:00 15.13333 C 11.76 g/m*3 15.13 C 0.66667 km/h
1405 14-09-2014 07:00:00 14.95833 C 11.55 g/m*3 14.96 C 0.93333 km/h
1406 14-09-2014 08:00:00 15.03333 C 11.66 g/m*3 15.03 C 0.66667 km/h
1407 14-09-2014 09:00:00 15.425 C 11.75 g/m*3 15.43 C 0.93333 km/h
1408 14-09-2014 10:00:00 16.05833 C 11.99 g/m*3 16.06 C 2.66667 km/h
1409 14-09-2014 11:00:00 16.80833 C 12.23 g/m*3 16.81 C 3.6 km/h
1410 14-09-2014 12:00:00 17.06667 C 12.43 g/m*3 17.07 C 1.46667 km/h
1411 14-09-2014 13:00:00 17.72 C 12.75 g/m*3 17.72 C 0.96 km/h
1412 14-09-2014 14:00:00 18.55833 C 13.24 g/m*3 18.56 C 0.93333 km/h
1413 14-09-2014 15:00:00 18.625 C 13.34 g/m*3 18.63 C 0.4 km/h
1414 14-09-2014 16:00:00 20.3 C 13.66 g/m*3 20.3 C 2.4 km/h
1415 14-09-2014 17:00:00 21.6 C 13.67 g/m*3 21.6 C 2.93333 km/h
1416 14-09-2014 18:00:00 20.7 C 14 g/m*3 20.7 C 0.93333 km/h
1417 14-09-2014 19:00:00 18.425 C 13.51 g/m*3 18.43 C 0 km/h
1418 14-09-2014 20:00:00 16.18333 C 12.59 g/m*3 16.18 C 0.26667 km/h
1419 14-09-2014 21:00:00 15.60833 C 12.3 g/m*3 15.61 C 0 km/h
1420 14-09-2014 22:00:00 15.00833 C 12.11 g/m*3 15.01 C 0 km/h
1421 14-09-2014 23:00:00 14.225 C 11.59 g/m*3 14.23 C 0 km/h
1422 15-09-2014 00:00:00 13.58333 C 11.28 g/m*3 13.58 C 0 km/h
1423 15-09-2014 01:00:00 13.05833 C 10.93 g/m*3 13.06 C 0 km/h
1424 15-09-2014 02:00:00 12.55 C 10.65 g/m*3 12.55 C 0 km/h
1425 15-09-2014 03:00:00 12.26667 C 10.51 g/m*3 12.27 C 0 km/h
Sensor: Nr:Datum:Temp:Abs-Feuchte:Windchill:Wind:
Aussen-T/F 1426 15-09-2014 04:00:00 12.775 C 10.86 g/m*3 12.78 C 0.13333 km/h
1427 15-09-2014 05:00:00 12.86667 C 10.99 g/m*3 12.87 C 0 km/h
1428 15-09-2014 06:00:00 12.99167 C 11.11 g/m*3 12.99 C 0 km/h
1429 15-09-2014 07:00:00 13.1 C 11.18 g/m*3 13.1 C 0.26667 km/h
1430 15-09-2014 08:00:00 13.28333 C 11.31 g/m*3 13.28 C 0 km/h
1431 15-09-2014 09:00:00 13.76667 C 11.65 g/m*3 13.77 C 0 km/h
1432 15-09-2014 10:00:00 14.22 C 11.98 g/m*3 14.22 C 0.32 km/h
1433 15-09-2014 11:00:00 16.625 C 13.29 g/m*3 16.63 C 1.86667 km/h
1434 15-09-2014 12:00:00 19.025 C 13.83 g/m*3 19.02 C 6.025 km/h
1435 15-09-2014 13:00:00 20.26667 C 14.04 g/m*3 20.27 C 3.33333 km/h
1436 15-09-2014 14:00:00 19.80833 C 14.44 g/m*3 19.81 C 1.06667 km/h
1437 15-09-2014 15:00:00 20.93333 C 14.29 g/m*3 20.93 C 5.48333 km/h
1438 15-09-2014 16:00:00 21.91667 C 14.49 g/m*3 21.92 C 6.29167 km/h
1439 15-09-2014 17:00:00 20.95 C 14.64 g/m*3 20.95 C 2.53333 km/h
1440 15-09-2014 18:00:00 19.51667 C 14.66 g/m*3 19.52 C 0.4 km/h
1441 15-09-2014 19:00:00 17.99167 C 13.79 g/m*3 17.99 C 0.13333 km/h
1442 15-09-2014 20:00:00 16.53333 C 13.04 g/m*3 16.53 C 0.4 km/h
1443 15-09-2014 21:00:00 16.09167 C 12.83 g/m*3 16.09 C 0.13333 km/h
1444 15-09-2014 22:00:00 15.59167 C 12.63 g/m*3 15.59 C 0 km/h
1445 15-09-2014 23:00:00 15.1 C 12.34 g/m*3 15.1 C 0 km/h
1446 16-09-2014 00:00:00 14.5 C 11.98 g/m*3 14.5 C 0 km/h
1447 16-09-2014 01:00:00 14.13333 C 11.77 g/m*3 14.13 C 0 km/h
1448 16-09-2014 02:00:00 13.66667 C 11.46 g/m*3 13.67 C 0 km/h
1449 16-09-2014 03:00:00 13.25833 C 11.18 g/m*3 13.26 C 0 km/h
1450 16-09-2014 04:00:00 13.45833 C 11.36 g/m*3 13.46 C 0 km/h
Sensor: Nr:Datum:Temp:Abs-Feuchte:Windchill:Wind:
Aussen-T/F 1451 16-09-2014 05:00:00 13.70833 C 11.61 g/m*3 13.71 C 0 km/h
1452 16-09-2014 06:00:00 13.775 C 11.65 g/m*3 13.78 C 0 km/h
1453 16-09-2014 07:00:00 13.9 C 11.75 g/m*3 13.9 C 0.13333 km/h
1454 16-09-2014 08:00:00 14.10833 C 11.9 g/m*3 14.11 C 0.93333 km/h
1455 16-09-2014 09:00:00 14.6 C 12.26 g/m*3 14.6 C 1.6 km/h
1456 16-09-2014 10:00:00 15.43333 C 12.9 g/m*3 15.43 C 0.8 km/h
1457 16-09-2014 11:00:00 17.20833 C 13.69 g/m*3 17.21 C 5.63333 km/h
1458 16-09-2014 12:00:00 19.05833 C 14.05 g/m*3 19.06 C 4.68333 km/h
1459 16-09-2014 13:00:00 22.09167 C 14.99 g/m*3 22.09 C 7.10833 km/h
1460 16-09-2014 14:00:00 23.09167 C 14.96 g/m*3 23.09 C 6.44167 km/h
1461 16-09-2014 15:00:00 21.69167 C 15.16 g/m*3 21.69 C 2.94167 km/h
1462 16-09-2014 16:00:00 24.63333 C 14.86 g/m*3 24.63 C 4.95 km/h
1463 16-09-2014 17:00:00 22.30833 C 14.98 g/m*3 22.31 C 1.2 km/h
1464 16-09-2014 18:00:00 20.45 C 14.77 g/m*3 20.45 C 0.4 km/h
1465 16-09-2014 19:00:00 18.53333 C 13.81 g/m*3 18.53 C 1.06667 km/h
1466 16-09-2014 20:00:00 16.85 C 12.94 g/m*3 16.85 C 0.26667 km/h
1467 16-09-2014 21:00:00 16.025 C 12.61 g/m*3 16.02 C 0 km/h
1468 16-09-2014 22:00:00 15.35 C 12.28 g/m*3 15.35 C 0 km/h
1469 16-09-2014 23:00:00 14.55 C 11.8 g/m*3 14.55 C 0 km/h
1470 17-09-2014 00:00:00 13.91667 C 11.5 g/m*3 13.92 C 0 km/h
1471 17-09-2014 01:00:00 13.625 C 11.33 g/m*3 13.63 C 0 km/h
1472 17-09-2014 02:00:00 13.2 C 11.09 g/m*3 13.2 C 0 km/h
1473 17-09-2014 03:00:00 12.63333 C 10.75 g/m*3 12.63 C 0 km/h
1474 17-09-2014 04:00:00 12.15 C 10.43 g/m*3 12.15 C 0 km/h
1475 17-09-2014 05:00:00 12.24167 C 10.54 g/m*3 12.24 C 0 km/h
Sensor: Nr:Datum:Temp:Abs-Feuchte:Windchill:Wind:
Aussen-T/F 1476 17-09-2014 06:00:00 12.35833 C 10.68 g/m*3 12.36 C 0 km/h
1477 17-09-2014 07:00:00 12.175 C 10.56 g/m*3 12.18 C 0 km/h
1478 17-09-2014 08:00:00 12.35 C 10.67 g/m*3 12.35 C 0 km/h
1479 17-09-2014 09:00:00 12.86667 C 11.02 g/m*3 12.87 C 0 km/h
1480 17-09-2014 10:00:00 13.6 C 11.53 g/m*3 13.6 C 0 km/h
1481 17-09-2014 11:00:00 14.88333 C 12.51 g/m*3 14.88 C 0 km/h
1482 17-09-2014 12:00:00 16.725 C 13.84 g/m*3 16.73 C 0.66667 km/h
1483 17-09-2014 13:00:00 20.76667 C 15.32 g/m*3 20.77 C 2.66667 km/h
1484 17-09-2014 14:00:00 22.73333 C 15.59 g/m*3 22.73 C 3.61667 km/h
1485 17-09-2014 15:00:00 22.15 C 15.5 g/m*3 22.15 C 0.94167 km/h
1486 17-09-2014 16:00:00 22.575 C 15.43 g/m*3 22.58 C 0.4 km/h
1487 17-09-2014 17:00:00 21.29167 C 15.34 g/m*3 21.29 C 0 km/h
1488 17-09-2014 18:00:00 20.225 C 15.15 g/m*3 20.23 C 0 km/h
1489 17-09-2014 19:00:00 18.45 C 14.13 g/m*3 18.45 C 0 km/h
1490 17-09-2014 20:00:00 17.20833 C 13.38 g/m*3 17.21 C 0 km/h
1491 17-09-2014 21:00:00 16.35833 C 12.81 g/m*3 16.36 C 0 km/h
1492 17-09-2014 22:00:00 15.64167 C 12.47 g/m*3 15.64 C 0 km/h
1493 17-09-2014 23:00:00 15.10833 C 12.21 g/m*3 15.11 C 0 km/h
1494 18-09-2014 00:00:00 14.73333 C 12.07 g/m*3 14.73 C 0 km/h
1495 18-09-2014 01:00:00 14.43333 C 11.9 g/m*3 14.43 C 0 km/h
1496 18-09-2014 02:00:00 14.28333 C 11.9 g/m*3 14.28 C 0 km/h
1497 18-09-2014 03:00:00 14.29167 C 11.91 g/m*3 14.29 C 0 km/h
1498 18-09-2014 04:00:00 14.825 C 12.35 g/m*3 14.83 C 0.4 km/h
1499 18-09-2014 05:00:00 15.08333 C 12.56 g/m*3 15.08 C 0.53333 km/h
1500 18-09-2014 06:00:00 15.2 C 12.63 g/m*3 15.2 C 0 km/h
Sensor: Nr:Datum:Temp:Abs-Feuchte:Windchill:Wind:
Aussen-T/F 1501 18-09-2014 07:00:00 15.21667 C 12.73 g/m*3 15.22 C 0 km/h
1502 18-09-2014 08:00:00 15.675 C 13.09 g/m*3 15.68 C 0 km/h
1503 18-09-2014 09:00:00 16.23333 C 13.54 g/m*3 16.23 C 0 km/h
1504 18-09-2014 10:00:00 17.175 C 14.33 g/m*3 17.18 C 0 km/h
1505 18-09-2014 11:00:00 17.90833 C 14.95 g/m*3 17.91 C 0 km/h
1506 18-09-2014 12:00:00 18.91667 C 15.47 g/m*3 18.92 C 0 km/h
1507 18-09-2014 13:00:00 19.83333 C 16 g/m*3 19.83 C 0 km/h
1508 18-09-2014 14:00:00 21.13333 C 16.54 g/m*3 21.13 C 0.4 km/h
1509 18-09-2014 15:00:00 22.31667 C 16.7 g/m*3 22.32 C 0.93333 km/h
1510 18-09-2014 16:00:00 21.64167 C 16.6 g/m*3 21.64 C 0.26667 km/h
1511 18-09-2014 17:00:00 20.25833 C 16.49 g/m*3 20.26 C 0 km/h
1512 18-09-2014 18:00:00 19.94167 C 16.43 g/m*3 19.94 C 0.4 km/h
1513 18-09-2014 19:00:00 19.04167 C 15.82 g/m*3 19.04 C 0 km/h
1514 18-09-2014 20:00:00 18.075 C 14.97 g/m*3 18.08 C 0 km/h
1515 18-09-2014 21:00:00 17.71667 C 14.76 g/m*3 17.72 C 0 km/h
1516 18-09-2014 22:00:00 17.875 C 14.94 g/m*3 17.88 C 0 km/h
1517 18-09-2014 23:00:00 17.89167 C 14.96 g/m*3 17.89 C 0 km/h
1518 19-09-2014 00:00:00 17.39167 C 14.52 g/m*3 17.39 C 0 km/h
1519 19-09-2014 01:00:00 16.9 C 14.1 g/m*3 16.9 C 0 km/h
1520 19-09-2014 02:00:00 16.475 C 13.74 g/m*3 16.48 C 0 km/h
1521 19-09-2014 03:00:00 16.14167 C 13.47 g/m*3 16.14 C 0 km/h
1522 19-09-2014 04:00:00 16.275 C 13.58 g/m*3 16.27 C 0 km/h
1523 19-09-2014 05:00:00 15.825 C 13.21 g/m*3 15.83 C 0 km/h
1524 19-09-2014 06:00:00 15.84167 C 13.3 g/m*3 15.84 C 0 km/h
1525 19-09-2014 07:00:00 16.33333 C 13.73 g/m*3 16.33 C 0.4 km/h
Sensor: Nr:Datum:Temp:Abs-Feuchte:Windchill:Wind:
Aussen-T/F 1526 19-09-2014 08:00:00 16.68333 C 14.06 g/m*3 16.68 C 0 km/h
1527 19-09-2014 09:00:00 17.18333 C 14.48 g/m*3 17.18 C 0.13333 km/h
1528 19-09-2014 10:00:00 17.83333 C 15.06 g/m*3 17.83 C 0.26667 km/h
1529 19-09-2014 11:00:00 18.275 C 15.46 g/m*3 18.27 C 0.13333 km/h
1530 19-09-2014 12:00:00 19.60833 C 16.51 g/m*3 19.61 C 3.35833 km/h
1531 19-09-2014 13:00:00 22.7 C 17.12 g/m*3 22.7 C 5.36667 km/h
1532 19-09-2014 14:00:00 23.00833 C 17.02 g/m*3 23.01 C 4.96667 km/h
1533 19-09-2014 15:00:00 21.70833 C 17.16 g/m*3 21.71 C 0.13333 km/h
1534 19-09-2014 16:00:00 21.45833 C 17.29 g/m*3 21.46 C 0.26667 km/h
1535 19-09-2014 17:00:00 21.70833 C 17.35 g/m*3 21.71 C 0.53333 km/h
1536 19-09-2014 18:00:00 20.76667 C 16.39 g/m*3 20.77 C 1.6 km/h
1537 19-09-2014 19:00:00 19.25833 C 15.35 g/m*3 19.26 C 2.66667 km/h
1538 19-09-2014 20:00:00 18.375 C 14.84 g/m*3 18.38 C 0.26667 km/h
1539 19-09-2014 21:00:00 17.8 C 14.57 g/m*3 17.8 C 0.13333 km/h
1540 19-09-2014 22:00:00 17.075 C 13.99 g/m*3 17.08 C 0 km/h
1541 19-09-2014 23:00:00 16.73333 C 13.81 g/m*3 16.73 C 0 km/h
1542 20-09-2014 00:00:00 16.53333 C 13.74 g/m*3 16.53 C 0 km/h
1543 20-09-2014 01:00:00 16.55 C 13.8 g/m*3 16.55 C 0 km/h
1544 20-09-2014 02:00:00 16.44167 C 13.71 g/m*3 16.44 C 0 km/h
1545 20-09-2014 03:00:00 15.925 C 13.29 g/m*3 15.93 C 0 km/h
1546 20-09-2014 04:00:00 15.7 C 13.11 g/m*3 15.7 C 0 km/h
1547 20-09-2014 05:00:00 15.475 C 12.93 g/m*3 15.48 C 0 km/h
1548 20-09-2014 06:00:00 15.63333 C 13.06 g/m*3 15.63 C 0.26667 km/h
1549 20-09-2014 07:00:00 15.225 C 12.74 g/m*3 15.23 C 0 km/h
1550 20-09-2014 08:00:00 16.04167 C 13.44 g/m*3 16.04 C 0 km/h
Sensor: Nr:Datum:Temp:Abs-Feuchte:Windchill:Wind:
Aussen-T/F 1551 20-09-2014 09:00:00 17.05 C 14.27 g/m*3 17.05 C 1.33333 km/h
1552 20-09-2014 10:00:00 18.14167 C 14.81 g/m*3 18.14 C 0.93333 km/h
1553 20-09-2014 11:00:00 19.375 C 15.17 g/m*3 19.38 C 0.4 km/h
1554 20-09-2014 12:00:00 20.5 C 15.93 g/m*3 20.5 C 0 km/h
1555 20-09-2014 13:00:00 20.63333 C 15.97 g/m*3 20.63 C 0.26667 km/h
1556 20-09-2014 14:00:00 17.66667 C 14.43 g/m*3 17.67 C 0.66667 km/h
1557 20-09-2014 15:00:00 17.33333 C 14.24 g/m*3 17.33 C 1.875 km/h
1558 20-09-2014 16:00:00 18.50833 C 15.41 g/m*3 18.51 C 0.26667 km/h
1559 20-09-2014 17:00:00 19.06667 C 15.76 g/m*3 19.07 C 0 km/h
1560 20-09-2014 18:00:00 18.25833 C 15.06 g/m*3 18.26 C 0 km/h
1561 20-09-2014 19:00:00 17.75833 C 14.69 g/m*3 17.76 C 0 km/h
1562 20-09-2014 20:00:00 16.63333 C 13.73 g/m*3 16.63 C 0.66667 km/h
1563 20-09-2014 21:00:00 15.65833 C 12.99 g/m*3 15.66 C 0 km/h
1564 20-09-2014 22:00:00 15.56667 C 13.01 g/m*3 15.57 C 0 km/h
1565 20-09-2014 23:00:00 15.90833 C 13.2 g/m*3 15.91 C 1.73333 km/h
1566 21-09-2014 00:00:00 15.45833 C 12.9 g/m*3 15.46 C 0 km/h
1567 21-09-2014 01:00:00 15.70833 C 13.12 g/m*3 15.71 C 1.875 km/h
1568 21-09-2014 02:00:00 15.775 C 13.17 g/m*3 15.78 C 0 km/h
1569 21-09-2014 03:00:00 15.76667 C 13.17 g/m*3 15.77 C 0 km/h
1570 21-09-2014 04:00:00 15.75833 C 13.16 g/m*3 15.76 C 0 km/h
1571 21-09-2014 05:00:00 15.8 C 13.19 g/m*3 15.8 C 0 km/h
1572 21-09-2014 06:00:00 15.675 C 13.09 g/m*3 15.68 C 0 km/h
1573 21-09-2014 07:00:00 15.40833 C 12.89 g/m*3 15.41 C 0 km/h
1574 21-09-2014 08:00:00 15.69167 C 13.15 g/m*3 15.69 C 0 km/h
1575 21-09-2014 09:00:00 15.96667 C 13.46 g/m*3 15.97 C 0 km/h
Sensor: Nr:Datum:Temp:Abs-Feuchte:Windchill:Wind:
Aussen-T/F 1576 21-09-2014 10:00:00 16.3 C 13.73 g/m*3 16.3 C 0 km/h
1577 21-09-2014 11:00:00 16.575 C 13.96 g/m*3 16.58 C 0 km/h
1578 21-09-2014 12:00:00 16.59167 C 13.83 g/m*3 16.59 C 3.76667 km/h
1579 21-09-2014 13:00:00 16.36667 C 13.26 g/m*3 16.37 C 7.775 km/h
1580 21-09-2014 14:00:00 16.55 C 13.2 g/m*3 16.55 C 5.91667 km/h
1581 21-09-2014 15:00:00 17.01667 C 13.25 g/m*3 17.02 C 7.25 km/h
1582 21-09-2014 16:00:00 16.80833 C 12.8 g/m*3 16.81 C 6.98333 km/h
1583 21-09-2014 17:00:00 16.425 C 12.13 g/m*3 16.43 C 7.50833 km/h
1584 21-09-2014 18:00:00 16.33333 C 11.89 g/m*3 16.33 C 4.55 km/h
1585 21-09-2014 19:00:00 14.925 C 11.57 g/m*3 14.93 C 2.95 km/h
1586 21-09-2014 20:00:00 13.45 C 10.86 g/m*3 13.45 C 0.53333 km/h
1587 21-09-2014 21:00:00 12.63333 C 10.53 g/m*3 12.63 C 0 km/h
1588 21-09-2014 22:00:00 12.15 C 10.18 g/m*3 12.15 C 0 km/h
1589 21-09-2014 23:00:00 11.94167 C 10.04 g/m*3 11.94 C 0 km/h
1590 22-09-2014 00:00:00 12.11667 C 10.05 g/m*3 12.12 C 0 km/h
1591 22-09-2014 01:00:00 11.95833 C 10.07 g/m*3 11.96 C 0 km/h
1592 22-09-2014 02:00:00 11.925 C 9.98 g/m*3 11.93 C 0 km/h
1593 22-09-2014 03:00:00 12.29167 C 10.08 g/m*3 12.29 C 0 km/h
1594 22-09-2014 04:00:00 12.64167 C 10.2 g/m*3 12.64 C 0.80833 km/h
1595 22-09-2014 05:00:00 12.55833 C 10.07 g/m*3 12.56 C 0.66667 km/h
1596 22-09-2014 06:00:00 12.175 C 9.82 g/m*3 12.18 C 3.61667 km/h
1597 22-09-2014 07:00:00 11.26667 C 9.49 g/m*3 11.27 C 0 km/h
1598 22-09-2014 08:00:00 11.525 C 9.53 g/m*3 11.53 C 0.26667 km/h
1599 22-09-2014 09:00:00 12.98333 C 9.5 g/m*3 12.98 C 5.1 km/h
1600 22-09-2014 10:00:00 13.63333 C 9.16 g/m*3 13.63 C 8.71667 km/h
Sensor: Nr:Datum:Temp:Abs-Feuchte:Windchill:Wind:
Aussen-T/F 1601 22-09-2014 11:00:00 13.69167 C 9.28 g/m*3 13.69 C 10.49167 km/h
1602 22-09-2014 12:00:00 14.39167 C 9.34 g/m*3 14.39 C 11.425 km/h
1603 22-09-2014 13:00:00 15.08333 C 9.29 g/m*3 15.08 C 14.76667 km/h
1604 22-09-2014 14:00:00 14.075 C 9.39 g/m*3 14.08 C 19.86667 km/h
1605 22-09-2014 15:00:00 12.89167 C 9.44 g/m*3 12.89 C 9.41667 km/h
1606 22-09-2014 16:00:00 13.75833 C 9.48 g/m*3 13.76 C 9.95 km/h
1607 22-09-2014 17:00:00 14.4 C 9.15 g/m*3 14.4 C 9.28333 km/h
1608 22-09-2014 18:00:00 14.65 C 9.17 g/m*3 14.65 C 5.35833 km/h
1609 22-09-2014 19:00:00 11.9 C 9.36 g/m*3 11.9 C 0.4 km/h
1610 22-09-2014 20:00:00 10.85 C 9.11 g/m*3 10.85 C 0.66667 km/h
1611 22-09-2014 21:00:00 10.25 C 8.87 g/m*3 10.25 C 0 km/h
1612 22-09-2014 22:00:00 9.86667 C 8.75 g/m*3 9.87 C 0 km/h
1613 22-09-2014 23:00:00 9.88333 C 8.74 g/m*3 9.88 C 0 km/h
1614 23-09-2014 00:00:00 9.11667 C 8.43 g/m*3 9.12 C 0 km/h
1615 23-09-2014 01:00:00 8.56667 C 8.19 g/m*3 8.57 C 0 km/h
1616 23-09-2014 02:00:00 8.025 C 7.95 g/m*3 8.03 C 0 km/h
1617 23-09-2014 03:00:00 7.66667 C 7.81 g/m*3 7.67 C 0 km/h
1618 23-09-2014 04:00:00 7.28333 C 7.66 g/m*3 7.28 C 0 km/h
1619 23-09-2014 05:00:00 6.75 C 7.39 g/m*3 6.75 C 0 km/h
1620 23-09-2014 06:00:00 6.875 C 7.5 g/m*3 6.88 C 1.20833 km/h
1621 23-09-2014 07:00:00 6.75833 C 7.43 g/m*3 6.76 C 2.68333 km/h
1622 23-09-2014 08:00:00 6.95 C 7.57 g/m*3 6.95 C 0.93333 km/h
1623 23-09-2014 09:00:00 7.69167 C 7.94 g/m*3 7.69 C 2.13333 km/h
1624 23-09-2014 10:00:00 8.65833 C 8.38 g/m*3 8.66 C 3.73333 km/h
1625 23-09-2014 11:00:00 9.90833 C 8.73 g/m*3 9.91 C 1.2 km/h
Sensor: Nr:Datum:Temp:Abs-Feuchte:Windchill:Wind:
Aussen-T/F 1626 23-09-2014 12:00:00 10.99167 C 9.22 g/m*3 10.99 C 0 km/h
1627 23-09-2014 13:00:00 13.04167 C 9.93 g/m*3 13.04 C 0 km/h
1628 23-09-2014 14:00:00 13.975 C 9.8 g/m*3 13.98 C 0.4 km/h
1629 23-09-2014 15:00:00 14.10833 C 9.34 g/m*3 14.11 C 0 km/h
1630 23-09-2014 16:00:00 16.45 C 8.83 g/m*3 16.45 C 0.53333 km/h
1631 23-09-2014 17:00:00 15.00833 C 9.44 g/m*3 15.01 C 0 km/h
1632 23-09-2014 18:00:00 12.61667 C 9.51 g/m*3 12.62 C 0 km/h
1633 23-09-2014 19:00:00 10.98333 C 8.91 g/m*3 10.98 C 0 km/h
1634 23-09-2014 20:00:00 9.95833 C 8.57 g/m*3 9.96 C 0 km/h
1635 23-09-2014 21:00:00 9.15 C 8.32 g/m*3 9.15 C 0 km/h
1636 23-09-2014 22:00:00 9.00833 C 8.31 g/m*3 9.01 C 0 km/h
1637 23-09-2014 23:00:00 8.33333 C 8 g/m*3 8.33 C 0 km/h
1638 24-09-2014 00:00:00 8.24167 C 8.05 g/m*3 8.24 C 0 km/h
1639 24-09-2014 01:00:00 8.325 C 8.1 g/m*3 8.32 C 0 km/h
1640 24-09-2014 02:00:00 7.96667 C 7.92 g/m*3 7.97 C 0 km/h
1641 24-09-2014 03:00:00 7.69167 C 7.79 g/m*3 7.69 C 0 km/h
1642 24-09-2014 04:00:00 7.55 C 7.74 g/m*3 7.55 C 0 km/h
1643 24-09-2014 05:00:00 7.325 C 7.68 g/m*3 7.33 C 0 km/h
1644 24-09-2014 06:00:00 7.29167 C 7.66 g/m*3 7.29 C 0 km/h
1645 24-09-2014 07:00:00 7.06667 C 7.55 g/m*3 7.07 C 0 km/h
1646 24-09-2014 08:00:00 7.2 C 7.63 g/m*3 7.2 C 0 km/h
1647 24-09-2014 09:00:00 7.7 C 7.89 g/m*3 7.7 C 0 km/h
1648 24-09-2014 10:00:00 8.475 C 8.26 g/m*3 8.48 C 0 km/h
1649 24-09-2014 11:00:00 10.15833 C 8.87 g/m*3 10.16 C 0 km/h
1650 24-09-2014 12:00:00 12.9 C 9.46 g/m*3 12.9 C 0 km/h
Sensor: Nr:Datum:Temp:Abs-Feuchte:Windchill:Wind:
Aussen-T/F 1651 24-09-2014 13:00:00 15.08333 C 9.81 g/m*3 15.08 C 0 km/h
1652 24-09-2014 14:00:00 15.75833 C 10.18 g/m*3 15.76 C 0 km/h
1653 24-09-2014 15:00:00 15.04167 C 10.93 g/m*3 15.04 C 0 km/h
1654 24-09-2014 16:00:00 16.25833 C 10.43 g/m*3 16.26 C 0 km/h
1655 24-09-2014 17:00:00 15.80833 C 10.54 g/m*3 15.81 C 0 km/h
1656 24-09-2014 18:00:00 14.03333 C 10.57 g/m*3 14.03 C 0 km/h
1657 24-09-2014 19:00:00 13.11667 C 10.38 g/m*3 13.12 C 0 km/h
1658 24-09-2014 20:00:00 13.69167 C 9.96 g/m*3 13.69 C 0 km/h
1659 24-09-2014 21:00:00 13.88333 C 10.01 g/m*3 13.88 C 5.5 km/h
1660 24-09-2014 22:00:00 13.04167 C 10.16 g/m*3 13.04 C 3.86667 km/h
1661 24-09-2014 23:00:00 12.9 C 10.08 g/m*3 12.9 C 3.88333 km/h
1662 25-09-2014 00:00:00 12.425 C 9.84 g/m*3 12.43 C 0.4 km/h
1663 25-09-2014 01:00:00 11.925 C 9.62 g/m*3 11.93 C 0.8 km/h
1664 25-09-2014 02:00:00 11.4 C 9.57 g/m*3 11.4 C 1.06667 km/h
1665 25-09-2014 03:00:00 11.39167 C 9.61 g/m*3 11.39 C 1.46667 km/h
1666 25-09-2014 04:00:00 11.41667 C 9.62 g/m*3 11.42 C 0.8 km/h
1667 25-09-2014 05:00:00 11.625 C 9.77 g/m*3 11.63 C 0.53333 km/h
1668 25-09-2014 06:00:00 11.6 C 9.7 g/m*3 11.6 C 0 km/h
1669 25-09-2014 07:00:00 11.60833 C 9.7 g/m*3 11.61 C 1.86667 km/h
1670 25-09-2014 08:00:00 12.125 C 9.83 g/m*3 12.13 C 4.00833 km/h
1671 25-09-2014 09:00:00 12.675 C 10.03 g/m*3 12.68 C 5.89167 km/h
1672 25-09-2014 10:00:00 13.65833 C 10.37 g/m*3 13.66 C 2.275 km/h
1673 25-09-2014 11:00:00 14.46667 C 10.65 g/m*3 14.47 C 4.275 km/h
1674 25-09-2014 12:00:00 15.56667 C 10.7 g/m*3 15.57 C 7.38333 km/h
1675 25-09-2014 13:00:00 16.01667 C 10.74 g/m*3 16.02 C 4.81667 km/h
Sensor: Nr:Datum:Temp:Abs-Feuchte:Windchill:Wind:
Aussen-T/F 1676 25-09-2014 14:00:00 16.35 C 11.19 g/m*3 16.35 C 1.33333 km/h
1677 25-09-2014 15:00:00 16.94167 C 10.68 g/m*3 16.94 C 5.09167 km/h
1678 25-09-2014 16:00:00 17.83333 C 9.72 g/m*3 17.83 C 7.79167 km/h
1679 25-09-2014 17:00:00 17.41667 C 9.77 g/m*3 17.42 C 6.575 km/h
1680 25-09-2014 18:00:00 15.9 C 10.1 g/m*3 15.9 C 3.88333 km/h
1681 25-09-2014 19:00:00 13.675 C 10.16 g/m*3 13.68 C 1.33333 km/h
1682 25-09-2014 20:00:00 13.39167 C 10.16 g/m*3 13.39 C 1.06667 km/h
1683 25-09-2014 21:00:00 13.125 C 10.15 g/m*3 13.13 C 0.66667 km/h
1684 25-09-2014 22:00:00 12.89167 C 10.12 g/m*3 12.89 C 0 km/h
1685 25-09-2014 23:00:00 12.875 C 10.03 g/m*3 12.88 C 1.06667 km/h
1686 26-09-2014 00:00:00 12.46667 C 9.86 g/m*3 12.47 C 0.53333 km/h
1687 26-09-2014 01:00:00 12.74167 C 9.88 g/m*3 12.74 C 0.13333 km/h
1688 26-09-2014 02:00:00 12.46667 C 9.88 g/m*3 12.47 C 0 km/h
1689 26-09-2014 03:00:00 11.90833 C 9.62 g/m*3 11.91 C 0 km/h
1690 26-09-2014 04:00:00 11.10833 C 9.31 g/m*3 11.11 C 0 km/h
1691 26-09-2014 05:00:00 10.68333 C 9.17 g/m*3 10.68 C 0 km/h
1692 26-09-2014 06:00:00 10.65833 C 9.18 g/m*3 10.66 C 0 km/h
1693 26-09-2014 07:00:00 10.925 C 9.3 g/m*3 10.93 C 0 km/h
1694 26-09-2014 08:00:00 11.74167 C 9.62 g/m*3 11.74 C 0 km/h
1695 26-09-2014 09:00:00 12.85 C 9.82 g/m*3 12.85 C 8.06667 km/h
1696 26-09-2014 10:00:00 13.85833 C 10.15 g/m*3 13.86 C 9 km/h
1697 26-09-2014 11:00:00 15.15833 C 10.77 g/m*3 15.16 C 8.20833 km/h
1698 26-09-2014 12:00:00 16.48333 C 11.18 g/m*3 16.48 C 10.48333 km/h
1699 26-09-2014 13:00:00 17.275 C 11.41 g/m*3 17.27 C 8.20833 km/h
1700 26-09-2014 14:00:00 17.975 C 11.71 g/m*3 17.98 C 7.25 km/h
Sensor: Nr:Datum:Temp:Abs-Feuchte:Windchill:Wind:
Aussen-T/F 1701 26-09-2014 15:00:00 17.20833 C 12.26 g/m*3 17.21 C 1.34167 km/h
1702 26-09-2014 16:00:00 16.76667 C 12.79 g/m*3 16.77 C 0.13333 km/h
1703 26-09-2014 17:00:00 16.89167 C 12.88 g/m*3 16.89 C 0.26667 km/h
1704 26-09-2014 18:00:00 16.26667 C 12.6 g/m*3 16.27 C 0.26667 km/h
1705 26-09-2014 19:00:00 15.64167 C 12.29 g/m*3 15.64 C 0.8 km/h
1706 26-09-2014 20:00:00 15.80833 C 12.44 g/m*3 15.81 C 3.46667 km/h
1707 26-09-2014 21:00:00 15.53333 C 12.32 g/m*3 15.53 C 0.8 km/h
1708 26-09-2014 22:00:00 14.925 C 12.13 g/m*3 14.93 C 0 km/h
1709 26-09-2014 23:00:00 14.63333 C 12.02 g/m*3 14.63 C 0 km/h
1710 27-09-2014 00:00:00 14.43333 C 11.89 g/m*3 14.43 C 0 km/h
1711 27-09-2014 01:00:00 14.56667 C 11.99 g/m*3 14.57 C 0 km/h
1712 27-09-2014 02:00:00 14.56667 C 11.99 g/m*3 14.57 C 0 km/h
1713 27-09-2014 03:00:00 14.4 C 11.87 g/m*3 14.4 C 0 km/h
1714 27-09-2014 04:00:00 14.3 C 11.79 g/m*3 14.3 C 0 km/h
1715 27-09-2014 05:00:00 14.18333 C 11.73 g/m*3 14.18 C 0 km/h
1716 27-09-2014 06:00:00 14.1 C 11.77 g/m*3 14.1 C 0 km/h
1717 27-09-2014 07:00:00 14.03333 C 11.72 g/m*3 14.03 C 0 km/h
1718 27-09-2014 08:00:00 14.06667 C 11.77 g/m*3 14.07 C 0 km/h
1719 27-09-2014 09:00:00 14.89167 C 12.28 g/m*3 14.89 C 0 km/h
1720 27-09-2014 10:00:00 16.31667 C 12.74 g/m*3 16.32 C 0 km/h
1721 27-09-2014 11:00:00 17.23333 C 12.59 g/m*3 17.23 C 0 km/h
1722 27-09-2014 12:00:00 17.59167 C 12.6 g/m*3 17.59 C 0 km/h
1723 27-09-2014 13:00:00 18.675 C 13.2 g/m*3 18.68 C 0 km/h
1724 27-09-2014 14:00:00 19.04167 C 13.55 g/m*3 19.04 C 0 km/h
1725 27-09-2014 15:00:00 18.48333 C 13.09 g/m*3 18.48 C 0 km/h
Sensor: Nr:Datum:Temp:Abs-Feuchte:Windchill:Wind:
Aussen-T/F 1726 27-09-2014 16:00:00 19.29167 C 12.78 g/m*3 19.29 C 1.60833 km/h
1727 27-09-2014 17:00:00 18.53333 C 13.16 g/m*3 18.53 C 0.4 km/h
1728 27-09-2014 18:00:00 17.09167 C 12.8 g/m*3 17.09 C 0.4 km/h
1729 27-09-2014 19:00:00 15.675 C 12.05 g/m*3 15.68 C 0.93333 km/h
1730 27-09-2014 20:00:00 14.56667 C 11.56 g/m*3 14.57 C 0 km/h
1731 27-09-2014 21:00:00 13.49167 C 11.02 g/m*3 13.49 C 0 km/h
1732 27-09-2014 22:00:00 12.73333 C 10.68 g/m*3 12.73 C 0 km/h
1733 27-09-2014 23:00:00 12.125 C 10.31 g/m*3 12.13 C 0 km/h
1734 28-09-2014 00:00:00 11.70833 C 10.12 g/m*3 11.71 C 0 km/h
1735 28-09-2014 01:00:00 11.38333 C 9.95 g/m*3 11.38 C 0 km/h
1736 28-09-2014 02:00:00 10.94167 C 9.67 g/m*3 10.94 C 0 km/h
1737 28-09-2014 03:00:00 11 C 9.77 g/m*3 11 C 0 km/h
1738 28-09-2014 04:00:00 10.8 C 9.68 g/m*3 10.8 C 0 km/h
1739 28-09-2014 05:00:00 10.58333 C 9.55 g/m*3 10.58 C 0 km/h
1740 28-09-2014 06:00:00 10.39167 C 9.44 g/m*3 10.39 C 0 km/h
1741 28-09-2014 07:00:00 10.65 C 9.6 g/m*3 10.65 C 0 km/h
1742 28-09-2014 08:00:00 10.775 C 9.67 g/m*3 10.78 C 1.06667 km/h
1743 28-09-2014 09:00:00 11.01667 C 9.82 g/m*3 11.02 C 0.93333 km/h
1744 28-09-2014 10:00:00 12.09167 C 10.54 g/m*3 12.09 C 0.66667 km/h
1745 28-09-2014 11:00:00 13.33333 C 11.37 g/m*3 13.33 C 1.46667 km/h
1746 28-09-2014 12:00:00 15.33333 C 12.38 g/m*3 15.33 C 0.13333 km/h
1747 28-09-2014 13:00:00 17.55833 C 13.7 g/m*3 17.56 C 0 km/h
1748 28-09-2014 14:00:00 18.53333 C 14.41 g/m*3 18.53 C 0.4 km/h
1749 28-09-2014 15:00:00 19.65833 C 14.88 g/m*3 19.66 C 0.53333 km/h
1750 28-09-2014 16:00:00 19.96667 C 15.03 g/m*3 19.97 C 0.26667 km/h
Sensor: Nr:Datum:Temp:Abs-Feuchte:Windchill:Wind:
Aussen-T/F 1751 28-09-2014 17:00:00 19 C 14.69 g/m*3 19 C 1.2 km/h
1752 28-09-2014 18:00:00 18.16667 C 14.23 g/m*3 18.17 C 0.13333 km/h
1753 28-09-2014 19:00:00 16.95833 C 13.51 g/m*3 16.96 C 0.53333 km/h
1754 28-09-2014 20:00:00 16.7 C 13.29 g/m*3 16.7 C 0.8 km/h
1755 28-09-2014 21:00:00 15.78333 C 12.74 g/m*3 15.78 C 0 km/h
1756 28-09-2014 22:00:00 14.88333 C 12.22 g/m*3 14.88 C 0 km/h
1757 28-09-2014 23:00:00 14.24167 C 11.86 g/m*3 14.24 C 0 km/h
1758 29-09-2014 00:00:00 13.75 C 11.52 g/m*3 13.75 C 0 km/h
1759 29-09-2014 01:00:00 13.075 C 11.05 g/m*3 13.08 C 0 km/h
1760 29-09-2014 02:00:00 12.69167 C 10.81 g/m*3 12.69 C 0 km/h
1761 29-09-2014 03:00:00 12.39167 C 10.69 g/m*3 12.39 C 0 km/h
1762 29-09-2014 04:00:00 12.44167 C 10.74 g/m*3 12.44 C 0 km/h
1763 29-09-2014 05:00:00 12.29167 C 10.64 g/m*3 12.29 C 0 km/h
1764 29-09-2014 06:00:00 12.08333 C 10.5 g/m*3 12.08 C 0 km/h
1765 29-09-2014 07:00:00 11.925 C 10.4 g/m*3 11.93 C 0 km/h
1766 29-09-2014 08:00:00 12.275 C 10.64 g/m*3 12.28 C 0 km/h
1767 29-09-2014 09:00:00 12.9 C 11.1 g/m*3 12.9 C 0 km/h
1768 29-09-2014 10:00:00 14.23333 C 12.11 g/m*3 14.23 C 0 km/h
1769 29-09-2014 11:00:00 15.85833 C 13.31 g/m*3 15.86 C 0 km/h
1770 29-09-2014 12:00:00 16.94167 C 13.85 g/m*3 16.94 C 0 km/h
1771 29-09-2014 13:00:00 19.05833 C 14.38 g/m*3 19.06 C 1.2 km/h
1772 29-09-2014 14:00:00 19.6 C 14.42 g/m*3 19.6 C 2.14167 km/h
1773 29-09-2014 15:00:00 20.35 C 14.63 g/m*3 20.35 C 2 km/h
1774 29-09-2014 16:00:00 19.44167 C 14.61 g/m*3 19.44 C 0.4 km/h
1775 29-09-2014 17:00:00 18.34167 C 14.08 g/m*3 18.34 C 0.4 km/h
Sensor: Nr:Datum:Temp:Abs-Feuchte:Windchill:Wind:
Aussen-T/F 1776 29-09-2014 18:00:00 17.65833 C 13.85 g/m*3 17.66 C 0.13333 km/h
1777 29-09-2014 19:00:00 17.18333 C 13.78 g/m*3 17.18 C 0.53333 km/h
1778 29-09-2014 20:00:00 17.01667 C 13.66 g/m*3 17.02 C 1.33333 km/h
1779 29-09-2014 21:00:00 16.4 C 13.45 g/m*3 16.4 C 0.13333 km/h
1780 29-09-2014 22:00:00 16.09167 C 13.29 g/m*3 16.09 C 0 km/h
1781 29-09-2014 23:00:00 15.95833 C 13.28 g/m*3 15.96 C 0 km/h
1782 30-09-2014 00:00:00 15.55833 C 12.96 g/m*3 15.56 C 0 km/h
1783 30-09-2014 01:00:00 15.325 C 12.78 g/m*3 15.33 C 0 km/h
1784 30-09-2014 02:00:00 15.29167 C 12.79 g/m*3 15.29 C 0 km/h
1785 30-09-2014 03:00:00 15.30833 C 12.8 g/m*3 15.31 C 0 km/h
1786 30-09-2014 04:00:00 15.24167 C 12.75 g/m*3 15.24 C 0 km/h
1787 30-09-2014 05:00:00 14.60833 C 12.27 g/m*3 14.61 C 0 km/h
1788 30-09-2014 06:00:00 14.66667 C 12.31 g/m*3 14.67 C 0 km/h
1789 30-09-2014 07:00:00 14.80833 C 12.42 g/m*3 14.81 C 0.53333 km/h
1790 30-09-2014 08:00:00 14.70833 C 12.34 g/m*3 14.71 C 0 km/h
1791 30-09-2014 09:00:00 15.05833 C 12.61 g/m*3 15.06 C 0 km/h
1792 30-09-2014 10:00:00 15.85833 C 13.15 g/m*3 15.86 C 2.275 km/h
1793 30-09-2014 11:00:00 17.725 C 13.62 g/m*3 17.73 C 4.16667 km/h
1794 30-09-2014 12:00:00 19.025 C 13.93 g/m*3 19.02 C 6.45833 km/h
1795 30-09-2014 13:00:00 19.05 C 13.84 g/m*3 19.05 C 3.75833 km/h
1796 30-09-2014 14:00:00 19.8 C 14.09 g/m*3 19.8 C 3.08333 km/h
1797 30-09-2014 15:00:00 20.38333 C 14.21 g/m*3 20.38 C 5.36667 km/h
1798 30-09-2014 16:00:00 20.41667 C 14.33 g/m*3 20.42 C 1.33333 km/h
1799 30-09-2014 17:00:00 19.91667 C 14.85 g/m*3 19.92 C 0.4 km/h
1800 30-09-2014 18:00:00 18.375 C 14.44 g/m*3 18.38 C 0 km/h
Sensor: Nr:Datum:Temp:Abs-Feuchte:Windchill:Wind:
Aussen-T/F 1801 30-09-2014 19:00:00 17.275 C 13.86 g/m*3 17.27 C 0 km/h
1802 30-09-2014 20:00:00 16.94167 C 13.7 g/m*3 16.94 C 0 km/h
1803 30-09-2014 21:00:00 16.70833 C 13.59 g/m*3 16.71 C 0 km/h
1804 30-09-2014 22:00:00 16.2 C 13.23 g/m*3 16.2 C 0 km/h
1805 30-09-2014 23:00:00 15.775 C 13 g/m*3 15.78 C 0 km/h
1806 01-10-2014 00:00:00 15.68333 C 12.97 g/m*3 15.68 C 0 km/h
1807 01-10-2014 01:00:00 15.425 C 12.76 g/m*3 15.43 C 0 km/h
1808 01-10-2014 02:00:00 15.19167 C 12.64 g/m*3 15.19 C 0 km/h
1809 01-10-2014 03:00:00 15.10833 C 12.63 g/m*3 15.11 C 0 km/h
1810 01-10-2014 04:00:00 14.9 C 12.48 g/m*3 14.9 C 0 km/h
1811 01-10-2014 05:00:00 14.75833 C 12.38 g/m*3 14.76 C 0 km/h
1812 01-10-2014 06:00:00 14.6 C 12.26 g/m*3 14.6 C 0 km/h
1813 01-10-2014 07:00:00 14.475 C 12.17 g/m*3 14.48 C 0 km/h
1814 01-10-2014 08:00:00 14.35833 C 12.08 g/m*3 14.36 C 0 km/h
1815 01-10-2014 09:00:00 14.40833 C 12.12 g/m*3 14.41 C 0 km/h
1816 01-10-2014 10:00:00 14.74167 C 12.37 g/m*3 14.74 C 0 km/h
1817 01-10-2014 11:00:00 15.55 C 12.73 g/m*3 15.55 C 0 km/h
1818 01-10-2014 12:00:00 16.36667 C 13.06 g/m*3 16.37 C 0 km/h
1819 01-10-2014 13:00:00 19.2 C 14.25 g/m*3 19.2 C 0 km/h
1820 01-10-2014 14:00:00 19.25 C 14.29 g/m*3 19.25 C 0 km/h
1821 01-10-2014 15:00:00 18.775 C 14.15 g/m*3 18.77 C 0 km/h
1822 01-10-2014 16:00:00 18.89167 C 14.1 g/m*3 18.89 C 0 km/h
1823 01-10-2014 17:00:00 17.73333 C 13.71 g/m*3 17.73 C 0 km/h
1824 01-10-2014 18:00:00 16.75833 C 13.13 g/m*3 16.76 C 0 km/h
1825 01-10-2014 19:00:00 16.25833 C 12.94 g/m*3 16.26 C 0 km/h
Sensor: Nr:Datum:Temp:Abs-Feuchte:Windchill:Wind:
Aussen-T/F 1826 01-10-2014 20:00:00 15.80833 C 12.69 g/m*3 15.81 C 0 km/h
1827 01-10-2014 21:00:00 14.875 C 12.11 g/m*3 14.88 C 0 km/h
1828 01-10-2014 22:00:00 14.16667 C 11.68 g/m*3 14.17 C 0 km/h
1829 01-10-2014 23:00:00 13.78333 C 11.55 g/m*3 13.78 C 0 km/h
1830 02-10-2014 00:00:00 13.5 C 11.35 g/m*3 13.5 C 0 km/h
1831 02-10-2014 01:00:00 13.425 C 11.29 g/m*3 13.43 C 0 km/h
1832 02-10-2014 02:00:00 13.26667 C 11.19 g/m*3 13.27 C 0 km/h
1833 02-10-2014 03:00:00 12.79167 C 10.91 g/m*3 12.79 C 0 km/h
1834 02-10-2014 04:00:00 12.60833 C 10.85 g/m*3 12.61 C 0 km/h
1835 02-10-2014 05:00:00 12.40833 C 10.71 g/m*3 12.41 C 0 km/h
1836 02-10-2014 06:00:00 12.24167 C 10.6 g/m*3 12.24 C 0 km/h
1837 02-10-2014 07:00:00 12.1 C 10.51 g/m*3 12.1 C 0 km/h
1838 02-10-2014 08:00:00 12.18333 C 10.56 g/m*3 12.18 C 0 km/h
1839 02-10-2014 09:00:00 12.34167 C 10.71 g/m*3 12.34 C 0 km/h
1840 02-10-2014 10:00:00 12.71667 C 10.99 g/m*3 12.72 C 0 km/h
1841 02-10-2014 11:00:00 13.36667 C 11.47 g/m*3 13.37 C 0 km/h
1842 02-10-2014 12:00:00 14.40833 C 12.18 g/m*3 14.41 C 0 km/h
1843 02-10-2014 13:00:00 17.19167 C 13.65 g/m*3 17.19 C 0 km/h
1844 02-10-2014 14:00:00 18.13333 C 14.24 g/m*3 18.13 C 0 km/h
1845 02-10-2014 15:00:00 18.325 C 14.11 g/m*3 18.33 C 0 km/h
1846 02-10-2014 16:00:00 18.225 C 14.02 g/m*3 18.23 C 0 km/h
1847 02-10-2014 17:00:00 17.60833 C 13.77 g/m*3 17.61 C 0 km/h
1848 02-10-2014 18:00:00 16.8 C 13.17 g/m*3 16.8 C 0 km/h
1849 02-10-2014 19:00:00 15.71667 C 12.49 g/m*3 15.72 C 0 km/h
1850 02-10-2014 20:00:00 14.89167 C 12.02 g/m*3 14.89 C 0 km/h
Sensor: Nr:Datum:Temp:Abs-Feuchte:Windchill:Wind:
Aussen-T/F 1851 02-10-2014 21:00:00 13.98333 C 11.49 g/m*3 13.98 C 0 km/h
1852 02-10-2014 22:00:00 13.45833 C 11.2 g/m*3 13.46 C 0 km/h
1853 02-10-2014 23:00:00 12.9 C 10.89 g/m*3 12.9 C 0 km/h
1854 03-10-2014 00:00:00 12.55833 C 10.7 g/m*3 12.56 C 0 km/h
1855 03-10-2014 01:00:00 12.03333 C 10.38 g/m*3 12.03 C 0 km/h
1856 03-10-2014 02:00:00 11.63333 C 10.16 g/m*3 11.63 C 0 km/h
1857 03-10-2014 03:00:00 11.73333 C 10.27 g/m*3 11.73 C 0 km/h
1858 03-10-2014 04:00:00 11.90833 C 10.38 g/m*3 11.91 C 0 km/h
1859 03-10-2014 05:00:00 11.975 C 10.43 g/m*3 11.98 C 0 km/h
1860 03-10-2014 06:00:00 11.625 C 10.2 g/m*3 11.63 C 0 km/h
1861 03-10-2014 07:00:00 11.125 C 9.89 g/m*3 11.13 C 0 km/h
1862 03-10-2014 08:00:00 11 C 9.83 g/m*3 11 C 0 km/h
1863 03-10-2014 09:00:00 11.34167 C 10.05 g/m*3 11.34 C 0 km/h
1864 03-10-2014 10:00:00 11.825 C 10.42 g/m*3 11.83 C 0 km/h
1865 03-10-2014 11:00:00 12.85 C 11.12 g/m*3 12.85 C 0 km/h
1866 03-10-2014 12:00:00 13.85 C 11.83 g/m*3 13.85 C 0 km/h
1867 03-10-2014 13:00:00 16.45 C 13.5 g/m*3 16.45 C 0 km/h
1868 03-10-2014 14:00:00 17.90833 C 14.12 g/m*3 17.91 C 0 km/h
1869 03-10-2014 15:00:00 19.15833 C 14.2 g/m*3 19.16 C 1.34167 km/h
1870 03-10-2014 16:00:00 19.18333 C 14.35 g/m*3 19.18 C 0.26667 km/h
1871 03-10-2014 17:00:00 17.60833 C 13.52 g/m*3 17.61 C 0 km/h
1872 03-10-2014 18:00:00 16.5 C 12.79 g/m*3 16.5 C 0 km/h
1873 03-10-2014 19:00:00 15.00833 C 11.87 g/m*3 15.01 C 0 km/h
1874 03-10-2014 20:00:00 14.19167 C 11.41 g/m*3 14.19 C 0 km/h
1875 03-10-2014 21:00:00 13.325 C 10.89 g/m*3 13.33 C 0.13333 km/h
Sensor: Nr:Datum:Temp:Abs-Feuchte:Windchill:Wind:
Aussen-T/F 1876 03-10-2014 22:00:00 12.61667 C 10.54 g/m*3 12.62 C 0 km/h
1877 03-10-2014 23:00:00 12.3 C 10.42 g/m*3 12.3 C 0 km/h
1878 04-10-2014 00:00:00 11.58333 C 9.99 g/m*3 11.58 C 0 km/h
1879 04-10-2014 01:00:00 11.125 C 9.79 g/m*3 11.13 C 0 km/h
1880 04-10-2014 02:00:00 10.69167 C 9.52 g/m*3 10.69 C 0 km/h
1881 04-10-2014 03:00:00 10.48333 C 9.45 g/m*3 10.48 C 0 km/h
1882 04-10-2014 04:00:00 10.49167 C 9.5 g/m*3 10.49 C 0 km/h
1883 04-10-2014 05:00:00 10.18333 C 9.32 g/m*3 10.18 C 0 km/h
1884 04-10-2014 06:00:00 9.94167 C 9.17 g/m*3 9.94 C 0 km/h
1885 04-10-2014 07:00:00 9.9 C 9.15 g/m*3 9.9 C 0 km/h
1886 04-10-2014 08:00:00 9.85833 C 9.13 g/m*3 9.86 C 0 km/h
1887 04-10-2014 09:00:00 10.35833 C 9.5 g/m*3 10.36 C 0 km/h
1888 04-10-2014 10:00:00 11 C 9.89 g/m*3 11 C 0 km/h
1889 04-10-2014 11:00:00 12.03333 C 10.57 g/m*3 12.03 C 0 km/h
1890 04-10-2014 12:00:00 13.5 C 11.58 g/m*3 13.5 C 0 km/h
1891 04-10-2014 13:00:00 16.425 C 12.49 g/m*3 16.43 C 0 km/h
1892 04-10-2014 14:00:00 17.7 C 12.07 g/m*3 17.7 C 0 km/h
1893 04-10-2014 15:00:00 18.8 C 11.6 g/m*3 18.8 C 1.88333 km/h
1894 04-10-2014 16:00:00 18.25 C 12.04 g/m*3 18.25 C 2.4 km/h
1895 04-10-2014 17:00:00 16.45 C 12.14 g/m*3 16.45 C 0.4 km/h
1896 04-10-2014 18:00:00 15.1 C 11.65 g/m*3 15.1 C 0.13333 km/h
1897 04-10-2014 19:00:00 13.98333 C 10.99 g/m*3 13.98 C 0 km/h
1898 04-10-2014 20:00:00 13.53333 C 10.88 g/m*3 13.53 C 0 km/h
1899 04-10-2014 21:00:00 13.10833 C 10.66 g/m*3 13.11 C 0 km/h
1900 04-10-2014 22:00:00 12.50833 C 10.4 g/m*3 12.51 C 0 km/h
Sensor: Nr:Datum:Temp:Abs-Feuchte:Windchill:Wind:
Aussen-T/F 1901 04-10-2014 23:00:00 11.86667 C 10.13 g/m*3 11.87 C 0 km/h
1902 05-10-2014 00:00:00 11.53333 C 9.97 g/m*3 11.53 C 0 km/h
1903 05-10-2014 01:00:00 11.25 C 9.86 g/m*3 11.25 C 0 km/h
1904 05-10-2014 02:00:00 10.91667 C 9.66 g/m*3 10.92 C 0.53333 km/h
1905 05-10-2014 03:00:00 10.71667 C 9.54 g/m*3 10.72 C 0 km/h
1906 05-10-2014 04:00:00 10.69167 C 9.61 g/m*3 10.69 C 0 km/h
1907 05-10-2014 05:00:00 10.975 C 9.79 g/m*3 10.98 C 0 km/h
1908 05-10-2014 06:00:00 10.95833 C 9.78 g/m*3 10.96 C 0 km/h
1909 05-10-2014 07:00:00 10.95 C 9.78 g/m*3 10.95 C 0 km/h
1910 05-10-2014 08:00:00 11.55833 C 10.16 g/m*3 11.56 C 0 km/h
1911 05-10-2014 09:00:00 12.01667 C 10.45 g/m*3 12.02 C 0 km/h
1912 05-10-2014 10:00:00 12.51667 C 10.76 g/m*3 12.52 C 0 km/h
1913 05-10-2014 11:00:00 13.25833 C 10.95 g/m*3 13.26 C 0.53333 km/h
1914 05-10-2014 12:00:00 14.84167 C 11.32 g/m*3 14.84 C 0.66667 km/h
1915 05-10-2014 13:00:00 15.725 C 11.52 g/m*3 15.73 C 2.4 km/h
1916 05-10-2014 14:00:00 15.75 C 11.72 g/m*3 15.75 C 5.225 km/h
1917 05-10-2014 15:00:00 15.81667 C 11.78 g/m*3 15.82 C 3.6 km/h
1918 05-10-2014 16:00:00 15.85833 C 11.73 g/m*3 15.86 C 6.01667 km/h
1919 05-10-2014 17:00:00 15.325 C 11.52 g/m*3 15.33 C 4.54167 km/h
1920 05-10-2014 18:00:00 14.53333 C 11.28 g/m*3 14.53 C 0.93333 km/h
1921 05-10-2014 19:00:00 13.34167 C 10.82 g/m*3 13.34 C 0 km/h
1922 05-10-2014 20:00:00 13.1 C 10.9 g/m*3 13.1 C 0 km/h
1923 05-10-2014 21:00:00 13.14167 C 10.87 g/m*3 13.14 C 0.13333 km/h
1924 05-10-2014 22:00:00 13.05 C 10.81 g/m*3 13.05 C 0 km/h
1925 05-10-2014 23:00:00 12.75833 C 10.69 g/m*3 12.76 C 0 km/h
Sensor: Nr:Datum:Temp:Abs-Feuchte:Windchill:Wind:
Aussen-T/F 1926 06-10-2014 00:00:00 12.53333 C 10.58 g/m*3 12.53 C 0 km/h
1927 06-10-2014 01:00:00 12.33333 C 10.45 g/m*3 12.33 C 0 km/h
1928 06-10-2014 02:00:00 12.20833 C 10.36 g/m*3 12.21 C 0 km/h
1929 06-10-2014 03:00:00 12.2 C 10.36 g/m*3 12.2 C 0 km/h
1930 06-10-2014 04:00:00 12.25833 C 10.4 g/m*3 12.26 C 0 km/h
1931 06-10-2014 05:00:00 12.3 C 10.42 g/m*3 12.3 C 0 km/h
1932 06-10-2014 06:00:00 12.40833 C 10.49 g/m*3 12.41 C 0 km/h
1933 06-10-2014 07:00:00 12.575 C 10.6 g/m*3 12.58 C 0 km/h
1934 06-10-2014 08:00:00 12.84167 C 10.76 g/m*3 12.84 C 0.53333 km/h
1935 06-10-2014 09:00:00 13.35833 C 10.94 g/m*3 13.36 C 2.13333 km/h
1936 06-10-2014 10:00:00 14.04167 C 11.1 g/m*3 14.04 C 5.09167 km/h
1937 06-10-2014 11:00:00 15.025 C 11.49 g/m*3 15.03 C 3.2 km/h
1938 06-10-2014 12:00:00 16.2 C 11.68 g/m*3 16.2 C 4.00833 km/h
1939 06-10-2014 13:00:00 17.31667 C 11.93 g/m*3 17.32 C 5.48333 km/h
1940 06-10-2014 14:00:00 17.73333 C 11.85 g/m*3 17.73 C 6.025 km/h
1941 06-10-2014 15:00:00 18.025 C 11.87 g/m*3 18.02 C 6.7 km/h
1942 06-10-2014 16:00:00 18.5 C 11.97 g/m*3 18.5 C 5.20833 km/h
1943 06-10-2014 17:00:00 17.40833 C 12.05 g/m*3 17.41 C 2.8 km/h
1944 06-10-2014 18:00:00 15.45 C 11.65 g/m*3 15.45 C 1.06667 km/h
1945 06-10-2014 19:00:00 13.83333 C 10.98 g/m*3 13.83 C 0.53333 km/h
1946 06-10-2014 20:00:00 13.16667 C 10.79 g/m*3 13.17 C 0 km/h
1947 06-10-2014 21:00:00 13.51667 C 11.01 g/m*3 13.52 C 0.66667 km/h
1948 06-10-2014 22:00:00 13.74167 C 11 g/m*3 13.74 C 1.475 km/h
1949 06-10-2014 23:00:00 14.225 C 11.05 g/m*3 14.23 C 3.86667 km/h
1950 07-10-2014 00:00:00 14.15 C 11 g/m*3 14.15 C 3.06667 km/h
Sensor: Nr:Datum:Temp:Abs-Feuchte:Windchill:Wind:
Aussen-T/F 1951 07-10-2014 01:00:00 13.96667 C 10.95 g/m*3 13.97 C 3.46667 km/h
1952 07-10-2014 02:00:00 13.85 C 11 g/m*3 13.85 C 2.13333 km/h
1953 07-10-2014 03:00:00 13.44167 C 11.01 g/m*3 13.44 C 2.66667 km/h
1954 07-10-2014 04:00:00 13.3 C 11.07 g/m*3 13.3 C 1.86667 km/h
1955 07-10-2014 05:00:00 13.25833 C 11.14 g/m*3 13.26 C 0.4 km/h
1956 07-10-2014 06:00:00 13.26667 C 11.18 g/m*3 13.27 C 2.26667 km/h
1957 07-10-2014 07:00:00 13.35 C 11.25 g/m*3 13.35 C 1.2 km/h
1958 07-10-2014 08:00:00 13.70833 C 11.56 g/m*3 13.71 C 2.94167 km/h
1959 07-10-2014 09:00:00 14.425 C 12.03 g/m*3 14.43 C 2.13333 km/h
1960 07-10-2014 10:00:00 15.05 C 12.35 g/m*3 15.05 C 7.78333 km/h
1961 07-10-2014 11:00:00 14.925 C 11.82 g/m*3 14.93 C 11.26667 km/h
1962 07-10-2014 12:00:00 14.80833 C 11.61 g/m*3 14.81 C 13.7 km/h
1963 07-10-2014 13:00:00 16.05833 C 11.67 g/m*3 16.06 C 14.36667 km/h
1964 07-10-2014 14:00:00 16.78333 C 11.32 g/m*3 16.78 C 11.7 km/h
1965 07-10-2014 15:00:00 16.04167 C 11.63 g/m*3 16.04 C 3.625 km/h
1966 07-10-2014 16:00:00 14.40833 C 10.74 g/m*3 14.41 C 7.78333 km/h
1967 07-10-2014 17:00:00 13.1 C 9.8 g/m*3 13.1 C 7.78333 km/h
1968 07-10-2014 18:00:00 12.70833 C 9.99 g/m*3 12.71 C 3.06667 km/h
1969 07-10-2014 19:00:00 12.23333 C 10.04 g/m*3 12.23 C 1.46667 km/h
1970 07-10-2014 20:00:00 12.08333 C 9.93 g/m*3 12.08 C 1.46667 km/h
1971 07-10-2014 21:00:00 11.34167 C 9.74 g/m*3 11.34 C 0.13333 km/h
1972 07-10-2014 22:00:00 11.33333 C 9.87 g/m*3 11.33 C 0 km/h
1973 07-10-2014 23:00:00 11.64167 C 10.04 g/m*3 11.64 C 1.2 km/h
1974 08-10-2014 00:00:00 11.50833 C 9.96 g/m*3 11.51 C 0.53333 km/h
1975 08-10-2014 01:00:00 11.36667 C 9.94 g/m*3 11.37 C 0 km/h
Sensor: Nr:Datum:Temp:Abs-Feuchte:Windchill:Wind:
Aussen-T/F 1976 08-10-2014 02:00:00 11.28333 C 9.88 g/m*3 11.28 C 0 km/h
1977 08-10-2014 03:00:00 11.075 C 9.77 g/m*3 11.08 C 0 km/h
1978 08-10-2014 04:00:00 11.05833 C 9.85 g/m*3 11.06 C 0 km/h
1979 08-10-2014 05:00:00 11.13333 C 9.89 g/m*3 11.13 C 0 km/h
1980 08-10-2014 06:00:00 11.25 C 9.96 g/m*3 11.25 C 0 km/h
1981 08-10-2014 07:00:00 11.34167 C 10.02 g/m*3 11.34 C 0 km/h
1982 08-10-2014 08:00:00 11.775 C 10.3 g/m*3 11.78 C 0 km/h
1983 08-10-2014 09:00:00 12.50833 C 10.78 g/m*3 12.51 C 0 km/h
1984 08-10-2014 10:00:00 13.425 C 11.39 g/m*3 13.43 C 0 km/h
1985 08-10-2014 11:00:00 14.39167 C 11.78 g/m*3 14.39 C 0 km/h
1986 08-10-2014 12:00:00 14.29167 C 11.74 g/m*3 14.29 C 0 km/h
1987 08-10-2014 13:00:00 14.14167 C 11.8 g/m*3 14.14 C 0.93333 km/h
1988 08-10-2014 14:00:00 14.17 C 11.86 g/m*3 14.17 C 0.16 km/h
1989 08-10-2014 15:00:00 15.0625 C 12.61 g/m*3 15.06 C 1.6 km/h
1990 08-10-2014 16:00:00 15.21667 C 12.72 g/m*3 15.22 C 0 km/h
1991 08-10-2014 17:00:00 15.2 C 12.72 g/m*3 15.2 C 0 km/h
1992 08-10-2014 19:00:00 15.25556 C 12.76 g/m*3 15.26 C 0.17778 km/h
1993 08-10-2014 20:00:00 15.16667 C 12.69 g/m*3 15.17 C 0 km/h
1994 08-10-2014 21:00:00 15.26667 C 12.88 g/m*3 15.27 C 0.53333 km/h
1995 08-10-2014 22:00:00 15.85833 C 13.37 g/m*3 15.86 C 0.93333 km/h
1996 08-10-2014 23:00:00 16.16667 C 13.62 g/m*3 16.17 C 0.93333 km/h
1997 09-10-2014 00:00:00 16.19167 C 13.65 g/m*3 16.19 C 0 km/h
1998 09-10-2014 01:00:00 16.35833 C 13.78 g/m*3 16.36 C 4.28333 km/h
1999 09-10-2014 02:00:00 16.80833 C 13.8 g/m*3 16.81 C 6.43333 km/h
2000 09-10-2014 03:00:00 16.00833 C 13.21 g/m*3 16.01 C 1.86667 km/h
Sensor: Nr:Datum:Temp:Abs-Feuchte:Windchill:Wind:
Aussen-T/F 2001 09-10-2014 04:00:00 15.61667 C 12.99 g/m*3 15.62 C 1.2 km/h
2002 09-10-2014 05:00:00 15.55 C 12.99 g/m*3 15.55 C 1.2 km/h
2003 09-10-2014 06:00:00 15.6 C 13.03 g/m*3 15.6 C 0.13333 km/h
2004 09-10-2014 07:00:00 15.61111 C 13.04 g/m*3 15.61 C 0 km/h
2005 09-10-2014 11:00:00 16.9 C 14.24 g/m*3 16.9 C 0 km/h
2006 09-10-2014 12:00:00 16.96 C 14.29 g/m*3 16.96 C 0 km/h
2007 09-10-2014 14:00:00 15.54 C 12.67 g/m*3 15.54 C 7.24 km/h
2008 09-10-2014 15:00:00 15.41667 C 12.65 g/m*3 15.42 C 0.53333 km/h
2009 09-10-2014 16:00:00 15.15 C 12.61 g/m*3 15.15 C 0.94167 km/h
2010 09-10-2014 17:00:00 14.94167 C 12.52 g/m*3 14.94 C 0.53333 km/h
2011 09-10-2014 18:00:00 14.8 C 12.41 g/m*3 14.8 C 0 km/h
2012 09-10-2014 19:00:00 13.625 C 11.55 g/m*3 13.63 C 0 km/h
2013 09-10-2014 20:00:00 13.4 C 11.39 g/m*3 13.4 C 0 km/h
2014 09-10-2014 21:00:00 13.65 C 11.57 g/m*3 13.65 C 0 km/h
2015 09-10-2014 22:00:00 12.88333 C 11.02 g/m*3 12.88 C 1.74167 km/h
2016 09-10-2014 23:00:00 12.375 C 10.69 g/m*3 12.38 C 0 km/h
2017 10-10-2014 00:00:00 12.15833 C 10.55 g/m*3 12.16 C 0 km/h
2018 10-10-2014 01:00:00 12.19167 C 10.57 g/m*3 12.19 C 0 km/h
2019 10-10-2014 02:00:00 12.25833 C 10.61 g/m*3 12.26 C 0 km/h
2020 10-10-2014 03:00:00 12.60833 C 10.86 g/m*3 12.61 C 0 km/h
2021 10-10-2014 04:00:00 12.65833 C 10.92 g/m*3 12.66 C 0 km/h
2022 10-10-2014 05:00:00 12.725 C 10.99 g/m*3 12.73 C 0 km/h
2023 10-10-2014 06:00:00 12.69167 C 10.91 g/m*3 12.69 C 0.13333 km/h
2024 10-10-2014 07:00:00 12.83333 C 11.1 g/m*3 12.83 C 0 km/h
2025 10-10-2014 10:00:00 14.06667 C 12.01 g/m*3 14.07 C 0 km/h
Sensor: Nr:Datum:Temp:Abs-Feuchte:Windchill:Wind:
Aussen-T/F 2026 10-10-2014 11:00:00 14.675 C 12.28 g/m*3 14.68 C 0.93333 km/h
2027 10-10-2014 12:00:00 15.99167 C 12.7 g/m*3 15.99 C 0.53333 km/h
2028 10-10-2014 13:00:00 17.03333 C 12.72 g/m*3 17.03 C 1.46667 km/h
2029 10-10-2014 14:00:00 17.25 C 12.93 g/m*3 17.25 C 2.13333 km/h
2030 10-10-2014 15:00:00 16.40833 C 13.11 g/m*3 16.41 C 0 km/h
2031 10-10-2014 16:00:00 15.95833 C 13 g/m*3 15.96 C 0 km/h
2032 10-10-2014 17:00:00 15.75 C 12.93 g/m*3 15.75 C 0 km/h
2033 10-10-2014 18:00:00 15.10833 C 12.52 g/m*3 15.11 C 0 km/h
2034 10-10-2014 19:00:00 14.35833 C 11.96 g/m*3 14.36 C 0 km/h
2035 10-10-2014 20:00:00 14.13333 C 11.84 g/m*3 14.13 C 0 km/h
2036 10-10-2014 21:00:00 13.81667 C 11.66 g/m*3 13.82 C 0 km/h
2037 10-10-2014 22:00:00 13.79167 C 11.67 g/m*3 13.79 C 0 km/h
2038 10-10-2014 23:00:00 13.71667 C 11.62 g/m*3 13.72 C 0 km/h
2039 11-10-2014 00:00:00 13.83333 C 11.7 g/m*3 13.83 C 0 km/h
2040 11-10-2014 01:00:00 14.01667 C 11.83 g/m*3 14.02 C 0 km/h
2041 11-10-2014 02:00:00 13.49167 C 11.46 g/m*3 13.49 C 0 km/h
2042 11-10-2014 03:00:00 13.48333 C 11.49 g/m*3 13.48 C 0 km/h
2043 11-10-2014 04:00:00 13.56667 C 11.56 g/m*3 13.57 C 0 km/h
2044 11-10-2014 05:00:00 13.61667 C 11.61 g/m*3 13.62 C 0.13333 km/h
2045 11-10-2014 06:00:00 13.24167 C 11.36 g/m*3 13.24 C 0 km/h
2046 11-10-2014 07:00:00 13.55 C 11.62 g/m*3 13.55 C 0 km/h
2047 11-10-2014 08:00:00 13.66667 C 11.7 g/m*3 13.67 C 0 km/h
2048 11-10-2014 09:00:00 13.98333 C 11.93 g/m*3 13.98 C 0.26667 km/h
2049 11-10-2014 10:00:00 14.13333 C 12.04 g/m*3 14.13 C 0.4 km/h
2050 11-10-2014 11:00:00 14.66667 C 12.34 g/m*3 14.67 C 0 km/h
Sensor: Nr:Datum:Temp:Abs-Feuchte:Windchill:Wind:
Aussen-T/F 2051 11-10-2014 12:00:00 15.975 C 13.15 g/m*3 15.98 C 1.06667 km/h
2052 11-10-2014 13:00:00 16.81667 C 13.36 g/m*3 16.82 C 0.4 km/h
2053 11-10-2014 14:00:00 17.16667 C 13.71 g/m*3 17.17 C 1.6 km/h
2054 11-10-2014 15:00:00 17.625 C 13.83 g/m*3 17.63 C 1.33333 km/h
2055 11-10-2014 16:00:00 17.71667 C 13.69 g/m*3 17.72 C 0.4 km/h
2056 11-10-2014 17:00:00 17.06667 C 13.4 g/m*3 17.07 C 0.13333 km/h
2057 11-10-2014 18:00:00 15.85833 C 12.57 g/m*3 15.86 C 0.4 km/h
2058 11-10-2014 19:00:00 14.76667 C 12.09 g/m*3 14.77 C 1.33333 km/h
2059 11-10-2014 20:00:00 14.25833 C 11.76 g/m*3 14.26 C 1.06667 km/h
2060 11-10-2014 21:00:00 14.68333 C 11.62 g/m*3 14.68 C 0.8 km/h
2061 11-10-2014 22:00:00 14.03333 C 11.28 g/m*3 14.03 C 1.73333 km/h
2062 11-10-2014 23:00:00 13.46667 C 10.88 g/m*3 13.47 C 0.4 km/h
2063 12-10-2014 00:00:00 12.2 C 10.4 g/m*3 12.2 C 0 km/h
2064 12-10-2014 01:00:00 11.63333 C 10.1 g/m*3 11.63 C 0 km/h
2065 12-10-2014 02:00:00 11.04167 C 9.75 g/m*3 11.04 C 0 km/h
2066 12-10-2014 03:00:00 10.325 C 9.33 g/m*3 10.33 C 0 km/h
2067 12-10-2014 04:00:00 9.975 C 9.19 g/m*3 9.98 C 0.26667 km/h
2068 12-10-2014 05:00:00 10.24167 C 9.35 g/m*3 10.24 C 0.53333 km/h
2069 12-10-2014 06:00:00 9.975 C 9.19 g/m*3 9.98 C 0.4 km/h
2070 12-10-2014 07:00:00 9.725 C 9.06 g/m*3 9.73 C 0.66667 km/h
2071 12-10-2014 08:00:00 9.70833 C 9.12 g/m*3 9.71 C 1.06667 km/h
2072 12-10-2014 09:00:00 9.96667 C 9.28 g/m*3 9.97 C 0.4 km/h
2073 12-10-2014 10:00:00 10.5 C 9.6 g/m*3 10.5 C 1.34167 km/h
2074 12-10-2014 11:00:00 11.45 C 10.19 g/m*3 11.45 C 2.80833 km/h
2075 12-10-2014 12:00:00 13.02727 C 10.95 g/m*3 13.03 C 6.12727 km/h
Sensor: Nr:Datum:Temp:Abs-Feuchte:Windchill:Wind:
Aussen-T/F 2076 12-10-2014 13:00:00 14.65 C 11.17 g/m*3 14.65 C 4.675 km/h
2077 12-10-2014 14:00:00 15.85 C 11.54 g/m*3 15.85 C 3.2 km/h
2078 12-10-2014 15:00:00 17.04167 C 11.82 g/m*3 17.04 C 5.625 km/h
2079 12-10-2014 16:00:00 16.65 C 12.36 g/m*3 16.65 C 1.6 km/h
2080 12-10-2014 17:00:00 15.75 C 11.89 g/m*3 15.75 C 2.15 km/h
2081 12-10-2014 18:00:00 14.4 C 11.65 g/m*3 14.4 C 0 km/h
2082 12-10-2014 19:00:00 13.7 C 11.44 g/m*3 13.7 C 0.13333 km/h
2083 12-10-2014 20:00:00 13.625 C 11.51 g/m*3 13.63 C 0.93333 km/h
2084 12-10-2014 21:00:00 13.89167 C 11.74 g/m*3 13.89 C 3.475 km/h
2085 12-10-2014 22:00:00 14.13333 C 11.89 g/m*3 14.13 C 1.33333 km/h
2086 12-10-2014 23:00:00 14.00833 C 11.83 g/m*3 14.01 C 0 km/h
2087 13-10-2014 00:00:00 13.99167 C 11.81 g/m*3 13.99 C 0 km/h
2088 13-10-2014 01:00:00 14.03333 C 11.85 g/m*3 14.03 C 0.13333 km/h
2089 13-10-2014 02:00:00 13.70833 C 11.61 g/m*3 13.71 C 0 km/h
2090 13-10-2014 03:00:00 13.71667 C 11.66 g/m*3 13.72 C 0 km/h
2091 13-10-2014 04:00:00 13.58333 C 11.62 g/m*3 13.58 C 0 km/h
2092 13-10-2014 05:00:00 13.775 C 11.78 g/m*3 13.78 C 0 km/h
2093 13-10-2014 06:00:00 13.91667 C 11.88 g/m*3 13.92 C 0.13333 km/h
2094 13-10-2014 07:00:00 13.8 C 11.8 g/m*3 13.8 C 0 km/h
2095 13-10-2014 08:00:00 13.88333 C 11.86 g/m*3 13.88 C 1.46667 km/h
2096 13-10-2014 09:00:00 14.78333 C 12.53 g/m*3 14.78 C 0.53333 km/h
2097 13-10-2014 10:00:00 15.54167 C 13.12 g/m*3 15.54 C 0 km/h
2098 13-10-2014 11:00:00 16.075 C 13.55 g/m*3 16.08 C 0.13333 km/h
2099 13-10-2014 12:00:00 16.675 C 14.05 g/m*3 16.68 C 0.66667 km/h
2100 13-10-2014 13:00:00 16.55 C 13.85 g/m*3 16.55 C 0.66667 km/h
Sensor: Nr:Datum:Temp:Abs-Feuchte:Windchill:Wind:
Aussen-T/F 2101 13-10-2014 14:00:00 16.925 C 13.95 g/m*3 16.93 C 0.93333 km/h
2102 13-10-2014 15:00:00 18.06667 C 13.56 g/m*3 18.07 C 3.21667 km/h
2103 13-10-2014 16:00:00 17.81667 C 13.04 g/m*3 17.82 C 4.16667 km/h
2104 13-10-2014 17:00:00 16.63333 C 12.98 g/m*3 16.63 C 0.93333 km/h
2105 13-10-2014 18:00:00 14.94167 C 12.12 g/m*3 14.94 C 0.13333 km/h
2106 13-10-2014 19:00:00 13.9 C 11.51 g/m*3 13.9 C 0.13333 km/h
2107 13-10-2014 20:00:00 13.325 C 11.11 g/m*3 13.33 C 0.26667 km/h
2108 13-10-2014 21:00:00 13.05 C 11.03 g/m*3 13.05 C 0.66667 km/h
2109 13-10-2014 22:00:00 12.55833 C 10.7 g/m*3 12.56 C 0 km/h
2110 13-10-2014 23:00:00 12.03333 C 10.42 g/m*3 12.03 C 0 km/h
2111 14-10-2014 00:00:00 11.69167 C 10.24 g/m*3 11.69 C 0 km/h
2112 14-10-2014 01:00:00 11.425 C 10.07 g/m*3 11.43 C 0 km/h
2113 14-10-2014 02:00:00 10.825 C 9.7 g/m*3 10.83 C 0 km/h
2114 14-10-2014 03:00:00 10.45 C 9.47 g/m*3 10.45 C 0 km/h
2115 14-10-2014 04:00:00 10.075 C 9.25 g/m*3 10.07 C 0 km/h
2116 14-10-2014 05:00:00 10.075 C 9.28 g/m*3 10.07 C 0.13333 km/h
2117 14-10-2014 06:00:00 10.275 C 9.46 g/m*3 10.28 C 0 km/h
2118 14-10-2014 07:00:00 10.29167 C 9.48 g/m*3 10.29 C 0 km/h
2119 14-10-2014 08:00:00 10.13333 C 9.37 g/m*3 10.13 C 0.93333 km/h
2120 14-10-2014 09:00:00 10.60833 C 9.67 g/m*3 10.61 C 0 km/h
2121 14-10-2014 10:00:00 11.6 C 10.29 g/m*3 11.6 C 0.4 km/h
2122 14-10-2014 11:00:00 12.775 C 11.07 g/m*3 12.78 C 0.26667 km/h
2123 14-10-2014 12:00:00 14.19167 C 11.88 g/m*3 14.19 C 0.66667 km/h
2124 14-10-2014 13:00:00 15.51667 C 12.37 g/m*3 15.52 C 1.34167 km/h
2125 14-10-2014 14:00:00 16.8 C 12.1 g/m*3 16.8 C 3.61667 km/h
Sensor: Nr:Datum:Temp:Abs-Feuchte:Windchill:Wind:
Aussen-T/F 2126 14-10-2014 15:00:00 17.25833 C 12.05 g/m*3 17.26 C 4.43333 km/h
2127 14-10-2014 16:00:00 17.23333 C 11.92 g/m*3 17.23 C 3.88333 km/h
2128 14-10-2014 17:00:00 15.65833 C 11.76 g/m*3 15.66 C 0.53333 km/h
2129 14-10-2014 18:00:00 14.10833 C 11.31 g/m*3 14.11 C 0.4 km/h
2130 14-10-2014 19:00:00 13.13333 C 10.82 g/m*3 13.13 C 0 km/h
2131 14-10-2014 20:00:00 12.37273 C 10.47 g/m*3 12.37 C 0 km/h
2132 14-10-2014 21:00:00 11.78333 C 10.18 g/m*3 11.78 C 0 km/h
2133 14-10-2014 22:00:00 11.44167 C 9.98 g/m*3 11.44 C 0 km/h
2134 14-10-2014 23:00:00 11.34167 C 10.01 g/m*3 11.34 C 0 km/h
2135 15-10-2014 00:00:00 11.45833 C 10.1 g/m*3 11.46 C 0.4 km/h
2136 15-10-2014 01:00:00 11.33333 C 10.02 g/m*3 11.33 C 1.46667 km/h
2137 15-10-2014 02:00:00 11.2 C 9.93 g/m*3 11.2 C 2.53333 km/h
2138 15-10-2014 03:00:00 11.025 C 9.82 g/m*3 11.03 C 0.66667 km/h
2139 15-10-2014 04:00:00 10.73333 C 9.62 g/m*3 10.73 C 0.4 km/h
2140 15-10-2014 05:00:00 10.09167 C 9.19 g/m*3 10.09 C 0.4 km/h
2141 15-10-2014 06:00:00 9.36667 C 8.77 g/m*3 9.37 C 1.86667 km/h
2142 15-10-2014 07:00:00 9.225 C 8.77 g/m*3 8.81 C 5.21667 km/h
2143 15-10-2014 08:00:00 9.28333 C 8.8 g/m*3 8.92 C 5.08333 km/h
2144 15-10-2014 09:00:00 9.40833 C 8.87 g/m*3 9.41 C 3.06667 km/h
2145 15-10-2014 10:00:00 9.5 C 8.92 g/m*3 9.5 C 0.93333 km/h
2146 15-10-2014 11:00:00 10.51667 C 9.56 g/m*3 10.52 C 0.26667 km/h
2147 15-10-2014 12:00:00 12.375 C 10.46 g/m*3 12.38 C 2.14167 km/h
2148 15-10-2014 13:00:00 14.18333 C 10.87 g/m*3 14.18 C 0.66667 km/h
2149 15-10-2014 14:00:00 15.30833 C 10.79 g/m*3 15.31 C 3.75833 km/h
2150 15-10-2014 15:00:00 14.58333 C 11.16 g/m*3 14.58 C 0 km/h
Sensor: Nr:Datum:Temp:Abs-Feuchte:Windchill:Wind:
Aussen-T/F 2151 15-10-2014 16:00:00 14.52 C 11.32 g/m*3 14.52 C 0.16 km/h
2152 15-10-2014 17:00:00 14.3 C 11.4 g/m*3 14.3 C 0 km/h
2153 15-10-2014 19:00:00 12.88333 C 10.58 g/m*3 12.88 C 0 km/h
2154 15-10-2014 20:00:00 12.50833 C 10.41 g/m*3 12.51 C 0 km/h
2155 15-10-2014 21:00:00 12.31667 C 10.33 g/m*3 12.32 C 0 km/h
2156 15-10-2014 22:00:00 12.1 C 10.29 g/m*3 12.1 C 0 km/h
2157 15-10-2014 23:00:00 12.11667 C 10.39 g/m*3 12.12 C 0 km/h
2158 16-10-2014 00:00:00 12.425 C 10.65 g/m*3 12.43 C 0.4 km/h
2159 16-10-2014 01:00:00 12.65833 C 10.88 g/m*3 12.66 C 0 km/h
2160 16-10-2014 02:00:00 12.575 C 10.82 g/m*3 12.58 C 0.13333 km/h
2161 16-10-2014 03:00:00 12.475 C 10.76 g/m*3 12.48 C 0 km/h
2162 16-10-2014 04:00:00 12.4 C 10.71 g/m*3 12.4 C 0.13333 km/h
2163 16-10-2014 05:00:00 12.625 C 10.86 g/m*3 12.63 C 0 km/h
2164 16-10-2014 06:00:00 12.69167 C 10.97 g/m*3 12.69 C 0 km/h
2165 16-10-2014 07:00:00 12.81667 C 11.1 g/m*3 12.82 C 0 km/h
2166 16-10-2014 10:00:00 14.46667 C 12.08 g/m*3 14.47 C 4.26667 km/h
2167 16-10-2014 11:00:00 16.00909 C 12.37 g/m*3 16.01 C 7.90909 km/h
2168 16-10-2014 12:00:00 16.45 C 12.46 g/m*3 16.45 C 3.8 km/h
2169 16-10-2014 13:00:00 15.58182 C 12.51 g/m*3 15.58 C 3.5 km/h
2170 16-10-2014 14:00:00 16.55 C 12.98 g/m*3 16.55 C 3.46667 km/h
2171 16-10-2014 15:00:00 16.4 C 12.7 g/m*3 16.4 C 5.65 km/h
2172 16-10-2014 16:00:00 17 C 12.43 g/m*3 17 C 4.1 km/h
2173 16-10-2014 17:00:00 16.66 C 12.38 g/m*3 16.66 C 2.56 km/h
2174 16-10-2014 18:00:00 15.5125 C 11.99 g/m*3 15.51 C 1.6 km/h
2175 16-10-2014 19:00:00 14.625 C 11.94 g/m*3 14.63 C 0.2 km/h
Sensor: Nr:Datum:Temp:Abs-Feuchte:Windchill:Wind:
Aussen-T/F 2176 16-10-2014 20:00:00 14.55833 C 11.76 g/m*3 14.56 C 0.13333 km/h
2177 16-10-2014 21:00:00 14.33333 C 11.53 g/m*3 14.33 C 0 km/h
2178 16-10-2014 22:00:00 13.35833 C 11.13 g/m*3 13.36 C 0 km/h
2179 16-10-2014 23:00:00 12.96667 C 10.98 g/m*3 12.97 C 0 km/h
2180 17-10-2014 00:00:00 12.79167 C 10.92 g/m*3 12.79 C 0 km/h
2181 17-10-2014 01:00:00 12.83333 C 11 g/m*3 12.83 C 0 km/h
2182 17-10-2014 02:00:00 12.825 C 10.99 g/m*3 12.83 C 0 km/h
2183 17-10-2014 03:00:00 12.81667 C 10.99 g/m*3 12.82 C 0 km/h
2184 17-10-2014 04:00:00 12.83333 C 11 g/m*3 12.83 C 0 km/h
2185 17-10-2014 05:00:00 12.9 C 11.05 g/m*3 12.9 C 0 km/h
2186 17-10-2014 06:00:00 13.075 C 11.21 g/m*3 13.08 C 0 km/h
2187 17-10-2014 07:00:00 12.925 C 11.06 g/m*3 12.93 C 0 km/h
2188 17-10-2014 08:00:00 12.86667 C 11.06 g/m*3 12.87 C 0 km/h
2189 17-10-2014 09:00:00 13.70833 C 11.32 g/m*3 13.71 C 4.55833 km/h
2190 17-10-2014 11:00:00 15.1 C 11.83 g/m*3 15.1 C 6.43333 km/h
2191 17-10-2014 12:00:00 15.85833 C 12.1 g/m*3 15.86 C 6.575 km/h
2192 17-10-2014 13:00:00 16.85833 C 12.42 g/m*3 16.86 C 11.025 km/h
2193 17-10-2014 14:00:00 17.13333 C 12.45 g/m*3 17.13 C 10.08333 km/h
2194 17-10-2014 15:00:00 17.075 C 12.25 g/m*3 17.08 C 7.5 km/h
2195 17-10-2014 16:00:00 17.1 C 12.48 g/m*3 17.1 C 4.55833 km/h
2196 17-10-2014 17:00:00 16.49167 C 12.16 g/m*3 16.49 C 2.53333 km/h
2197 17-10-2014 18:00:00 15.46667 C 11.85 g/m*3 15.47 C 0.66667 km/h
2198 17-10-2014 19:00:00 14.44167 C 11.53 g/m*3 14.44 C 0 km/h
2199 17-10-2014 20:00:00 13.16667 C 10.96 g/m*3 13.17 C 0 km/h
2200 17-10-2014 21:00:00 12.33333 C 10.55 g/m*3 12.33 C 0 km/h
Sensor: Nr:Datum:Temp:Abs-Feuchte:Windchill:Wind:
Aussen-T/F 2201 17-10-2014 22:00:00 11.7 C 10.15 g/m*3 11.7 C 0 km/h
2202 17-10-2014 23:00:00 11.25833 C 9.94 g/m*3 11.26 C 0 km/h
2203 18-10-2014 00:00:00 11.1 C 9.87 g/m*3 11.1 C 0 km/h
2204 18-10-2014 01:00:00 10.55 C 9.53 g/m*3 10.55 C 0 km/h
2205 18-10-2014 02:00:00 10.15 C 9.3 g/m*3 10.15 C 0 km/h
2206 18-10-2014 03:00:00 9.775 C 9.08 g/m*3 9.78 C 0 km/h
2207 18-10-2014 04:00:00 9.83333 C 9.11 g/m*3 9.83 C 0 km/h
2208 18-10-2014 05:00:00 9.875 C 9.14 g/m*3 9.88 C 0 km/h
2209 18-10-2014 06:00:00 9.55 C 8.96 g/m*3 9.55 C 0 km/h
2210 18-10-2014 07:00:00 9.925 C 9.23 g/m*3 9.93 C 0 km/h
2211 18-10-2014 08:00:00 10.31667 C 9.49 g/m*3 10.32 C 0 km/h
2212 18-10-2014 09:00:00 10.44167 C 9.57 g/m*3 10.44 C 0 km/h
2213 18-10-2014 10:00:00 10.6 C 9.66 g/m*3 10.6 C 0 km/h
2214 18-10-2014 11:00:00 11.25714 C 10.07 g/m*3 11.26 C 0 km/h
2215 18-10-2014 13:00:00 15.16667 C 12.82 g/m*3 15.17 C 0 km/h
2216 18-10-2014 14:00:00 15.875 C 13.33 g/m*3 15.88 C 0 km/h
2217 18-10-2014 15:00:00 16.45833 C 13.67 g/m*3 16.46 C 0 km/h
2218 18-10-2014 16:00:00 16.75 C 13.72 g/m*3 16.75 C 0 km/h
2219 18-10-2014 17:00:00 16.36667 C 13.37 g/m*3 16.37 C 0 km/h
2220 18-10-2014 18:00:00 15.69167 C 12.79 g/m*3 15.69 C 1.06667 km/h
2221 18-10-2014 19:00:00 15.05 C 12.23 g/m*3 15.05 C 1.73333 km/h
2222 18-10-2014 20:00:00 14.21667 C 11.81 g/m*3 14.22 C 0.53333 km/h
2223 18-10-2014 21:00:00 13.55833 C 11.43 g/m*3 13.56 C 0 km/h
2224 18-10-2014 22:00:00 13.20833 C 11.26 g/m*3 13.21 C 0 km/h
2225 18-10-2014 23:00:00 12.575 C 10.82 g/m*3 12.58 C 0 km/h
Sensor: Nr:Datum:Temp:Abs-Feuchte:Windchill:Wind:
Aussen-T/F 2226 19-10-2014 00:00:00 12.15833 C 10.55 g/m*3 12.16 C 0 km/h
2227 19-10-2014 01:00:00 11.71667 C 10.26 g/m*3 11.72 C 0 km/h
2228 19-10-2014 02:00:00 11.41667 C 10.1 g/m*3 11.42 C 0.26667 km/h
2229 19-10-2014 03:00:00 11.19167 C 9.95 g/m*3 11.19 C 0 km/h
2230 19-10-2014 04:00:00 10.91667 C 9.81 g/m*3 10.92 C 0 km/h
2231 19-10-2014 05:00:00 10.74167 C 9.75 g/m*3 10.74 C 0 km/h
2232 19-10-2014 06:00:00 10.43333 C 9.56 g/m*3 10.43 C 0 km/h
2233 19-10-2014 07:00:00 10.31667 C 9.49 g/m*3 10.32 C 0.13333 km/h
2234 19-10-2014 08:00:00 10.675 C 9.71 g/m*3 10.68 C 0 km/h
2235 19-10-2014 09:00:00 11.05833 C 9.95 g/m*3 11.06 C 0 km/h
2236 19-10-2014 10:00:00 11.55833 C 10.26 g/m*3 11.56 C 0 km/h
2237 19-10-2014 11:00:00 13.34167 C 11.47 g/m*3 13.34 C 0.93333 km/h
2238 19-10-2014 12:00:00 15.36667 C 12.99 g/m*3 15.37 C 6.7 km/h
2239 19-10-2014 13:00:00 18.25 C 14.19 g/m*3 18.25 C 5.75833 km/h
2240 19-10-2014 14:00:00 19.70833 C 14.38 g/m*3 19.71 C 10.89167 km/h
2241 19-10-2014 15:00:00 20.43333 C 14.59 g/m*3 20.43 C 10.2 km/h
2242 19-10-2014 16:00:00 19.74167 C 14.57 g/m*3 19.74 C 5.09167 km/h
2243 19-10-2014 17:00:00 19.98333 C 14.53 g/m*3 19.98 C 6.03333 km/h
2244 19-10-2014 18:00:00 19.5 C 14.25 g/m*3 19.5 C 5.76667 km/h
2245 19-10-2014 19:00:00 18.36667 C 13.92 g/m*3 18.37 C 4.28333 km/h
2246 19-10-2014 20:00:00 18.30833 C 13.75 g/m*3 18.31 C 5.90833 km/h
2247 19-10-2014 21:00:00 19.21667 C 13.7 g/m*3 19.22 C 12.89167 km/h
2248 19-10-2014 22:00:00 18.925 C 13.74 g/m*3 18.93 C 13.15833 km/h
2249 19-10-2014 23:00:00 19.00833 C 13.89 g/m*3 19.01 C 11.81667 km/h
2250 20-10-2014 00:00:00 17.85833 C 13.81 g/m*3 17.86 C 2.41667 km/h
Sensor: Nr:Datum:Temp:Abs-Feuchte:Windchill:Wind:
Aussen-T/F 2251 20-10-2014 01:00:00 18.16667 C 11.88 g/m*3 18.17 C 11.40833 km/h
2252 20-10-2014 02:00:00 16.8 C 11.54 g/m*3 16.8 C 4.41667 km/h
2253 20-10-2014 03:00:00 16.4 C 11.29 g/m*3 16.4 C 4.13333 km/h
2254 20-10-2014 04:00:00 15.29167 C 11.19 g/m*3 15.29 C 2.26667 km/h
2255 20-10-2014 05:00:00 14.85 C 11.12 g/m*3 14.85 C 1.2 km/h
2256 20-10-2014 06:00:00 14.19167 C 11.05 g/m*3 14.19 C 1.2 km/h
2257 20-10-2014 07:00:00 14.2 C 11.22 g/m*3 14.2 C 0.13333 km/h
2258 20-10-2014 08:00:00 13.75833 C 11.13 g/m*3 13.76 C 0.53333 km/h
2259 20-10-2014 09:00:00 14.03333 C 11.36 g/m*3 14.03 C 0 km/h
2260 20-10-2014 10:00:00 14.6 C 11.54 g/m*3 14.6 C 1.24444 km/h
2261 20-10-2014 11:00:00 16.35833 C 11.07 g/m*3 16.36 C 9.53333 km/h
2262 20-10-2014 12:00:00 16.88333 C 10.11 g/m*3 16.88 C 10.88333 km/h
2263 20-10-2014 13:00:00 17.7 C 10.11 g/m*3 17.7 C 9.275 km/h
2264 20-10-2014 14:00:00 17.40833 C 10.06 g/m*3 17.41 C 7.11667 km/h
2265 20-10-2014 15:00:00 17.325 C 10.2 g/m*3 17.33 C 5.09167 km/h
2266 20-10-2014 16:00:00 17.03333 C 10.25 g/m*3 17.03 C 1.6 km/h
2267 20-10-2014 18:00:00 13.88889 C 10.38 g/m*3 13.89 C 1.95556 km/h
2268 20-10-2014 19:00:00 13.18333 C 9.92 g/m*3 13.18 C 2.13333 km/h
2269 20-10-2014 20:00:00 12.2 C 9.69 g/m*3 12.2 C 0.93333 km/h
2270 20-10-2014 21:00:00 11.59167 C 9.53 g/m*3 11.59 C 1.2 km/h
2271 20-10-2014 22:00:00 11.61667 C 9.52 g/m*3 11.62 C 2.00833 km/h
2272 20-10-2014 23:00:00 12.11667 C 9.58 g/m*3 12.12 C 2.66667 km/h
2273 21-10-2014 00:00:00 12.375 C 9.5 g/m*3 12.38 C 3.2 km/h
2274 21-10-2014 01:00:00 10.89167 C 9.16 g/m*3 10.89 C 1.74167 km/h
2275 21-10-2014 02:00:00 11.04167 C 9.2 g/m*3 11.04 C 2.13333 km/h
Sensor: Nr:Datum:Temp:Abs-Feuchte:Windchill:Wind:
Aussen-T/F 2276 21-10-2014 03:00:00 10.775 C 9.1 g/m*3 10.78 C 3.6 km/h
2277 21-10-2014 04:00:00 10.475 C 9.05 g/m*3 9.5 C 8.33333 km/h
2278 21-10-2014 05:00:00 11.01667 C 9.14 g/m*3 11.02 C 4.80833 km/h
2279 21-10-2014 06:00:00 11.5 C 9.3 g/m*3 11.5 C 6.3 km/h
2280 21-10-2014 07:00:00 11.71667 C 9.35 g/m*3 11.72 C 1.6 km/h
2281 21-10-2014 08:00:00 11.71667 C 9.54 g/m*3 11.72 C 0.66667 km/h
2282 21-10-2014 09:00:00 12.35833 C 9.73 g/m*3 12.36 C 1.6 km/h
2283 21-10-2014 10:00:00 13.2 C 9.67 g/m*3 13.2 C 10.08333 km/h
2284 21-10-2014 11:00:00 13.32222 C 9.71 g/m*3 13.32 C 5.71111 km/h
2285 21-10-2014 12:00:00 14.00833 C 9.53 g/m*3 14.01 C 13.81667 km/h
2286 21-10-2014 13:00:00 14.175 C 9.17 g/m*3 14.18 C 17.05 km/h
2287 21-10-2014 14:00:00 13.79167 C 9.65 g/m*3 13.79 C 19.71667 km/h
2288 21-10-2014 15:00:00 13.54167 C 10.28 g/m*3 13.54 C 12.21667 km/h
2289 21-10-2014 16:00:00 13.70833 C 10.64 g/m*3 13.71 C 7.8 km/h
2290 21-10-2014 17:00:00 13.11667 C 9.87 g/m*3 13.12 C 17.84167 km/h
2291 21-10-2014 18:00:00 11.76667 C 8.38 g/m*3 11.77 C 12.61667 km/h
2292 21-10-2014 19:00:00 11.11667 C 7.79 g/m*3 11.12 C 16.23333 km/h
2293 21-10-2014 20:00:00 10.00833 C 7.1 g/m*3 7.87 C 15.43333 km/h
2294 21-10-2014 21:00:00 9.41667 C 7.09 g/m*3 7.52 C 12.625 km/h
2295 21-10-2014 22:00:00 9.2 C 6.99 g/m*3 7.43 C 11.43333 km/h
2296 21-10-2014 23:00:00 8.98333 C 7.01 g/m*3 6.8 C 13.96667 km/h
2297 22-10-2014 00:00:00 8.68333 C 7.12 g/m*3 6.84 C 11.28333 km/h
2298 22-10-2014 01:00:00 8.61667 C 6.97 g/m*3 6.46 C 13.16667 km/h
2299 22-10-2014 02:00:00 8.66667 C 7.14 g/m*3 6.15 C 15.96667 km/h
2300 22-10-2014 03:00:00 7.60833 C 7.19 g/m*3 5.79 C 9.94167 km/h
Sensor: Nr:Datum:Temp:Abs-Feuchte:Windchill:Wind:
Aussen-T/F 2301 22-10-2014 04:00:00 6.84167 C 6.93 g/m*3 4.66 C 11.025 km/h
2302 22-10-2014 05:00:00 7.01667 C 6.75 g/m*3 4.73 C 11.81667 km/h
2303 22-10-2014 06:00:00 7.21667 C 6.73 g/m*3 4.93 C 12.1 km/h
2304 22-10-2014 07:00:00 7.725 C 6.84 g/m*3 5.35 C 13.3 km/h
2305 22-10-2014 08:00:00 8.2 C 6.95 g/m*3 5.84 C 13.96667 km/h
2306 22-10-2014 09:00:00 7.875 C 7.07 g/m*3 4.94 C 17.83333 km/h
2307 22-10-2014 10:00:00 7.20833 C 7.1 g/m*3 5.23 C 10.35 km/h
2308 22-10-2014 11:00:00 7.725 C 7.46 g/m*3 6.26 C 8.33333 km/h
2309 22-10-2014 12:00:00 8.95833 C 7.59 g/m*3 6.92 C 12.89167 km/h
2310 22-10-2014 13:00:00 9.96667 C 7.67 g/m*3 7.8 C 15.56667 km/h
2311 22-10-2014 14:00:00 10.7 C 7.73 g/m*3 8.51 C 17.43333 km/h
2312 22-10-2014 15:00:00 10.83333 C 7.82 g/m*3 8.57 C 18.50833 km/h
2313 22-10-2014 16:00:00 11.25833 C 7.69 g/m*3 11.26 C 19.575 km/h
2314 22-10-2014 17:00:00 11.03333 C 7.81 g/m*3 11.03 C 15.96667 km/h
2315 22-10-2014 18:00:00 10.425 C 7.93 g/m*3 8.84 C 11.95 km/h
2316 22-10-2014 19:00:00 9.38333 C 8.3 g/m*3 9.38 C 3.48333 km/h
2317 22-10-2014 20:00:00 9.31667 C 8.15 g/m*3 8.44 C 6.95833 km/h
2318 22-10-2014 21:00:00 9.39167 C 8.07 g/m*3 8.69 C 6.31667 km/h
2319 22-10-2014 22:00:00 9.46667 C 8.06 g/m*3 8.67 C 6.71667 km/h
2320 22-10-2014 23:00:00 9.10833 C 8.03 g/m*3 9.11 C 2.4 km/h
2321 23-10-2014 00:00:00 8.79167 C 7.97 g/m*3 8.79 C 1.33333 km/h
2322 23-10-2014 01:00:00 9.16667 C 8.12 g/m*3 9.17 C 2.00833 km/h
2323 23-10-2014 02:00:00 9.05 C 8.11 g/m*3 9.05 C 0.93333 km/h
2324 23-10-2014 03:00:00 8.95 C 8.06 g/m*3 8.95 C 0.26667 km/h
2325 23-10-2014 04:00:00 9 C 7.88 g/m*3 9 C 0.93333 km/h
Sensor: Nr:Datum:Temp:Abs-Feuchte:Windchill:Wind:
Aussen-T/F 2326 23-10-2014 05:00:00 8.05833 C 7.6 g/m*3 8.06 C 0.93333 km/h
2327 23-10-2014 06:00:00 8.44167 C 7.83 g/m*3 8.44 C 0.26667 km/h
2328 23-10-2014 07:00:00 8.58333 C 7.95 g/m*3 8.58 C 0.66667 km/h
2329 23-10-2014 08:00:00 8.65833 C 8.05 g/m*3 8.66 C 0.4 km/h
2330 23-10-2014 09:00:00 9.05 C 8.1 g/m*3 9.05 C 2.26667 km/h
2331 23-10-2014 10:00:00 9.425 C 8.29 g/m*3 9.43 C 4.54167 km/h
2332 23-10-2014 11:00:00 10.24167 C 8.51 g/m*3 9.3 C 7.93333 km/h
2333 23-10-2014 12:00:00 11.15833 C 8.6 g/m*3 11.16 C 11.025 km/h
2334 23-10-2014 13:00:00 12.1 C 8.7 g/m*3 12.1 C 8.625 km/h
2335 23-10-2014 14:00:00 12.55833 C 8.71 g/m*3 12.56 C 7.79167 km/h
2336 23-10-2014 15:00:00 12.84167 C 8.9 g/m*3 12.84 C 4.94167 km/h
2337 23-10-2014 16:00:00 12.65833 C 8.84 g/m*3 12.66 C 5.09167 km/h
2338 23-10-2014 17:00:00 12.125 C 8.91 g/m*3 12.13 C 2.8 km/h
2339 23-10-2014 18:00:00 11.7 C 8.96 g/m*3 11.7 C 2.275 km/h
2340 23-10-2014 19:00:00 11.43333 C 8.97 g/m*3 11.43 C 0.66667 km/h
2341 23-10-2014 20:00:00 11.36667 C 9.02 g/m*3 11.37 C 0.4 km/h
2342 23-10-2014 21:00:00 11.35833 C 9.01 g/m*3 11.36 C 1.73333 km/h
2343 23-10-2014 22:00:00 11.33333 C 8.99 g/m*3 11.33 C 3.48333 km/h
2344 23-10-2014 23:00:00 11.10833 C 9.04 g/m*3 11.11 C 0.13333 km/h
2345 24-10-2014 00:00:00 10.725 C 9.08 g/m*3 10.73 C 0 km/h
2346 24-10-2014 01:00:00 10.675 C 9 g/m*3 10.68 C 0.13333 km/h
2347 24-10-2014 02:00:00 10.53333 C 8.98 g/m*3 10.53 C 0 km/h
2348 24-10-2014 03:00:00 10.34167 C 8.97 g/m*3 10.34 C 0 km/h
2349 24-10-2014 04:00:00 9.98333 C 8.82 g/m*3 9.98 C 0 km/h
2350 24-10-2014 05:00:00 9.54167 C 8.65 g/m*3 9.54 C 0.13333 km/h
Sensor: Nr:Datum:Temp:Abs-Feuchte:Windchill:Wind:
Aussen-T/F 2351 24-10-2014 06:00:00 8.83333 C 8.26 g/m*3 8.83 C 0 km/h
2352 24-10-2014 07:00:00 7.95 C 7.87 g/m*3 7.95 C 0 km/h
2353 24-10-2014 08:00:00 7.575 C 7.72 g/m*3 7.58 C 0 km/h
2354 24-10-2014 09:00:00 7.45 C 7.66 g/m*3 7.45 C 0 km/h
2355 24-10-2014 10:00:00 7.95833 C 7.99 g/m*3 7.96 C 0 km/h
2356 24-10-2014 11:00:00 9.00833 C 8.56 g/m*3 9.01 C 0.13333 km/h
2357 24-10-2014 12:00:00 10.71667 C 9.28 g/m*3 10.72 C 0.66667 km/h
2358 24-10-2014 13:00:00 13.15 C 9.4 g/m*3 13.15 C 4.15 km/h
2359 24-10-2014 14:00:00 14.11667 C 9.24 g/m*3 14.12 C 4.00833 km/h
2360 24-10-2014 15:00:00 14.34167 C 8.95 g/m*3 14.34 C 3.46667 km/h
2361 24-10-2014 16:00:00 13.88333 C 9.14 g/m*3 13.88 C 2 km/h
2362 24-10-2014 17:00:00 12.90833 C 9.19 g/m*3 12.91 C 1.73333 km/h
2363 24-10-2014 18:00:00 11.36667 C 8.89 g/m*3 11.37 C 1.06667 km/h
2364 24-10-2014 19:00:00 11.01667 C 8.97 g/m*3 11.02 C 0.66667 km/h
2365 24-10-2014 20:00:00 10.975 C 9.04 g/m*3 10.98 C 0.53333 km/h
2366 24-10-2014 21:00:00 10.59167 C 9.1 g/m*3 10.59 C 0.26667 km/h
2367 24-10-2014 22:00:00 10.30833 C 9.03 g/m*3 10.31 C 0 km/h
2368 24-10-2014 23:00:00 10.23333 C 9.06 g/m*3 10.23 C 0 km/h
2369 25-10-2014 00:00:00 10.28333 C 9.1 g/m*3 10.28 C 0 km/h
2370 25-10-2014 01:00:00 10.08333 C 9.07 g/m*3 10.08 C 0 km/h
2371 25-10-2014 02:00:00 9.875 C 9 g/m*3 9.88 C 0 km/h
2372 25-10-2014 03:00:00 10.05 C 9.14 g/m*3 10.05 C 0 km/h
2373 25-10-2014 04:00:00 10.1 C 9.17 g/m*3 10.1 C 0 km/h
2374 25-10-2014 05:00:00 9.96667 C 9.1 g/m*3 9.97 C 0 km/h
2375 25-10-2014 06:00:00 9.85833 C 8.98 g/m*3 9.86 C 0.4 km/h
Sensor: Nr:Datum:Temp:Abs-Feuchte:Windchill:Wind:
Aussen-T/F 2376 25-10-2014 07:00:00 9.91667 C 8.99 g/m*3 9.92 C 0 km/h
2377 25-10-2014 08:00:00 9.96667 C 9.1 g/m*3 9.97 C 0.26667 km/h
2378 25-10-2014 09:00:00 10.325 C 9.3 g/m*3 10.33 C 1.2 km/h
2379 25-10-2014 10:00:00 10.975 C 9.63 g/m*3 10.98 C 4.55833 km/h
2380 25-10-2014 11:00:00 11.825 C 9.93 g/m*3 11.83 C 8.60833 km/h
2381 25-10-2014 12:00:00 12.4 C 10.05 g/m*3 12.4 C 6.15 km/h
2382 25-10-2014 13:00:00 13.1 C 10.28 g/m*3 13.1 C 4.13333 km/h
2383 25-10-2014 14:00:00 13.39167 C 10.4 g/m*3 13.39 C 6.44167 km/h
2384 25-10-2014 15:00:00 13.325 C 10.39 g/m*3 13.33 C 6.99167 km/h
2385 25-10-2014 16:00:00 13.28333 C 10.44 g/m*3 13.28 C 2.94167 km/h
2386 25-10-2014 17:00:00 13.14167 C 10.43 g/m*3 13.14 C 1.075 km/h
2387 25-10-2014 18:00:00 12.825 C 10.41 g/m*3 12.83 C 0.93333 km/h
2388 25-10-2014 19:00:00 12.64167 C 10.39 g/m*3 12.64 C 0.66667 km/h
2389 25-10-2014 20:00:00 12.50833 C 10.4 g/m*3 12.51 C 0 km/h
2390 25-10-2014 21:00:00 12.35 C 10.44 g/m*3 12.35 C 0 km/h
2391 25-10-2014 22:00:00 12.26667 C 10.47 g/m*3 12.27 C 0 km/h
2392 25-10-2014 23:00:00 12.275 C 10.52 g/m*3 12.28 C 0.26667 km/h
2393 26-10-2014 00:00:00 12.21667 C 10.51 g/m*3 12.22 C 0 km/h
2394 26-10-2014 01:00:00 12.2 C 10.54 g/m*3 12.2 C 0 km/h
2395 26-10-2014 02:00:00 11.98333 C 10.4 g/m*3 11.98 C 0 km/h
2396 26-10-2014 04:00:00 10.87391 C 9.72 g/m*3 10.87 C 0 km/h
2397 26-10-2014 05:00:00 11.01538 C 9.82 g/m*3 11.02 C 0 km/h
2398 26-10-2014 06:00:00 10.8 C 9.69 g/m*3 10.8 C 0.13333 km/h
2399 26-10-2014 07:00:00 10.65833 C 9.6 g/m*3 10.66 C 0.8 km/h
2400 26-10-2014 08:00:00 11 C 9.81 g/m*3 11 C 1.33333 km/h
Sensor: Nr:Datum:Temp:Abs-Feuchte:Windchill:Wind:
Aussen-T/F 2401 26-10-2014 09:00:00 11.61667 C 10.03 g/m*3 11.62 C 3.2 km/h
2402 26-10-2014 10:00:00 12.18333 C 10.04 g/m*3 12.18 C 4.13333 km/h
2403 26-10-2014 11:00:00 12.50833 C 10.12 g/m*3 12.51 C 0.4 km/h
2404 26-10-2014 12:00:00 13.15 C 10.52 g/m*3 13.15 C 0.13333 km/h
2405 26-10-2014 13:00:00 12.875 C 10.24 g/m*3 12.88 C 0.4 km/h
2406 26-10-2014 14:00:00 13.3 C 10.52 g/m*3 13.3 C 0.26667 km/h
2407 26-10-2014 15:00:00 13.16667 C 10.42 g/m*3 13.17 C 0 km/h
2408 26-10-2014 16:00:00 12.65833 C 10.22 g/m*3 12.66 C 0.26667 km/h
2409 26-10-2014 17:00:00 11.74167 C 9.8 g/m*3 11.74 C 0.4 km/h
2410 26-10-2014 18:00:00 10.95833 C 9.49 g/m*3 10.96 C 0 km/h
2411 26-10-2014 19:00:00 10.25 C 9.16 g/m*3 10.25 C 0 km/h
2412 26-10-2014 20:00:00 9.6 C 8.85 g/m*3 9.6 C 0 km/h
2413 26-10-2014 21:00:00 9.10833 C 8.61 g/m*3 9.11 C 0 km/h
2414 26-10-2014 22:00:00 8.925 C 8.57 g/m*3 8.93 C 0.26667 km/h
2415 26-10-2014 23:00:00 8.875 C 8.56 g/m*3 8.88 C 0.13333 km/h
2416 27-10-2014 00:00:00 8.525 C 8.38 g/m*3 8.53 C 0 km/h
2417 27-10-2014 01:00:00 8.39167 C 8.31 g/m*3 8.39 C 0.13333 km/h
2418 27-10-2014 02:00:00 8.08333 C 8.15 g/m*3 8.08 C 0.13333 km/h
2419 27-10-2014 03:00:00 7.99167 C 8.1 g/m*3 7.99 C 0 km/h
2420 27-10-2014 04:00:00 7.85833 C 8.03 g/m*3 7.86 C 0.53333 km/h
2421 27-10-2014 05:00:00 8.01667 C 8.11 g/m*3 8.02 C 0.8 km/h
2422 27-10-2014 06:00:00 8.19167 C 8.27 g/m*3 8.19 C 0.13333 km/h
2423 27-10-2014 07:00:00 8.45 C 8.38 g/m*3 8.45 C 0 km/h
2424 27-10-2014 08:00:00 8.71667 C 8.57 g/m*3 8.72 C 1.2 km/h
2425 27-10-2014 09:00:00 8.8 C 8.62 g/m*3 8.8 C 4.53333 km/h
Sensor: Nr:Datum:Temp:Abs-Feuchte:Windchill:Wind:
Aussen-T/F 2426 27-10-2014 10:00:00 9.05 C 8.76 g/m*3 9.05 C 3.06667 km/h
2427 27-10-2014 11:00:00 9.8 C 9.19 g/m*3 9.8 C 0.66667 km/h
2428 27-10-2014 12:00:00 10.80833 C 9.79 g/m*3 10.81 C 0.66667 km/h
2429 27-10-2014 13:00:00 11.85 C 9.88 g/m*3 11.85 C 4.81667 km/h
2430 27-10-2014 14:00:00 12.59167 C 9.72 g/m*3 12.59 C 3.46667 km/h
2431 27-10-2014 15:00:00 12.21667 C 9.39 g/m*3 12.22 C 2 km/h
2432 27-10-2014 16:00:00 11.14167 C 8.96 g/m*3 11.14 C 3.475 km/h
2433 27-10-2014 17:00:00 9.86667 C 8.49 g/m*3 9.87 C 1.33333 km/h
2434 27-10-2014 18:00:00 8.4 C 8.06 g/m*3 8.4 C 0 km/h
2435 27-10-2014 19:00:00 8.08333 C 7.99 g/m*3 8.08 C 0 km/h
2436 27-10-2014 20:00:00 8.36667 C 8.21 g/m*3 8.37 C 0 km/h
2437 27-10-2014 21:00:00 8.69167 C 8.38 g/m*3 8.69 C 0 km/h
2438 27-10-2014 22:00:00 8.76667 C 8.37 g/m*3 8.77 C 0.66667 km/h
2439 27-10-2014 23:00:00 8.81667 C 8.36 g/m*3 8.82 C 0 km/h
2440 28-10-2014 00:00:00 8.8 C 8.31 g/m*3 8.8 C 0 km/h
2441 28-10-2014 01:00:00 8.775 C 8.23 g/m*3 8.78 C 1.73333 km/h
2442 28-10-2014 02:00:00 8.75 C 7.92 g/m*3 8.75 C 1.6 km/h
2443 28-10-2014 03:00:00 8.44167 C 7.62 g/m*3 8.44 C 2.26667 km/h
2444 28-10-2014 04:00:00 8.275 C 7.53 g/m*3 8.28 C 1.06667 km/h
2445 28-10-2014 05:00:00 8.11667 C 7.36 g/m*3 8.12 C 2.54167 km/h
2446 28-10-2014 06:00:00 7.93333 C 7.35 g/m*3 7.93 C 1.33333 km/h
2447 28-10-2014 07:00:00 7.81667 C 7.31 g/m*3 7.82 C 1.46667 km/h
2448 28-10-2014 08:00:00 7.95 C 7.22 g/m*3 7.95 C 1.6 km/h
2449 28-10-2014 09:00:00 8.26667 C 7.26 g/m*3 8.27 C 3.2 km/h
2450 28-10-2014 10:00:00 8.425 C 7.24 g/m*3 8.43 C 3.46667 km/h
Sensor: Nr:Datum:Temp:Abs-Feuchte:Windchill:Wind:
Aussen-T/F 2451 28-10-2014 11:00:00 8.425 C 7.14 g/m*3 8.43 C 4.28333 km/h
2452 28-10-2014 12:00:00 8.66667 C 7.17 g/m*3 7.58 C 7.39167 km/h
2453 28-10-2014 13:00:00 8.525 C 7.07 g/m*3 7.73 C 6.15833 km/h
2454 28-10-2014 14:00:00 8.45 C 7.07 g/m*3 7.64 C 6.15833 km/h
2455 28-10-2014 15:00:00 8.31667 C 7.12 g/m*3 8.32 C 3.33333 km/h
2456 28-10-2014 16:00:00 8.05 C 7.06 g/m*3 8.05 C 1.46667 km/h
2457 28-10-2014 17:00:00 7.63333 C 6.98 g/m*3 7.63 C 1.33333 km/h
2458 28-10-2014 18:00:00 6.11667 C 6.69 g/m*3 6.12 C 0 km/h
2459 28-10-2014 19:00:00 5.04167 C 6.42 g/m*3 5.04 C 0.53333 km/h
2460 28-10-2014 20:00:00 6.425 C 6.9 g/m*3 6.43 C 1.73333 km/h
2461 28-10-2014 21:00:00 7.4 C 7.16 g/m*3 7.4 C 1.86667 km/h
2462 28-10-2014 22:00:00 7.8 C 7.22 g/m*3 7.8 C 2.14167 km/h
2463 28-10-2014 23:00:00 8.08333 C 7.37 g/m*3 8.08 C 1.46667 km/h
2464 29-10-2014 00:00:00 8.6 C 7.56 g/m*3 8.6 C 1.33333 km/h
2465 29-10-2014 01:00:00 8.79167 C 7.66 g/m*3 8.79 C 1.46667 km/h
2466 29-10-2014 02:00:00 8.85833 C 7.73 g/m*3 8.86 C 0.13333 km/h
2467 29-10-2014 03:00:00 8.70833 C 7.84 g/m*3 8.71 C 0 km/h
2468 29-10-2014 04:00:00 9.1 C 7.97 g/m*3 9.1 C 1.33333 km/h
2469 29-10-2014 05:00:00 8.6 C 7.73 g/m*3 8.6 C 0.4 km/h
2470 29-10-2014 06:00:00 7.11667 C 7.29 g/m*3 7.12 C 0.13333 km/h
2471 29-10-2014 07:00:00 6.04167 C 6.93 g/m*3 6.04 C 0 km/h
2472 29-10-2014 08:00:00 5.81667 C 6.9 g/m*3 5.82 C 0 km/h
2473 29-10-2014 09:00:00 6.89167 C 7.45 g/m*3 6.89 C 0.8 km/h
2474 29-10-2014 10:00:00 8.325 C 7.85 g/m*3 8.32 C 3.08333 km/h
2475 29-10-2014 11:00:00 9.74167 C 8.31 g/m*3 9.74 C 2.81667 km/h
Sensor: Nr:Datum:Temp:Abs-Feuchte:Windchill:Wind:
Aussen-T/F 2476 29-10-2014 12:00:00 10.14167 C 8.64 g/m*3 10.14 C 0.26667 km/h
2477 29-10-2014 13:00:00 11.775 C 8.95 g/m*3 11.78 C 3.74167 km/h
2478 29-10-2014 14:00:00 12.80833 C 9.09 g/m*3 12.81 C 9.00833 km/h
2479 29-10-2014 15:00:00 12.075 C 8.99 g/m*3 12.08 C 6.70833 km/h
2480 29-10-2014 16:00:00 11.71667 C 8.95 g/m*3 11.72 C 6.025 km/h
2481 29-10-2014 17:00:00 11.14167 C 9.1 g/m*3 11.14 C 0.8 km/h
2482 29-10-2014 18:00:00 10.48333 C 9.22 g/m*3 10.48 C 0 km/h
2483 29-10-2014 19:00:00 10.31667 C 9.26 g/m*3 10.32 C 0 km/h
2484 29-10-2014 20:00:00 10.35 C 9.32 g/m*3 10.35 C 0 km/h
2485 29-10-2014 21:00:00 10.4 C 9.35 g/m*3 10.4 C 0 km/h
2486 29-10-2014 22:00:00 10.35 C 9.32 g/m*3 10.35 C 0 km/h
2487 29-10-2014 23:00:00 9.98333 C 9.16 g/m*3 9.98 C 0 km/h
2488 30-10-2014 00:00:00 10.35 C 9.42 g/m*3 10.35 C 0 km/h
2489 30-10-2014 01:00:00 10.4 C 9.44 g/m*3 10.4 C 0 km/h
2490 30-10-2014 02:00:00 10.55 C 9.53 g/m*3 10.55 C 0.13333 km/h
2491 30-10-2014 03:00:00 10.6 C 9.57 g/m*3 10.6 C 0.13333 km/h
2492 30-10-2014 04:00:00 10.6 C 9.57 g/m*3 10.6 C 0 km/h
2493 30-10-2014 05:00:00 10.7 C 9.63 g/m*3 10.7 C 0 km/h
2494 30-10-2014 06:00:00 10.74167 C 9.65 g/m*3 10.74 C 0 km/h
2495 30-10-2014 07:00:00 10.64167 C 9.6 g/m*3 10.64 C 0 km/h
2496 30-10-2014 08:00:00 11 C 9.88 g/m*3 11 C 0 km/h
2497 30-10-2014 09:00:00 11.40833 C 10.14 g/m*3 11.41 C 0 km/h
2498 30-10-2014 10:00:00 11.85833 C 10.4 g/m*3 11.86 C 0 km/h
2499 30-10-2014 11:00:00 12.74167 C 10.91 g/m*3 12.74 C 0.66667 km/h
2500 30-10-2014 12:00:00 13.74167 C 11.2 g/m*3 13.74 C 0.26667 km/h
Sensor: Nr:Datum:Temp:Abs-Feuchte:Windchill:Wind:
Aussen-T/F 2501 30-10-2014 13:00:00 14.575 C 11.44 g/m*3 14.58 C 0.26667 km/h
2502 30-10-2014 14:00:00 15.125 C 11.62 g/m*3 15.13 C 0.53333 km/h
2503 30-10-2014 15:00:00 14.90833 C 11.88 g/m*3 14.91 C 0 km/h
2504 30-10-2014 16:00:00 13.96667 C 11.46 g/m*3 13.97 C 0 km/h
2505 30-10-2014 17:00:00 12.80833 C 10.76 g/m*3 12.81 C 0 km/h
2506 30-10-2014 18:00:00 12.225 C 10.51 g/m*3 12.23 C 0 km/h
2507 30-10-2014 19:00:00 12.58333 C 10.83 g/m*3 12.58 C 0 km/h
2508 30-10-2014 20:00:00 12.73333 C 10.93 g/m*3 12.73 C 0 km/h
2509 30-10-2014 21:00:00 12.33333 C 10.66 g/m*3 12.33 C 0 km/h
2510 30-10-2014 22:00:00 12.11667 C 10.52 g/m*3 12.12 C 0 km/h
2511 30-10-2014 23:00:00 11.84167 C 10.34 g/m*3 11.84 C 0 km/h
2512 31-10-2014 00:00:00 11.68333 C 10.24 g/m*3 11.68 C 0 km/h
2513 31-10-2014 01:00:00 11.16667 C 9.91 g/m*3 11.17 C 0 km/h
2514 31-10-2014 02:00:00 10.55833 C 9.54 g/m*3 10.56 C 0 km/h
2515 31-10-2014 03:00:00 10.35 C 9.42 g/m*3 10.35 C 0.13333 km/h
2516 31-10-2014 04:00:00 10.64167 C 9.61 g/m*3 10.64 C 0 km/h
2517 31-10-2014 05:00:00 10.8 C 9.79 g/m*3 10.8 C 0.53333 km/h
2518 31-10-2014 06:00:00 10.63333 C 9.61 g/m*3 10.63 C 0.13333 km/h
2519 31-10-2014 07:00:00 10.25833 C 9.4 g/m*3 10.26 C 0 km/h
2520 31-10-2014 08:00:00 10.275 C 9.47 g/m*3 10.28 C 0 km/h
2521 31-10-2014 09:00:00 10.69167 C 9.72 g/m*3 10.69 C 0.26667 km/h
2522 31-10-2014 10:00:00 11.79167 C 10.41 g/m*3 11.79 C 0 km/h
2523 31-10-2014 11:00:00 13.14167 C 11.33 g/m*3 13.14 C 0.26667 km/h
2524 31-10-2014 12:00:00 14.71667 C 12.09 g/m*3 14.72 C 1.06667 km/h
2525 31-10-2014 13:00:00 16.3 C 12.58 g/m*3 16.3 C 0 km/h
Sensor: Nr:Datum:Temp:Abs-Feuchte:Windchill:Wind:
Aussen-T/F 2526 31-10-2014 14:00:00 16.21667 C 12.76 g/m*3 16.22 C 0 km/h
2527 31-10-2014 15:00:00 15.85 C 12.69 g/m*3 15.85 C 0 km/h
2528 31-10-2014 16:00:00 14.91667 C 12.06 g/m*3 14.92 C 0 km/h
2529 31-10-2014 17:00:00 13.425 C 11.09 g/m*3 13.43 C 0.13333 km/h
2530 31-10-2014 18:00:00 12.24167 C 10.44 g/m*3 12.24 C 0 km/h
2531 31-10-2014 19:00:00 11.71667 C 10.17 g/m*3 11.72 C 0 km/h
2532 31-10-2014 20:00:00 11.46667 C 10.06 g/m*3 11.47 C 0 km/h
2533 31-10-2014 21:00:00 10.74167 C 9.63 g/m*3 10.74 C 0 km/h
2534 31-10-2014 22:00:00 10.20833 C 9.33 g/m*3 10.21 C 0 km/h
2535 31-10-2014 23:00:00 9.625 C 8.99 g/m*3 9.63 C 0 km/h
2536 01-11-2014 00:00:00 9.51667 C 8.93 g/m*3 9.52 C 0 km/h
2537 01-11-2014 01:00:00 9.55 C 8.95 g/m*3 9.55 C 0.26667 km/h
2538 01-11-2014 02:00:00 9.63333 C 9.03 g/m*3 9.63 C 0 km/h
2539 01-11-2014 03:00:00 9.76667 C 9.17 g/m*3 9.77 C 0 km/h
2540 01-11-2014 04:00:00 9.48333 C 8.94 g/m*3 9.48 C 0.26667 km/h
2541 01-11-2014 05:00:00 9.1 C 8.74 g/m*3 9.1 C 0 km/h
2542 01-11-2014 06:00:00 8.79167 C 8.6 g/m*3 8.79 C 0 km/h
2543 01-11-2014 07:00:00 8.60833 C 8.5 g/m*3 8.61 C 0 km/h
2544 01-11-2014 08:00:00 8.73333 C 8.58 g/m*3 8.73 C 0.26667 km/h
2545 01-11-2014 09:00:00 9.275 C 8.88 g/m*3 9.28 C 0.26667 km/h
2546 01-11-2014 10:00:00 9.95 C 9.27 g/m*3 9.95 C 0.53333 km/h
2547 01-11-2014 11:00:00 11.13333 C 9.99 g/m*3 11.13 C 0.26667 km/h
2548 01-11-2014 12:00:00 12.14167 C 10.64 g/m*3 12.14 C 0.4 km/h
2549 01-11-2014 13:00:00 13.2 C 11.37 g/m*3 13.2 C 0 km/h
2550 01-11-2014 14:00:00 14.425 C 12.26 g/m*3 14.43 C 0.13333 km/h
Sensor: Nr:Datum:Temp:Abs-Feuchte:Windchill:Wind:
Aussen-T/F 2551 01-11-2014 15:00:00 15.275 C 12.88 g/m*3 15.28 C 0 km/h
2552 01-11-2014 16:00:00 14.775 C 12.31 g/m*3 14.78 C 0 km/h
2553 01-11-2014 17:00:00 13.8 C 11.56 g/m*3 13.8 C 0 km/h
2554 01-11-2014 18:00:00 12.74167 C 10.83 g/m*3 12.74 C 0 km/h
2555 01-11-2014 19:00:00 11.75 C 10.18 g/m*3 11.75 C 0 km/h
2556 01-11-2014 20:00:00 11.075 C 9.76 g/m*3 11.08 C 0.13333 km/h
2557 01-11-2014 21:00:00 10.33333 C 9.35 g/m*3 10.33 C 0 km/h
2558 01-11-2014 22:00:00 9.88333 C 9.14 g/m*3 9.88 C 0 km/h
2559 01-11-2014 23:00:00 9.3 C 8.81 g/m*3 9.3 C 0 km/h
2560 02-11-2014 00:00:00 9.04167 C 8.66 g/m*3 9.04 C 0 km/h
2561 02-11-2014 01:00:00 8.9 C 8.58 g/m*3 8.9 C 0 km/h
2562 02-11-2014 02:00:00 8.66667 C 8.46 g/m*3 8.67 C 0 km/h
2563 02-11-2014 03:00:00 8.69167 C 8.47 g/m*3 8.69 C 0 km/h
2564 02-11-2014 04:00:00 8.74167 C 8.53 g/m*3 8.74 C 0 km/h
2565 02-11-2014 05:00:00 8.8 C 8.62 g/m*3 8.8 C 0 km/h
2566 02-11-2014 06:00:00 8.91667 C 8.68 g/m*3 8.92 C 0 km/h
2567 02-11-2014 07:00:00 8.9 C 8.67 g/m*3 8.9 C 0 km/h
2568 02-11-2014 08:00:00 9.20833 C 8.85 g/m*3 9.21 C 0.13333 km/h
2569 02-11-2014 09:00:00 10.11667 C 9.37 g/m*3 10.12 C 0.13333 km/h
2570 02-11-2014 10:00:00 10.65 C 9.69 g/m*3 10.65 C 0 km/h
2571 02-11-2014 11:00:00 11.675 C 10.34 g/m*3 11.68 C 0.53333 km/h
2572 02-11-2014 12:00:00 12.65833 C 10.81 g/m*3 12.66 C 0.26667 km/h
2573 02-11-2014 13:00:00 13.775 C 11.07 g/m*3 13.78 C 1.46667 km/h
2574 02-11-2014 14:00:00 14.81667 C 11.74 g/m*3 14.82 C 1.2 km/h
2575 02-11-2014 15:00:00 14.85833 C 11.81 g/m*3 14.86 C 0.8 km/h
Sensor: Nr:Datum:Temp:Abs-Feuchte:Windchill:Wind:
Aussen-T/F 2576 02-11-2014 16:00:00 13.84167 C 11.32 g/m*3 13.84 C 0 km/h
2577 02-11-2014 17:00:00 12.59167 C 10.64 g/m*3 12.59 C 0.13333 km/h
2578 02-11-2014 18:00:00 12.1 C 10.4 g/m*3 12.1 C 0 km/h
2579 02-11-2014 19:00:00 11.75 C 10.21 g/m*3 11.75 C 0 km/h
2580 02-11-2014 20:00:00 11.59167 C 10.18 g/m*3 11.59 C 0.26667 km/h
2581 02-11-2014 21:00:00 12.2 C 10.58 g/m*3 12.2 C 0.4 km/h
2582 02-11-2014 22:00:00 12.69167 C 10.9 g/m*3 12.69 C 0.93333 km/h
2583 02-11-2014 23:00:00 13.2 C 11.07 g/m*3 13.2 C 1.86667 km/h
2584 03-11-2014 00:00:00 13.45833 C 11.14 g/m*3 13.46 C 2.93333 km/h
2585 03-11-2014 01:00:00 13.38333 C 11.16 g/m*3 13.38 C 1.33333 km/h
2586 03-11-2014 02:00:00 13.55 C 11.27 g/m*3 13.55 C 2.66667 km/h
2587 03-11-2014 03:00:00 13.7 C 11.24 g/m*3 13.7 C 3.08333 km/h
2588 03-11-2014 04:00:00 14.09167 C 11.08 g/m*3 14.09 C 4.425 km/h
2589 03-11-2014 05:00:00 13.375 C 10.68 g/m*3 13.38 C 1.46667 km/h
2590 03-11-2014 06:00:00 13.43333 C 10.51 g/m*3 13.43 C 2.4 km/h
2591 03-11-2014 07:00:00 13.56667 C 10.59 g/m*3 13.57 C 2.26667 km/h
2592 03-11-2014 08:00:00 13.15 C 10.59 g/m*3 13.15 C 4.68333 km/h
2593 03-11-2014 09:00:00 12.68333 C 10.37 g/m*3 12.68 C 3.48333 km/h
2594 03-11-2014 10:00:00 13.05 C 10.86 g/m*3 13.05 C 0 km/h
2595 03-11-2014 11:00:00 13.98333 C 11.55 g/m*3 13.98 C 2.13333 km/h
2596 03-11-2014 12:00:00 15.35 C 11.63 g/m*3 15.35 C 3.06667 km/h
2597 03-11-2014 13:00:00 16.01667 C 11.42 g/m*3 16.02 C 7.36667 km/h
2598 03-11-2014 14:00:00 16 C 11.1 g/m*3 16 C 7.10833 km/h
2599 03-11-2014 15:00:00 15.45833 C 10.7 g/m*3 15.46 C 8.2 km/h
2600 03-11-2014 16:00:00 14.85 C 10.65 g/m*3 14.85 C 4.4 km/h
Sensor: Nr:Datum:Temp:Abs-Feuchte:Windchill:Wind:
Aussen-T/F 2601 03-11-2014 17:00:00 13.7 C 10.3 g/m*3 13.7 C 3.33333 km/h
2602 03-11-2014 18:00:00 13.44167 C 10.06 g/m*3 13.44 C 2.93333 km/h
2603 03-11-2014 19:00:00 13.89167 C 10.09 g/m*3 13.89 C 4.96667 km/h
2604 03-11-2014 20:00:00 14.01667 C 10.2 g/m*3 14.02 C 8.59167 km/h
2605 03-11-2014 21:00:00 13.35833 C 10.32 g/m*3 13.36 C 5.75833 km/h
2606 03-11-2014 22:00:00 12.575 C 10.41 g/m*3 12.58 C 2.94167 km/h
2607 03-11-2014 23:00:00 12.08333 C 10.35 g/m*3 12.08 C 1.46667 km/h
2608 04-11-2014 00:00:00 11.83333 C 10.23 g/m*3 11.83 C 2.4 km/h
2609 04-11-2014 01:00:00 12.125 C 10.39 g/m*3 12.13 C 4.29167 km/h
2610 04-11-2014 02:00:00 11.85 C 10.13 g/m*3 11.85 C 3.74167 km/h
2611 04-11-2014 03:00:00 11.33333 C 9.88 g/m*3 11.33 C 0.93333 km/h
2612 04-11-2014 04:00:00 11.24167 C 9.88 g/m*3 11.24 C 2.94167 km/h
2613 04-11-2014 05:00:00 11.34167 C 9.92 g/m*3 11.34 C 2.95 km/h
2614 04-11-2014 06:00:00 11.24167 C 9.86 g/m*3 11.24 C 2.8 km/h
2615 04-11-2014 07:00:00 11.20833 C 9.87 g/m*3 11.21 C 0.53333 km/h
2616 04-11-2014 08:00:00 11.34167 C 10.02 g/m*3 11.34 C 0 km/h
2617 04-11-2014 09:00:00 11.76667 C 10.28 g/m*3 11.77 C 2.81667 km/h
2618 04-11-2014 10:00:00 12.775 C 10.33 g/m*3 12.78 C 5.23333 km/h
2619 04-11-2014 11:00:00 12.575 C 10.23 g/m*3 12.58 C 1.34167 km/h
2620 04-11-2014 12:00:00 12.35833 C 10.37 g/m*3 12.36 C 0 km/h
2621 04-11-2014 13:00:00 12.325 C 10.21 g/m*3 12.33 C 0.26667 km/h
2622 04-11-2014 14:00:00 12.06667 C 10.21 g/m*3 12.07 C 0 km/h
2623 04-11-2014 15:00:00 11.7 C 10.13 g/m*3 11.7 C 0.13333 km/h
2624 04-11-2014 16:00:00 11.41667 C 9.97 g/m*3 11.42 C 0 km/h
2625 04-11-2014 17:00:00 10.725 C 9.54 g/m*3 10.73 C 0 km/h
Sensor: Nr:Datum:Temp:Abs-Feuchte:Windchill:Wind:
Aussen-T/F 2626 04-11-2014 18:00:00 10.38333 C 9.39 g/m*3 10.38 C 0 km/h
2627 04-11-2014 19:00:00 10.25833 C 9.36 g/m*3 10.26 C 0 km/h
2628 04-11-2014 20:00:00 9.525 C 8.86 g/m*3 9.53 C 0.13333 km/h
2629 04-11-2014 21:00:00 9.3 C 8.77 g/m*3 9.3 C 0 km/h
2630 04-11-2014 22:00:00 9.3 C 8.81 g/m*3 9.3 C 0 km/h
2631 04-11-2014 23:00:00 9.3 C 8.81 g/m*3 9.3 C 0 km/h
2632 05-11-2014 00:00:00 9.3 C 8.81 g/m*3 9.3 C 0 km/h
2633 05-11-2014 01:00:00 9.36667 C 8.84 g/m*3 9.37 C 0 km/h
2634 05-11-2014 02:00:00 9.41667 C 8.87 g/m*3 9.42 C 0.13333 km/h
2635 05-11-2014 03:00:00 9.3 C 8.81 g/m*3 9.3 C 0 km/h
2636 05-11-2014 04:00:00 9.175 C 8.74 g/m*3 9.18 C 0.13333 km/h
2637 05-11-2014 05:00:00 9.075 C 8.68 g/m*3 9.07 C 0 km/h
2638 05-11-2014 06:00:00 8.84167 C 8.55 g/m*3 8.84 C 0 km/h
2639 05-11-2014 07:00:00 8.90833 C 8.6 g/m*3 8.91 C 0 km/h
2640 05-11-2014 08:00:00 8.91667 C 8.59 g/m*3 8.92 C 0 km/h
2641 05-11-2014 09:00:00 8.84167 C 8.55 g/m*3 8.84 C 2.00833 km/h
2642 05-11-2014 10:00:00 9.3 C 8.57 g/m*3 8.85 C 5.35833 km/h
2643 05-11-2014 11:00:00 9.99167 C 8.7 g/m*3 9.28 C 6.725 km/h
2644 05-11-2014 12:00:00 10.49167 C 8.7 g/m*3 9.83 C 6.85 km/h
2645 05-11-2014 13:00:00 10.725 C 8.67 g/m*3 9.9 C 7.78333 km/h
2646 05-11-2014 14:00:00 10.8 C 8.67 g/m*3 10.8 C 2.94167 km/h
2647 05-11-2014 15:00:00 10.79167 C 8.9 g/m*3 10.79 C 0.66667 km/h
2648 05-11-2014 16:00:00 9.825 C 8.8 g/m*3 9.82 C 0 km/h
2649 05-11-2014 17:00:00 9.26667 C 8.61 g/m*3 9.27 C 0 km/h
2650 05-11-2014 18:00:00 8.9 C 8.45 g/m*3 8.9 C 0.4 km/h
Sensor: Nr:Datum:Temp:Abs-Feuchte:Windchill:Wind:
Aussen-T/F 2651 05-11-2014 19:00:00 8.75 C 8.39 g/m*3 8.75 C 0 km/h
2652 05-11-2014 20:00:00 8.60833 C 8.3 g/m*3 8.61 C 0.26667 km/h
2653 05-11-2014 21:00:00 8.625 C 8.21 g/m*3 8.63 C 0.8 km/h
2654 05-11-2014 22:00:00 8.45 C 7.99 g/m*3 8.45 C 2.13333 km/h
2655 05-11-2014 23:00:00 8.30833 C 7.77 g/m*3 8.31 C 2.53333 km/h
2656 06-11-2014 00:00:00 7.625 C 7.52 g/m*3 7.63 C 0.26667 km/h
2657 06-11-2014 01:00:00 7.01667 C 7.34 g/m*3 7.02 C 0.4 km/h
2658 06-11-2014 02:00:00 6.8 C 7.27 g/m*3 6.8 C 0 km/h
2659 06-11-2014 03:00:00 6.71667 C 7.3 g/m*3 6.72 C 0 km/h
2660 06-11-2014 04:00:00 6.6 C 7.24 g/m*3 6.6 C 0 km/h
2661 06-11-2014 05:00:00 6.11667 C 7.01 g/m*3 6.12 C 1.06667 km/h
2662 06-11-2014 06:00:00 5.93333 C 6.88 g/m*3 5.93 C 1.73333 km/h
2663 06-11-2014 07:00:00 5.225 C 6.62 g/m*3 5.23 C 0.13333 km/h
2664 06-11-2014 08:00:00 4.51667 C 6.36 g/m*3 4.52 C 0 km/h
2665 06-11-2014 09:00:00 4.73333 C 6.49 g/m*3 4.73 C 0 km/h
2666 06-11-2014 10:00:00 6.66667 C 7.22 g/m*3 6.67 C 4.025 km/h
2667 06-11-2014 11:00:00 8.61667 C 7.48 g/m*3 8.62 C 4.00833 km/h
2668 06-11-2014 12:00:00 9.2 C 7.59 g/m*3 8.73 C 5.36667 km/h
2669 06-11-2014 13:00:00 8.98333 C 7.6 g/m*3 7.86 C 7.775 km/h
2670 06-11-2014 14:00:00 9.225 C 7.59 g/m*3 7.94 C 8.73333 km/h
2671 06-11-2014 15:00:00 9.29167 C 7.51 g/m*3 9.29 C 4.81667 km/h
2672 06-11-2014 16:00:00 8.95833 C 7.36 g/m*3 8.38 C 5.625 km/h
2673 06-11-2014 17:00:00 8.11667 C 7.36 g/m*3 8.12 C 1.6 km/h
2674 06-11-2014 18:00:00 6.575 C 6.98 g/m*3 6.58 C 1.46667 km/h
2675 06-11-2014 19:00:00 5.49167 C 6.65 g/m*3 5.49 C 0.26667 km/h
Sensor: Nr:Datum:Temp:Abs-Feuchte:Windchill:Wind:
Aussen-T/F 2676 06-11-2014 20:00:00 4.79167 C 6.43 g/m*3 4.79 C 0 km/h
2677 06-11-2014 21:00:00 4.2 C 6.2 g/m*3 4.2 C 0 km/h
2678 06-11-2014 22:00:00 3.625 C 6.01 g/m*3 3.63 C 0 km/h
2679 06-11-2014 23:00:00 3.25833 C 5.87 g/m*3 3.26 C 0 km/h
2680 07-11-2014 00:00:00 3.19167 C 5.85 g/m*3 3.19 C 0.13333 km/h
2681 07-11-2014 01:00:00 3.2 C 5.91 g/m*3 3.2 C 1.2 km/h
2682 07-11-2014 02:00:00 2.725 C 5.72 g/m*3 2.73 C 2.4 km/h
2683 07-11-2014 03:00:00 2.55833 C 5.66 g/m*3 2.56 C 0.4 km/h
2684 07-11-2014 04:00:00 2.44167 C 5.61 g/m*3 2.44 C 0 km/h
2685 07-11-2014 05:00:00 2.59167 C 5.67 g/m*3 2.59 C 0.13333 km/h
2686 07-11-2014 06:00:00 2.60833 C 5.67 g/m*3 2.61 C 0 km/h
2687 07-11-2014 07:00:00 2.15833 C 5.5 g/m*3 2.16 C 0 km/h
2688 07-11-2014 08:00:00 2.675 C 5.73 g/m*3 2.68 C 0 km/h
2689 07-11-2014 09:00:00 3.775 C 6.2 g/m*3 3.78 C 0.66667 km/h
2690 07-11-2014 10:00:00 4.81667 C 6.63 g/m*3 4.82 C 4.95 km/h
2691 07-11-2014 11:00:00 6.01667 C 6.96 g/m*3 6.02 C 3.46667 km/h
2692 07-11-2014 12:00:00 7.325 C 7.1 g/m*3 7.33 C 3.86667 km/h
2693 07-11-2014 13:00:00 8.09167 C 7.22 g/m*3 8.09 C 3.46667 km/h
2694 07-11-2014 14:00:00 8.2 C 7.26 g/m*3 8.2 C 2 km/h
2695 07-11-2014 15:00:00 8.19167 C 7.3 g/m*3 8.19 C 1.73333 km/h
2696 07-11-2014 16:00:00 8.075 C 7.4 g/m*3 8.07 C 1.46667 km/h
2697 07-11-2014 17:00:00 8.15 C 7.53 g/m*3 8.15 C 2 km/h
2698 07-11-2014 18:00:00 8.1 C 7.82 g/m*3 8.1 C 0.8 km/h
2699 07-11-2014 19:00:00 8.13333 C 7.93 g/m*3 8.13 C 0 km/h
2700 07-11-2014 20:00:00 7.925 C 7.84 g/m*3 7.93 C 1.46667 km/h
Sensor: Nr:Datum:Temp:Abs-Feuchte:Windchill:Wind:
Aussen-T/F 2701 07-11-2014 21:00:00 7.60833 C 7.69 g/m*3 7.61 C 0.8 km/h
2702 07-11-2014 22:00:00 7.9 C 7.87 g/m*3 7.9 C 2.80833 km/h
2703 07-11-2014 23:00:00 7.99167 C 7.86 g/m*3 7.99 C 0.4 km/h
2704 08-11-2014 00:00:00 7.18333 C 7.56 g/m*3 7.18 C 0.53333 km/h
2705 08-11-2014 01:00:00 7.49167 C 7.78 g/m*3 7.49 C 0.93333 km/h
2706 08-11-2014 02:00:00 8.80833 C 8.42 g/m*3 8.81 C 1.6 km/h
2707 08-11-2014 03:00:00 9.19167 C 8.37 g/m*3 9.19 C 1.33333 km/h
2708 08-11-2014 04:00:00 8.90833 C 8.32 g/m*3 8.91 C 1.46667 km/h
2709 08-11-2014 05:00:00 9.66667 C 8.44 g/m*3 9.67 C 1.86667 km/h
2710 08-11-2014 06:00:00 9.125 C 8.13 g/m*3 9.13 C 1.46667 km/h
2711 08-11-2014 07:00:00 8.19167 C 7.87 g/m*3 8.19 C 1.33333 km/h
2712 08-11-2014 08:00:00 7.775 C 7.77 g/m*3 7.78 C 1.33333 km/h
2713 08-11-2014 09:00:00 8.55 C 8.03 g/m*3 8.55 C 2.13333 km/h
2714 08-11-2014 10:00:00 9.85 C 7.99 g/m*3 8.68 C 8.74167 km/h
2715 08-11-2014 11:00:00 11.03333 C 8.13 g/m*3 11.03 C 9 km/h
2716 08-11-2014 12:00:00 11.975 C 8.38 g/m*3 11.98 C 5.225 km/h
2717 08-11-2014 13:00:00 12.25833 C 8.84 g/m*3 12.26 C 2.68333 km/h
2718 08-11-2014 14:00:00 12.53333 C 8.93 g/m*3 12.53 C 1.875 km/h
2719 08-11-2014 15:00:00 11.79167 C 8.94 g/m*3 11.79 C 1.33333 km/h
2720 08-11-2014 16:00:00 10.43333 C 8.35 g/m*3 10.43 C 1.875 km/h
2721 08-11-2014 17:00:00 8.325 C 7.84 g/m*3 8.32 C 1.73333 km/h
2722 08-11-2014 18:00:00 7.64167 C 7.61 g/m*3 7.64 C 2.13333 km/h
2723 08-11-2014 19:00:00 6.975 C 7.37 g/m*3 6.98 C 1.6 km/h
2724 08-11-2014 20:00:00 6.75 C 7.32 g/m*3 6.75 C 0.26667 km/h
2725 08-11-2014 21:00:00 6.45833 C 7.25 g/m*3 6.46 C 0.53333 km/h
Sensor: Nr:Datum:Temp:Abs-Feuchte:Windchill:Wind:
Aussen-T/F 2726 08-11-2014 22:00:00 6.55 C 7.3 g/m*3 6.55 C 0.8 km/h
2727 08-11-2014 23:00:00 5.99167 C 7.04 g/m*3 5.99 C 0 km/h
2728 09-11-2014 00:00:00 5.69167 C 6.93 g/m*3 5.69 C 0.13333 km/h
2729 09-11-2014 01:00:00 5.34167 C 6.78 g/m*3 5.34 C 0 km/h
2730 09-11-2014 02:00:00 5.23333 C 6.76 g/m*3 5.23 C 0 km/h
2731 09-11-2014 03:00:00 5.06667 C 6.69 g/m*3 5.07 C 0.26667 km/h
2732 09-11-2014 04:00:00 4.675 C 6.52 g/m*3 4.68 C 0.53333 km/h
2733 09-11-2014 05:00:00 4.40833 C 6.4 g/m*3 4.41 C 0 km/h
2734 09-11-2014 06:00:00 4.125 C 6.28 g/m*3 4.13 C 0.13333 km/h
2735 09-11-2014 07:00:00 3.89167 C 6.19 g/m*3 3.89 C 0 km/h
2736 09-11-2014 08:00:00 4.25833 C 6.34 g/m*3 4.26 C 0 km/h
2737 09-11-2014 09:00:00 4.7 C 6.55 g/m*3 4.7 C 0 km/h
2738 09-11-2014 10:00:00 5.325 C 6.85 g/m*3 5.33 C 0.66667 km/h
2739 09-11-2014 11:00:00 6.075 C 7.22 g/m*3 6.08 C 0.13333 km/h
2740 09-11-2014 12:00:00 7.225 C 7.78 g/m*3 7.23 C 0.4 km/h
2741 09-11-2014 13:00:00 8.6 C 8.51 g/m*3 8.6 C 0.13333 km/h
2742 09-11-2014 14:00:00 9.55 C 8.88 g/m*3 9.55 C 0.53333 km/h
2743 09-11-2014 15:00:00 10.25833 C 8.64 g/m*3 10.26 C 2 km/h
2744 09-11-2014 16:00:00 9.875 C 8.25 g/m*3 9.88 C 1.86667 km/h
2745 09-11-2014 17:00:00 7.91667 C 7.72 g/m*3 7.92 C 0.93333 km/h
2746 09-11-2014 18:00:00 7.78333 C 7.73 g/m*3 7.78 C 1.6 km/h
2747 09-11-2014 19:00:00 7.45833 C 7.66 g/m*3 7.46 C 0.13333 km/h
2748 09-11-2014 20:00:00 7.83333 C 7.93 g/m*3 7.83 C 0.26667 km/h
2749 09-11-2014 21:00:00 7.875 C 7.93 g/m*3 7.88 C 0.13333 km/h
2750 09-11-2014 22:00:00 7.875 C 7.95 g/m*3 7.88 C 0 km/h
Sensor: Nr:Datum:Temp:Abs-Feuchte:Windchill:Wind:
Aussen-T/F 2751 09-11-2014 23:00:00 7.9 C 7.97 g/m*3 7.9 C 0 km/h
2752 10-11-2014 00:00:00 8.08333 C 8.06 g/m*3 8.08 C 0 km/h
2753 10-11-2014 01:00:00 8.05 C 8.05 g/m*3 8.05 C 0 km/h
2754 10-11-2014 02:00:00 7.9 C 8.03 g/m*3 7.9 C 0 km/h
2755 10-11-2014 03:00:00 7.99167 C 8.1 g/m*3 7.99 C 0 km/h
2756 10-11-2014 04:00:00 8.18333 C 8.2 g/m*3 8.18 C 0 km/h
2757 10-11-2014 05:00:00 8.26667 C 8.24 g/m*3 8.27 C 0.4 km/h
2758 10-11-2014 06:00:00 8.44167 C 8.34 g/m*3 8.44 C 0.4 km/h
2759 10-11-2014 07:00:00 8.56667 C 8.4 g/m*3 8.57 C 2.66667 km/h
2760 10-11-2014 08:00:00 8.775 C 8.52 g/m*3 8.78 C 0.4 km/h
2761 10-11-2014 09:00:00 9.3 C 8.81 g/m*3 9.3 C 0.53333 km/h
2762 10-11-2014 10:00:00 9.95833 C 9.17 g/m*3 9.96 C 1.33333 km/h
2763 10-11-2014 11:00:00 10.81667 C 9.39 g/m*3 10.82 C 1.06667 km/h
2764 10-11-2014 12:00:00 11.71667 C 9.54 g/m*3 11.72 C 0.66667 km/h
2765 10-11-2014 13:00:00 11.95833 C 9.48 g/m*3 11.96 C 0.93333 km/h
2766 10-11-2014 14:00:00 11.78333 C 9.64 g/m*3 11.78 C 0.26667 km/h
2767 10-11-2014 15:00:00 11.275 C 9.62 g/m*3 11.28 C 0 km/h
2768 10-11-2014 16:00:00 10.625 C 9.3 g/m*3 10.63 C 2.13333 km/h
2769 10-11-2014 17:00:00 8.90833 C 8.39 g/m*3 8.91 C 3.06667 km/h
2770 10-11-2014 18:00:00 7.925 C 7.94 g/m*3 7.93 C 1.06667 km/h
2771 10-11-2014 19:00:00 7.30833 C 7.67 g/m*3 7.31 C 0.8 km/h
2772 10-11-2014 20:00:00 6.825 C 7.48 g/m*3 6.83 C 0.8 km/h
2773 10-11-2014 21:00:00 6.50833 C 7.35 g/m*3 6.51 C 0 km/h
2774 10-11-2014 22:00:00 5.85 C 7.04 g/m*3 5.85 C 0 km/h
2775 10-11-2014 23:00:00 5.31667 C 6.8 g/m*3 5.32 C 1.06667 km/h
Sensor: Nr:Datum:Temp:Abs-Feuchte:Windchill:Wind:
Aussen-T/F 2776 11-11-2014 00:00:00 5.46667 C 6.87 g/m*3 5.47 C 0.26667 km/h
2777 11-11-2014 01:00:00 5.55833 C 6.92 g/m*3 5.56 C 0 km/h
2778 11-11-2014 02:00:00 6.04167 C 7.17 g/m*3 6.04 C 0 km/h
2779 11-11-2014 03:00:00 6.25 C 7.3 g/m*3 6.25 C 0 km/h
2780 11-11-2014 04:00:00 7.31667 C 7.83 g/m*3 7.32 C 0 km/h
2781 11-11-2014 05:00:00 7.225 C 7.78 g/m*3 7.23 C 0.4 km/h
2782 11-11-2014 06:00:00 7.275 C 7.81 g/m*3 7.28 C 1.2 km/h
2783 11-11-2014 07:00:00 7.725 C 8.04 g/m*3 7.73 C 0.8 km/h
2784 11-11-2014 08:00:00 7.85 C 8.11 g/m*3 7.85 C 0 km/h
2785 11-11-2014 09:00:00 8.54167 C 8.48 g/m*3 8.54 C 0.26667 km/h
2786 11-11-2014 10:00:00 8.81667 C 8.63 g/m*3 8.82 C 2.4 km/h
2787 11-11-2014 11:00:00 9.14286 C 8.86 g/m*3 9.14 C 2.05714 km/h
2788 11-11-2014 12:00:00 10.90909 C 9.12 g/m*3 10.91 C 4.52727 km/h
2789 11-11-2014 13:00:00 11.41667 C 9.08 g/m*3 11.42 C 5.08333 km/h
2790 11-11-2014 14:00:00 11.61667 C 8.95 g/m*3 11.62 C 5.35 km/h
2791 11-11-2014 15:00:00 10.83333 C 8.55 g/m*3 10.29 C 6.58333 km/h
2792 11-11-2014 16:00:00 9.80833 C 8.22 g/m*3 9.81 C 3.46667 km/h
2793 11-11-2014 17:00:00 9.2 C 8.13 g/m*3 9.2 C 0.66667 km/h
2794 11-11-2014 18:00:00 9.04167 C 8.15 g/m*3 9.04 C 0.66667 km/h
2795 11-11-2014 19:00:00 8.85833 C 8.17 g/m*3 8.86 C 0.26667 km/h
2796 11-11-2014 20:00:00 8.8 C 8.17 g/m*3 8.8 C 0.4 km/h
2797 11-11-2014 21:00:00 8.8 C 8.21 g/m*3 8.8 C 0 km/h
2798 11-11-2014 22:00:00 8.7 C 8.22 g/m*3 8.7 C 0 km/h
2799 11-11-2014 23:00:00 8.7 C 8.2 g/m*3 8.7 C 0 km/h
2800 12-11-2014 00:00:00 8.65 C 8.19 g/m*3 8.65 C 0 km/h
Sensor: Nr:Datum:Temp:Abs-Feuchte:Windchill:Wind:
Aussen-T/F 2801 12-11-2014 01:00:00 8.40833 C 8.11 g/m*3 8.41 C 0 km/h
2802 12-11-2014 02:00:00 8.39167 C 8.14 g/m*3 8.39 C 0.26667 km/h
2803 12-11-2014 03:00:00 8.49167 C 8.19 g/m*3 8.49 C 0 km/h
2804 12-11-2014 04:00:00 8.675 C 8.25 g/m*3 8.68 C 0.26667 km/h
2805 12-11-2014 05:00:00 8.7 C 8.22 g/m*3 8.7 C 0.53333 km/h
2806 12-11-2014 06:00:00 8.7 C 8.22 g/m*3 8.7 C 0.13333 km/h
2807 12-11-2014 07:00:00 8.7 C 8.22 g/m*3 8.7 C 0.13333 km/h
2808 12-11-2014 08:00:00 8.9 C 8.26 g/m*3 8.9 C 0.66667 km/h
2809 12-11-2014 09:00:00 9.275 C 8.37 g/m*3 9.28 C 1.33333 km/h
2810 12-11-2014 10:00:00 9.4 C 8.42 g/m*3 9.4 C 2 km/h
2811 12-11-2014 11:00:00 9.63333 C 8.54 g/m*3 9.63 C 0.4 km/h
2812 12-11-2014 12:00:00 10.20833 C 8.8 g/m*3 10.21 C 0.53333 km/h
2813 12-11-2014 13:00:00 10.91667 C 9.06 g/m*3 10.92 C 0.26667 km/h
2814 12-11-2014 14:00:00 11.16667 C 9.27 g/m*3 11.17 C 0 km/h
2815 12-11-2014 15:00:00 10.925 C 9.41 g/m*3 10.93 C 0 km/h
2816 12-11-2014 16:00:00 10.45833 C 9.33 g/m*3 10.46 C 0.13333 km/h
2817 12-11-2014 17:00:00 10.15833 C 9.21 g/m*3 10.16 C 1.33333 km/h
2818 12-11-2014 18:00:00 10.03333 C 9.15 g/m*3 10.03 C 1.06667 km/h
2819 12-11-2014 19:00:00 9.88333 C 9.1 g/m*3 9.88 C 0.13333 km/h
2820 12-11-2014 20:00:00 9.78333 C 9.05 g/m*3 9.78 C 0.53333 km/h
2821 12-11-2014 21:00:00 9.68333 C 9.02 g/m*3 9.68 C 0 km/h
2822 12-11-2014 22:00:00 9.575 C 8.96 g/m*3 9.57 C 0.26667 km/h
2823 12-11-2014 23:00:00 9.30833 C 8.81 g/m*3 9.31 C 0.26667 km/h
2824 13-11-2014 00:00:00 9.36667 C 8.84 g/m*3 9.37 C 0 km/h
2825 13-11-2014 01:00:00 9.28333 C 8.8 g/m*3 9.28 C 0 km/h
Sensor: Nr:Datum:Temp:Abs-Feuchte:Windchill:Wind:
Aussen-T/F 2826 13-11-2014 02:00:00 9.20833 C 8.76 g/m*3 9.21 C 0 km/h
2827 13-11-2014 03:00:00 9.3 C 8.81 g/m*3 9.3 C 0 km/h
2828 13-11-2014 04:00:00 9.10833 C 8.7 g/m*3 9.11 C 0 km/h
2829 13-11-2014 05:00:00 9.00833 C 8.65 g/m*3 9.01 C 1.46667 km/h
2830 13-11-2014 06:00:00 8.975 C 8.64 g/m*3 8.98 C 4.40833 km/h
2831 13-11-2014 07:00:00 8.75 C 8.5 g/m*3 8.75 C 1.46667 km/h
2832 13-11-2014 08:00:00 8.28333 C 8.25 g/m*3 8.28 C 3.06667 km/h
2833 13-11-2014 09:00:00 8.46667 C 8.35 g/m*3 8.47 C 3.88333 km/h
2834 13-11-2014 10:00:00 8.44167 C 8.34 g/m*3 7.32 C 7.4 km/h
2835 13-11-2014 11:00:00 8.88333 C 8.56 g/m*3 8.88 C 3.74167 km/h
2836 13-11-2014 12:00:00 9.79167 C 8.95 g/m*3 9.79 C 2.53333 km/h
2837 13-11-2014 13:00:00 10.36667 C 9.15 g/m*3 10.37 C 0.8 km/h
2838 13-11-2014 14:00:00 10.775 C 9.29 g/m*3 10.78 C 1.6 km/h
2839 13-11-2014 15:00:00 10.8 C 9.29 g/m*3 10.8 C 1.2 km/h
2840 13-11-2014 16:00:00 10.63333 C 9.26 g/m*3 10.63 C 0 km/h
2841 13-11-2014 17:00:00 10.31667 C 9.23 g/m*3 10.32 C 0.8 km/h
2842 13-11-2014 18:00:00 10.3 C 9.28 g/m*3 10.3 C 0.26667 km/h
2843 13-11-2014 19:00:00 10.3 C 9.29 g/m*3 10.3 C 0 km/h
2844 13-11-2014 20:00:00 10.4 C 9.26 g/m*3 10.4 C 0.53333 km/h
2845 13-11-2014 21:00:00 10.525 C 9.19 g/m*3 10.53 C 1.73333 km/h
2846 13-11-2014 22:00:00 10.54167 C 9.1 g/m*3 10.54 C 0.8 km/h
2847 13-11-2014 23:00:00 10.19167 C 9.07 g/m*3 10.19 C 0.4 km/h
2848 14-11-2014 00:00:00 10.09167 C 9.03 g/m*3 10.09 C 1.06667 km/h
2849 14-11-2014 01:00:00 10.13333 C 8.89 g/m*3 10.13 C 0.93333 km/h
2850 14-11-2014 02:00:00 9.925 C 8.78 g/m*3 9.93 C 1.06667 km/h
Sensor: Nr:Datum:Temp:Abs-Feuchte:Windchill:Wind:
Aussen-T/F 2851 14-11-2014 03:00:00 9.9 C 8.7 g/m*3 9.9 C 1.46667 km/h
2852 14-11-2014 04:00:00 9.85833 C 8.58 g/m*3 9.86 C 0.66667 km/h
2853 14-11-2014 05:00:00 9.59167 C 8.6 g/m*3 9.59 C 0 km/h
2854 14-11-2014 06:00:00 9.41667 C 8.54 g/m*3 9.42 C 0 km/h
2855 14-11-2014 07:00:00 9.39167 C 8.59 g/m*3 9.39 C 0.66667 km/h
2856 14-11-2014 08:00:00 9.68333 C 8.78 g/m*3 9.68 C 0 km/h
2857 14-11-2014 09:00:00 10.10833 C 8.96 g/m*3 10.11 C 0 km/h
2858 14-11-2014 10:00:00 10.975 C 9.05 g/m*3 10.98 C 0.4 km/h
2859 14-11-2014 11:00:00 11.925 C 9.1 g/m*3 11.93 C 3.475 km/h
2860 14-11-2014 12:00:00 12.4 C 8.88 g/m*3 12.4 C 6.45 km/h
2861 14-11-2014 13:00:00 12.675 C 8.88 g/m*3 12.68 C 6.30833 km/h
2862 14-11-2014 14:00:00 12.55 C 8.99 g/m*3 12.55 C 3.74167 km/h
2863 14-11-2014 15:00:00 12.08333 C 8.87 g/m*3 12.08 C 2.93333 km/h
2864 14-11-2014 16:00:00 11.11667 C 8.78 g/m*3 11.12 C 2.40833 km/h
2865 14-11-2014 17:00:00 10.225 C 8.59 g/m*3 10.23 C 2.40833 km/h
2866 14-11-2014 18:00:00 10.175 C 8.62 g/m*3 10.18 C 3.20833 km/h
2867 14-11-2014 19:00:00 10.76667 C 8.7 g/m*3 10.6 C 5.08333 km/h
2868 14-11-2014 20:00:00 10.63333 C 8.62 g/m*3 10.45 C 5.09167 km/h
2869 14-11-2014 21:00:00 10.40833 C 8.6 g/m*3 10.41 C 4.68333 km/h
2870 14-11-2014 22:00:00 10.50833 C 8.72 g/m*3 10.16 C 5.6 km/h
2871 14-11-2014 23:00:00 9.9 C 8.75 g/m*3 9.9 C 1.06667 km/h
2872 15-11-2014 00:00:00 9.38333 C 8.67 g/m*3 9.38 C 0.4 km/h
2873 15-11-2014 01:00:00 8.75 C 8.39 g/m*3 8.75 C 2.4 km/h
2874 15-11-2014 02:00:00 8.10833 C 8.08 g/m*3 8.11 C 1.73333 km/h
2875 15-11-2014 03:00:00 7.86667 C 7.99 g/m*3 7.87 C 0.66667 km/h
Sensor: Nr:Datum:Temp:Abs-Feuchte:Windchill:Wind:
Aussen-T/F 2876 15-11-2014 04:00:00 8.1 C 8.15 g/m*3 8.1 C 1.06667 km/h
2877 15-11-2014 05:00:00 8.19167 C 8.2 g/m*3 8.19 C 1.86667 km/h
2878 15-11-2014 06:00:00 8.3 C 8.26 g/m*3 8.3 C 2 km/h
2879 15-11-2014 07:00:00 8.575 C 8.32 g/m*3 8.57 C 1.73333 km/h
2880 15-11-2014 08:00:00 8.75 C 8.42 g/m*3 8.75 C 0.93333 km/h
2881 15-11-2014 09:00:00 9.24167 C 8.57 g/m*3 9.24 C 1.73333 km/h
2882 15-11-2014 10:00:00 10.06667 C 8.59 g/m*3 9.69 C 5.48333 km/h
2883 15-11-2014 11:00:00 10.35 C 8.87 g/m*3 10.35 C 3.06667 km/h
2884 15-11-2014 12:00:00 10.75833 C 8.93 g/m*3 10.76 C 3.74167 km/h
2885 15-11-2014 13:00:00 11.30833 C 9.11 g/m*3 11.31 C 3.46667 km/h
2886 15-11-2014 14:00:00 11.65 C 9.25 g/m*3 11.65 C 3.34167 km/h
2887 15-11-2014 15:00:00 11.50833 C 9.26 g/m*3 11.51 C 2.13333 km/h
2888 15-11-2014 16:00:00 11.1 C 9.28 g/m*3 11.1 C 0.53333 km/h
2889 15-11-2014 17:00:00 10.95 C 9.13 g/m*3 10.95 C 2.13333 km/h
2890 15-11-2014 18:00:00 10.775 C 9.17 g/m*3 10.78 C 0.8 km/h
2891 15-11-2014 19:00:00 10.35833 C 9.13 g/m*3 10.36 C 0.26667 km/h
2892 15-11-2014 20:00:00 10.325 C 9.11 g/m*3 10.33 C 0.13333 km/h
2893 15-11-2014 21:00:00 10.26667 C 9.17 g/m*3 10.27 C 0.26667 km/h
2894 15-11-2014 22:00:00 9.99167 C 9.11 g/m*3 9.99 C 0.8 km/h
2895 15-11-2014 23:00:00 9.55 C 8.86 g/m*3 9.55 C 0.93333 km/h
2896 16-11-2014 00:00:00 9.325 C 8.8 g/m*3 9.32 C 0.13333 km/h
2897 16-11-2014 01:00:00 9.28333 C 8.8 g/m*3 9.28 C 0.13333 km/h
2898 16-11-2014 02:00:00 9.18333 C 8.74 g/m*3 9.18 C 0.13333 km/h
2899 16-11-2014 03:00:00 8.9 C 8.58 g/m*3 8.9 C 0.13333 km/h
2900 16-11-2014 04:00:00 8.8 C 8.53 g/m*3 8.8 C 2.13333 km/h
Sensor: Nr:Datum:Temp:Abs-Feuchte:Windchill:Wind:
Aussen-T/F 2901 16-11-2014 05:00:00 8.725 C 8.42 g/m*3 8.73 C 2.53333 km/h
2902 16-11-2014 06:00:00 8.65833 C 8.37 g/m*3 8.66 C 2.26667 km/h
2903 16-11-2014 07:00:00 8.46667 C 8.26 g/m*3 8.47 C 2.53333 km/h
2904 16-11-2014 08:00:00 8.25 C 8.15 g/m*3 8.25 C 1.06667 km/h
2905 16-11-2014 09:00:00 8.3 C 8.18 g/m*3 8.3 C 0.66667 km/h
2906 16-11-2014 10:00:00 8.43333 C 8.25 g/m*3 8.43 C 0.4 km/h
2907 16-11-2014 11:00:00 8.8 C 8.44 g/m*3 8.8 C 0.13333 km/h
2908 16-11-2014 12:00:00 9.14167 C 8.63 g/m*3 9.14 C 0 km/h
2909 16-11-2014 13:00:00 9.34167 C 8.74 g/m*3 9.34 C 0.53333 km/h
2910 16-11-2014 14:00:00 9.73333 C 8.89 g/m*3 9.73 C 0 km/h
2911 16-11-2014 15:00:00 9.9875 C 9.07 g/m*3 9.99 C 0 km/h
2912 16-11-2014 16:00:00 9.21 C 8.67 g/m*3 9.21 C 0 km/h
2913 16-11-2014 17:00:00 8.60833 C 8.39 g/m*3 8.61 C 0 km/h
2914 16-11-2014 18:00:00 8.775 C 8.52 g/m*3 8.78 C 0 km/h
2915 16-11-2014 19:00:00 8.7 C 8.48 g/m*3 8.7 C 0 km/h
2916 16-11-2014 20:00:00 8.56667 C 8.4 g/m*3 8.57 C 0 km/h
2917 16-11-2014 21:00:00 8.28333 C 8.25 g/m*3 8.28 C 0 km/h
2918 16-11-2014 22:00:00 8.075 C 8.14 g/m*3 8.07 C 0 km/h
2919 16-11-2014 23:00:00 7.1 C 7.64 g/m*3 7.1 C 0 km/h
2920 17-11-2014 00:00:00 7.6 C 7.94 g/m*3 7.6 C 0 km/h
2921 17-11-2014 01:00:00 7.80833 C 8.02 g/m*3 7.81 C 1.2 km/h
2922 17-11-2014 02:00:00 8.08333 C 8.15 g/m*3 8.08 C 2.93333 km/h
2923 17-11-2014 03:00:00 8.39167 C 8.36 g/m*3 8.39 C 1.06667 km/h
2924 17-11-2014 04:00:00 8.45 C 8.34 g/m*3 8.45 C 1.6 km/h
2925 17-11-2014 05:00:00 8.225 C 8.22 g/m*3 8.23 C 2 km/h
Sensor: Nr:Datum:Temp:Abs-Feuchte:Windchill:Wind:
Aussen-T/F 2926 17-11-2014 06:00:00 8.21667 C 8.22 g/m*3 8.22 C 1.73333 km/h
2927 17-11-2014 07:00:00 8.19167 C 8.2 g/m*3 8.19 C 0.93333 km/h
2928 17-11-2014 08:00:00 8.06667 C 8.14 g/m*3 8.07 C 1.06667 km/h
2929 17-11-2014 09:00:00 8.25833 C 8.24 g/m*3 8.26 C 0.66667 km/h
2930 17-11-2014 10:00:00 8.8 C 8.53 g/m*3 8.8 C 0.4 km/h
2931 17-11-2014 11:00:00 9.43333 C 8.84 g/m*3 9.43 C 0.8 km/h
2932 17-11-2014 12:00:00 10.025 C 9.05 g/m*3 10.03 C 0.8 km/h
2933 17-11-2014 13:00:00 9.93333 C 8.97 g/m*3 9.93 C 0.13333 km/h
2934 17-11-2014 14:00:00 10.43333 C 9.12 g/m*3 10.43 C 0.13333 km/h
2935 17-11-2014 15:00:00 10.175 C 9.14 g/m*3 10.18 C 0.26667 km/h
2936 17-11-2014 16:00:00 9.50833 C 8.83 g/m*3 9.51 C 3.6 km/h
2937 17-11-2014 17:00:00 8.75 C 8.44 g/m*3 8.75 C 4.53333 km/h
2938 17-11-2014 18:00:00 8.66667 C 8.46 g/m*3 8.67 C 3.06667 km/h
2939 17-11-2014 19:00:00 8.30833 C 8.26 g/m*3 8.31 C 2.53333 km/h
2940 17-11-2014 20:00:00 8.44167 C 8.34 g/m*3 8.44 C 2.26667 km/h
2941 17-11-2014 21:00:00 8.48333 C 8.36 g/m*3 8.48 C 0.93333 km/h
2942 17-11-2014 22:00:00 8.50833 C 8.37 g/m*3 8.51 C 0.26667 km/h
2943 17-11-2014 23:00:00 8.31667 C 8.27 g/m*3 8.32 C 1.06667 km/h
2944 18-11-2014 00:00:00 8.15 C 8.18 g/m*3 8.15 C 1.46667 km/h
2945 18-11-2014 01:00:00 7.95833 C 8.08 g/m*3 7.96 C 1.2 km/h
2946 18-11-2014 02:00:00 7.6 C 7.9 g/m*3 7.6 C 1.73333 km/h
2947 18-11-2014 03:00:00 7.75833 C 7.98 g/m*3 7.76 C 0 km/h
2948 18-11-2014 04:00:00 7.8 C 8 g/m*3 7.8 C 0 km/h
2949 18-11-2014 05:00:00 7.775 C 7.99 g/m*3 7.78 C 0 km/h
2950 18-11-2014 06:00:00 7.71667 C 7.95 g/m*3 7.72 C 0 km/h
Sensor: Nr:Datum:Temp:Abs-Feuchte:Windchill:Wind:
Aussen-T/F 2951 18-11-2014 07:00:00 7.76667 C 7.98 g/m*3 7.77 C 0 km/h
2952 18-11-2014 08:00:00 7.90833 C 8.05 g/m*3 7.91 C 0 km/h
2953 18-11-2014 09:00:00 8.19167 C 8.2 g/m*3 8.19 C 0 km/h
2954 18-11-2014 10:00:00 8.40833 C 8.32 g/m*3 8.41 C 0 km/h
2955 18-11-2014 11:00:00 8.675 C 8.45 g/m*3 8.68 C 0 km/h
2956 18-11-2014 12:00:00 9.275 C 8.64 g/m*3 9.28 C 0.26667 km/h
2957 18-11-2014 13:00:00 9.74167 C 8.63 g/m*3 9.74 C 0.26667 km/h
2958 18-11-2014 14:00:00 10.07143 C 8.67 g/m*3 10.07 C 0.22857 km/h
2959 18-11-2014 15:00:00 9.8 C 8.67 g/m*3 9.8 C 0.96 km/h
2960 18-11-2014 16:00:00 9.75 C 8.59 g/m*3 9.75 C 3.06667 km/h
2961 18-11-2014 17:00:00 9.6 C 8.53 g/m*3 9.6 C 3.46667 km/h
2962 18-11-2014 18:00:00 9.35 C 8.53 g/m*3 9.35 C 2.53333 km/h
2963 18-11-2014 19:00:00 9.05 C 8.56 g/m*3 9.05 C 0.93333 km/h
2964 18-11-2014 20:00:00 8.925 C 8.52 g/m*3 8.93 C 1.46667 km/h
2965 18-11-2014 21:00:00 8.9 C 8.58 g/m*3 8.9 C 0 km/h
2966 18-11-2014 22:00:00 8.83333 C 8.55 g/m*3 8.83 C 0 km/h
2967 18-11-2014 23:00:00 8.79167 C 8.53 g/m*3 8.79 C 0 km/h
2968 19-11-2014 00:00:00 8.64167 C 8.44 g/m*3 8.64 C 0 km/h
2969 19-11-2014 01:00:00 8.525 C 8.38 g/m*3 8.53 C 0.26667 km/h
2970 19-11-2014 02:00:00 8.4 C 8.31 g/m*3 8.4 C 0 km/h
2971 19-11-2014 03:00:00 8.31667 C 8.27 g/m*3 8.32 C 0 km/h
2972 19-11-2014 04:00:00 8.26667 C 8.24 g/m*3 8.27 C 0.26667 km/h
2973 19-11-2014 05:00:00 8.25 C 8.23 g/m*3 8.25 C 0.13333 km/h
2974 19-11-2014 06:00:00 8.05 C 8.14 g/m*3 8.05 C 1.6 km/h
2975 19-11-2014 07:00:00 8.1 C 8.2 g/m*3 8.1 C 0.26667 km/h
Sensor: Nr:Datum:Temp:Abs-Feuchte:Windchill:Wind:
Aussen-T/F 2976 19-11-2014 08:00:00 8.11667 C 8.18 g/m*3 8.12 C 0.13333 km/h
2977 19-11-2014 09:00:00 8.45833 C 8.41 g/m*3 8.46 C 0 km/h
2978 19-11-2014 10:00:00 8.7 C 8.35 g/m*3 8.7 C 0.26667 km/h
2979 19-11-2014 11:00:00 9.46667 C 8.19 g/m*3 9.47 C 0.13333 km/h
2980 19-11-2014 12:00:00 9.99167 C 8.37 g/m*3 9.99 C 3.73333 km/h
2981 19-11-2014 13:00:00 10.175 C 8.28 g/m*3 10.18 C 2.13333 km/h
2982 19-11-2014 14:00:00 10.1 C 8.41 g/m*3 10.1 C 2.13333 km/h
2983 19-11-2014 15:00:00 8.95833 C 8.28 g/m*3 8.96 C 2.93333 km/h
2984 19-11-2014 16:00:00 8.36667 C 8.04 g/m*3 8.37 C 4.4 km/h
2985 19-11-2014 17:00:00 7.45833 C 7.66 g/m*3 7.46 C 4 km/h
2986 19-11-2014 18:00:00 6.76667 C 7.36 g/m*3 6.77 C 0.4 km/h
2987 19-11-2014 19:00:00 6.525 C 7.31 g/m*3 6.53 C 0 km/h
2988 19-11-2014 20:00:00 6.8 C 7.49 g/m*3 6.8 C 0 km/h
2989 19-11-2014 21:00:00 6.41667 C 7.26 g/m*3 6.42 C 0 km/h
2990 19-11-2014 22:00:00 5.575 C 6.87 g/m*3 5.58 C 0 km/h
2991 19-11-2014 23:00:00 5.36667 C 6.82 g/m*3 5.37 C 0 km/h
2992 20-11-2014 00:00:00 5.70833 C 6.98 g/m*3 5.71 C 0.26667 km/h
2993 20-11-2014 01:00:00 5.625 C 6.94 g/m*3 5.63 C 1.2 km/h
2994 20-11-2014 02:00:00 5.21667 C 6.76 g/m*3 5.22 C 0.26667 km/h
2995 20-11-2014 03:00:00 5.05 C 6.68 g/m*3 5.05 C 0.4 km/h
2996 20-11-2014 04:00:00 5.225 C 6.76 g/m*3 5.23 C 0.13333 km/h
2997 20-11-2014 05:00:00 5.3 C 6.79 g/m*3 5.3 C 0 km/h
2998 20-11-2014 06:00:00 5.38333 C 6.84 g/m*3 5.38 C 0.26667 km/h
2999 20-11-2014 07:00:00 5.31667 C 6.8 g/m*3 5.32 C 0.53333 km/h
3000 20-11-2014 08:00:00 5.40833 C 6.84 g/m*3 5.41 C 0.4 km/h
Sensor: Nr:Datum:Temp:Abs-Feuchte:Windchill:Wind:
Aussen-T/F 3001 20-11-2014 09:00:00 5.56667 C 6.92 g/m*3 5.57 C 2.66667 km/h
3002 20-11-2014 10:00:00 6.1 C 7.2 g/m*3 6.1 C 0.93333 km/h
3003 20-11-2014 11:00:00 6.95833 C 7.51 g/m*3 6.96 C 1.73333 km/h
3004 20-11-2014 12:00:00 8.08333 C 7.67 g/m*3 8.08 C 2.93333 km/h
3005 20-11-2014 13:00:00 8.325 C 7.47 g/m*3 8.32 C 4.69167 km/h
3006 20-11-2014 14:00:00 8.14167 C 7.31 g/m*3 8.14 C 2.93333 km/h
3007 20-11-2014 15:00:00 7.95 C 7.19 g/m*3 7.95 C 3.2 km/h
3008 20-11-2014 16:00:00 7.74167 C 7.26 g/m*3 7.74 C 0.93333 km/h
3009 20-11-2014 17:00:00 7.31667 C 7.2 g/m*3 7.32 C 0.8 km/h
3010 20-11-2014 18:00:00 6.85833 C 7.15 g/m*3 6.86 C 0.53333 km/h
3011 20-11-2014 19:00:00 6.96667 C 7.2 g/m*3 6.97 C 0.13333 km/h
3012 20-11-2014 20:00:00 6.99167 C 7.13 g/m*3 6.99 C 0.13333 km/h
3013 20-11-2014 21:00:00 7 C 7.06 g/m*3 7 C 0.8 km/h
3014 20-11-2014 22:00:00 6.36667 C 6.89 g/m*3 6.37 C 1.6 km/h
3015 20-11-2014 23:00:00 6.31667 C 6.93 g/m*3 6.32 C 0.4 km/h
3016 21-11-2014 00:00:00 6.23333 C 6.92 g/m*3 6.23 C 0 km/h
3017 21-11-2014 01:00:00 6.075 C 6.83 g/m*3 6.08 C 0.26667 km/h
3018 21-11-2014 02:00:00 6.06667 C 6.85 g/m*3 6.07 C 0 km/h
3019 21-11-2014 03:00:00 5.55833 C 6.62 g/m*3 5.56 C 0.8 km/h
3020 21-11-2014 04:00:00 4.81667 C 6.35 g/m*3 4.82 C 3.73333 km/h
3021 21-11-2014 05:00:00 3.925 C 6.06 g/m*3 3.93 C 3.6 km/h
3022 21-11-2014 06:00:00 3.39167 C 5.89 g/m*3 3.39 C 2.13333 km/h
3023 21-11-2014 07:00:00 3.05833 C 5.79 g/m*3 3.06 C 2.26667 km/h
3024 21-11-2014 08:00:00 2.81667 C 5.7 g/m*3 2.82 C 0.26667 km/h
3025 21-11-2014 09:00:00 3.05 C 5.84 g/m*3 3.05 C 0 km/h
Sensor: Nr:Datum:Temp:Abs-Feuchte:Windchill:Wind:
Aussen-T/F 3026 21-11-2014 10:00:00 3.56667 C 6.05 g/m*3 3.57 C 2.53333 km/h
3027 21-11-2014 11:00:00 4.38333 C 6.39 g/m*3 4.38 C 3.33333 km/h
3028 21-11-2014 12:00:00 5.44167 C 6.86 g/m*3 5.44 C 2.8 km/h
3029 21-11-2014 13:00:00 6.16667 C 7.07 g/m*3 6.17 C 3.6 km/h
3030 21-11-2014 14:00:00 6.70833 C 7.23 g/m*3 6.71 C 4.8 km/h
3031 21-11-2014 15:00:00 6.725 C 7.21 g/m*3 6.73 C 4.4 km/h
3032 21-11-2014 16:00:00 7.25833 C 7.49 g/m*3 7.26 C 2.26667 km/h
3033 21-11-2014 17:00:00 7.4 C 7.48 g/m*3 7.4 C 0.8 km/h
3034 21-11-2014 18:00:00 7.55 C 7.35 g/m*3 7.55 C 2 km/h
3035 21-11-2014 19:00:00 7.76667 C 7.29 g/m*3 7.77 C 1.33333 km/h
3036 21-11-2014 20:00:00 6.35 C 6.83 g/m*3 6.35 C 2.4 km/h
3037 21-11-2014 21:00:00 5.275 C 6.53 g/m*3 5.28 C 3.2 km/h
3038 21-11-2014 22:00:00 4.775 C 6.38 g/m*3 4.78 C 2.8 km/h
3039 21-11-2014 23:00:00 4.39167 C 6.27 g/m*3 4.39 C 1.73333 km/h
3040 22-11-2014 00:00:00 3.98333 C 6.11 g/m*3 3.98 C 2 km/h
3041 22-11-2014 01:00:00 3.825 C 6.1 g/m*3 3.83 C 0.66667 km/h
3042 22-11-2014 02:00:00 3.49167 C 5.96 g/m*3 3.49 C 1.46667 km/h
3043 22-11-2014 03:00:00 3.14167 C 5.82 g/m*3 3.14 C 0.13333 km/h
3044 22-11-2014 04:00:00 3.05833 C 5.81 g/m*3 3.06 C 1.86667 km/h
3045 22-11-2014 05:00:00 3.11667 C 5.87 g/m*3 3.12 C 0.53333 km/h
3046 22-11-2014 06:00:00 3.475 C 6.02 g/m*3 3.48 C 0.53333 km/h
3047 22-11-2014 07:00:00 3.475 C 6.02 g/m*3 3.48 C 0.53333 km/h
3048 22-11-2014 08:00:00 4.23333 C 6.33 g/m*3 4.23 C 1.33333 km/h
3049 22-11-2014 09:00:00 5.36667 C 6.79 g/m*3 5.37 C 1.86667 km/h
3050 22-11-2014 10:00:00 6.525 C 7.18 g/m*3 6.53 C 0.26667 km/h
Sensor: Nr:Datum:Temp:Abs-Feuchte:Windchill:Wind:
Aussen-T/F 3051 22-11-2014 11:00:00 6.96667 C 7.33 g/m*3 6.97 C 1.2 km/h
3052 22-11-2014 12:00:00 7.68333 C 7.78 g/m*3 7.68 C 2.13333 km/h
3053 22-11-2014 13:00:00 8.9 C 8.34 g/m*3 8.9 C 1.46667 km/h
3054 22-11-2014 14:00:00 10.44167 C 8.76 g/m*3 10.44 C 1.06667 km/h
3055 22-11-2014 15:00:00 10.25833 C 8.5 g/m*3 10.26 C 2.53333 km/h
3056 22-11-2014 16:00:00 8.8 C 7.91 g/m*3 8.8 C 3.34167 km/h
3057 22-11-2014 17:00:00 7.41667 C 7.52 g/m*3 7.42 C 2.13333 km/h
3058 22-11-2014 18:00:00 7.26667 C 7.46 g/m*3 7.27 C 2.675 km/h
3059 22-11-2014 19:00:00 6.53333 C 7.16 g/m*3 6.53 C 1.46667 km/h
3060 22-11-2014 20:00:00 5.96667 C 6.96 g/m*3 5.97 C 1.46667 km/h
3061 22-11-2014 21:00:00 5.53333 C 6.8 g/m*3 5.53 C 2.66667 km/h
3062 22-11-2014 22:00:00 5.30833 C 6.73 g/m*3 5.31 C 2 km/h
3063 22-11-2014 23:00:00 5.29167 C 6.77 g/m*3 5.29 C 2.26667 km/h
3064 23-11-2014 00:00:00 5.20833 C 6.73 g/m*3 5.21 C 0.93333 km/h
3065 23-11-2014 01:00:00 4.975 C 6.65 g/m*3 4.97 C 0.4 km/h
3066 23-11-2014 02:00:00 4.875 C 6.6 g/m*3 4.88 C 0 km/h
3067 23-11-2014 03:00:00 4.53333 C 6.46 g/m*3 4.53 C 0.4 km/h
3068 23-11-2014 04:00:00 4.31667 C 6.36 g/m*3 4.32 C 0 km/h
3069 23-11-2014 05:00:00 4.31667 C 6.36 g/m*3 4.32 C 0.4 km/h
3070 23-11-2014 06:00:00 4.50833 C 6.47 g/m*3 4.51 C 0 km/h
3071 23-11-2014 07:00:00 5.19167 C 6.79 g/m*3 5.19 C 1.2 km/h
3072 23-11-2014 08:00:00 5.325 C 6.86 g/m*3 5.33 C 0.66667 km/h
3073 23-11-2014 09:00:00 5.575 C 6.98 g/m*3 5.58 C 0.13333 km/h
3074 23-11-2014 10:00:00 6.45 C 7.4 g/m*3 6.45 C 1.06667 km/h
3075 23-11-2014 11:00:00 6.71667 C 7.45 g/m*3 6.72 C 1.6 km/h
Sensor: Nr:Datum:Temp:Abs-Feuchte:Windchill:Wind:
Aussen-T/F 3076 23-11-2014 12:00:00 7.18333 C 7.65 g/m*3 7.18 C 1.06667 km/h
3077 23-11-2014 13:00:00 8.08333 C 7.92 g/m*3 8.08 C 2.53333 km/h
3078 23-11-2014 14:00:00 8.34167 C 7.93 g/m*3 8.34 C 1.2 km/h
3079 23-11-2014 15:00:00 8.25833 C 7.94 g/m*3 8.26 C 0.93333 km/h
3080 23-11-2014 16:00:00 7.55 C 7.59 g/m*3 7.55 C 0.53333 km/h
3081 23-11-2014 17:00:00 6.48333 C 7.19 g/m*3 6.48 C 2.40833 km/h
3082 23-11-2014 18:00:00 7.08333 C 7.35 g/m*3 7.08 C 4.01667 km/h
3083 23-11-2014 19:00:00 6.725 C 7.28 g/m*3 6.73 C 1.73333 km/h
3084 23-11-2014 20:00:00 7.14167 C 7.53 g/m*3 7.14 C 0.53333 km/h
3085 23-11-2014 21:00:00 7.28333 C 7.61 g/m*3 7.28 C 1.6 km/h
3086 23-11-2014 22:00:00 7.49167 C 7.76 g/m*3 7.49 C 1.2 km/h
3087 23-11-2014 23:00:00 7.60833 C 7.82 g/m*3 7.61 C 0.53333 km/h
3088 24-11-2014 00:00:00 7.6 C 7.81 g/m*3 7.6 C 0 km/h
3089 24-11-2014 01:00:00 7.63333 C 7.83 g/m*3 7.63 C 0.8 km/h
3090 24-11-2014 02:00:00 7.93333 C 7.98 g/m*3 7.93 C 0.4 km/h
3091 24-11-2014 03:00:00 7.90833 C 7.97 g/m*3 7.91 C 0 km/h
3092 24-11-2014 04:00:00 7.95 C 7.99 g/m*3 7.95 C 1.06667 km/h
3093 24-11-2014 05:00:00 8.19167 C 8.05 g/m*3 8.19 C 2.8 km/h
3094 24-11-2014 06:00:00 9.36667 C 8.75 g/m*3 9.37 C 2.93333 km/h
3095 24-11-2014 07:00:00 9.775 C 8.94 g/m*3 9.78 C 4.41667 km/h
3096 24-11-2014 08:00:00 9.85 C 8.78 g/m*3 9.4 C 5.64167 km/h
3097 24-11-2014 09:00:00 9.675 C 8.76 g/m*3 9.68 C 3.2 km/h
3098 24-11-2014 10:00:00 9.70833 C 8.76 g/m*3 9.71 C 3.35833 km/h
3099 24-11-2014 11:00:00 9.83333 C 8.69 g/m*3 9.83 C 2.80833 km/h
3100 24-11-2014 12:00:00 10.025 C 8.49 g/m*3 9.76 C 5.09167 km/h
Sensor: Nr:Datum:Temp:Abs-Feuchte:Windchill:Wind:
Aussen-T/F 3101 24-11-2014 13:00:00 9.99167 C 8.03 g/m*3 8.9 C 8.46667 km/h
3102 24-11-2014 14:00:00 10.2 C 7.87 g/m*3 9 C 9.275 km/h
3103 24-11-2014 15:00:00 9.6 C 7.58 g/m*3 9.6 C 3.54 km/h
3104 24-11-2014 16:00:00 6.35 C 6.98 g/m*3 5.4 C 5.6 km/h
3105 24-11-2014 17:00:00 5.85 C 6.82 g/m*3 5.85 C 3.6 km/h
3106 24-11-2014 18:00:00 5.04167 C 6.53 g/m*3 5.04 C 0.66667 km/h
3107 24-11-2014 19:00:00 4.16667 C 6.2 g/m*3 4.17 C 0 km/h
3108 24-11-2014 20:00:00 3.53333 C 5.98 g/m*3 3.53 C 0 km/h
3109 24-11-2014 21:00:00 2.81667 C 5.7 g/m*3 2.82 C 0 km/h
3110 24-11-2014 22:00:00 2.29167 C 5.5 g/m*3 2.29 C 0.13333 km/h
3111 24-11-2014 23:00:00 1.96667 C 5.41 g/m*3 1.97 C 0.26667 km/h
3112 25-11-2014 00:00:00 1.86667 C 5.4 g/m*3 1.87 C 0.4 km/h
3113 25-11-2014 01:00:00 2.06667 C 5.47 g/m*3 2.07 C 0 km/h
3114 25-11-2014 02:00:00 1.86667 C 5.4 g/m*3 1.87 C 0.26667 km/h
3115 25-11-2014 03:00:00 1.76667 C 5.36 g/m*3 1.77 C 1.2 km/h
3116 25-11-2014 04:00:00 1.55833 C 5.29 g/m*3 1.56 C 0.13333 km/h
3117 25-11-2014 05:00:00 2.1 C 5.5 g/m*3 2.1 C 0.66667 km/h
3118 25-11-2014 06:00:00 2.25 C 5.55 g/m*3 2.25 C 0.66667 km/h
3119 25-11-2014 07:00:00 2.21667 C 5.56 g/m*3 2.22 C 0.4 km/h
3120 25-11-2014 08:00:00 2.175 C 5.53 g/m*3 2.17 C 0 km/h
3121 25-11-2014 09:00:00 2.475 C 5.68 g/m*3 2.48 C 1.33333 km/h
3122 25-11-2014 10:00:00 2.875 C 5.84 g/m*3 2.88 C 2.2 km/h
3123 25-11-2014 11:00:00 3.45833 C 6.05 g/m*3 3.46 C 1.33333 km/h
3124 25-11-2014 12:00:00 3.53333 C 6.04 g/m*3 3.53 C 1.06667 km/h
3125 25-11-2014 13:00:00 3.54167 C 6.04 g/m*3 3.54 C 0.26667 km/h
Sensor: Nr:Datum:Temp:Abs-Feuchte:Windchill:Wind:
Aussen-T/F 3126 25-11-2014 14:00:00 3.95556 C 6.21 g/m*3 3.96 C 3.02222 km/h
3127 25-11-2014 15:00:00 4.2 C 6.31 g/m*3 4.2 C 3.2 km/h
3128 25-11-2014 17:00:00 3.4 C 5.92 g/m*3 3.4 C 4.4 km/h
3129 25-11-2014 18:00:00 3.25 C 5.86 g/m*3 3.25 C 4 km/h
3130 25-11-2014 19:00:00 3.35 C 5.96 g/m*3 3.35 C 2.66667 km/h
3131 25-11-2014 20:00:00 4.14167 C 6.29 g/m*3 4.14 C 1.2 km/h
3132 25-11-2014 21:00:00 4.825 C 6.53 g/m*3 4.83 C 1.2 km/h
3133 25-11-2014 22:00:00 5.2 C 6.64 g/m*3 5.2 C 0.53333 km/h
3134 25-11-2014 23:00:00 5.39167 C 6.49 g/m*3 5.39 C 4.68333 km/h
3135 26-11-2014 00:00:00 5.36667 C 6.33 g/m*3 5.37 C 4 km/h
3136 26-11-2014 01:00:00 5.21667 C 6.27 g/m*3 5.22 C 2.93333 km/h
3137 26-11-2014 02:00:00 4.88333 C 6.14 g/m*3 4.88 C 2 km/h
3138 26-11-2014 03:00:00 4.73333 C 6.04 g/m*3 4.73 C 2.4 km/h
3139 26-11-2014 04:00:00 4.6 C 5.96 g/m*3 3.6 C 5.08333 km/h
3140 26-11-2014 05:00:00 4.40833 C 5.89 g/m*3 4.41 C 1.73333 km/h
3141 26-11-2014 06:00:00 4.35833 C 5.9 g/m*3 4.36 C 0.53333 km/h
3142 26-11-2014 07:00:00 4.35833 C 5.88 g/m*3 4.36 C 0.93333 km/h
3143 26-11-2014 08:00:00 4.4 C 5.88 g/m*3 4.4 C 2 km/h
3144 26-11-2014 09:00:00 4.57143 C 5.87 g/m*3 4.57 C 3.42857 km/h
3145 26-11-2014 11:00:00 5.7 C 6.03 g/m*3 5.7 C 2.88 km/h
3146 26-11-2014 12:00:00 5.66667 C